[[{"header":{"parameterUnit":"m.s-1","parameterCategory":1,"la1":31.0,"la2":29.5877,"lo1":-88.7671,"lo2":-86.6584,"dy":0.0162,"dx":0.0185,"nx":115,"ny":88,"refTime":"2026-05-12T00:00:00:Z","depth":0,"parameterNumber":2,"parameterNumberName":"U-component_of_WINDS"},"data":[0.0,0.0,0.0,0.0,0.0,0.0,0.0,0.0,0.0,0.0,0.0,0.0,0.0,0.0,0.0,0.0,0.0,0.0,0.0,0.0,0.0,0.0,0.0,0.0,0.0,0.0,0.0,0.0,0.0,0.0,0.0,0.0,0.0,0.0,0.0,0.0,0.0,0.0,0.0,0.0,0.0,0.0,0.0,0.0,0.0,0.0,0.0,0.0,0.0,0.0,0.0,0.0,0.0,0.0,0.0,0.0,0.0,0.0,0.0,0.0,0.0,0.0,0.0,0.0,0.0,0.0,0.0,0.0,0.0,0.0,0.0,0.0,0.0,0.0,0.0,0.0,0.0,0.0,0.0,0.0,0.0,0.0,0.0,0.0,0.0,0.0,0.0,0.0,0.0,0.0,0.0,0.0,0.0,0.0,0.0,0.0,0.0,0.0,0.0,0.0,0.0,0.0,0.0,0.0,0.0,0.0,0.0,0.0,0.0,0.0,0.0,0.0,0.0,0.0,0.0,0.0,0.0,0.0,0.0,0.0,0.0,0.0,0.0,0.0,0.0,0.0,0.0,0.0,0.0,0.0,0.0,0.0,0.0,0.0,0.0,0.0,0.0,0.0,0.0,0.0,0.0,0.0,0.0,0.0,0.0,0.0,0.0,0.0,0.0,0.0,0.0,0.0,0.0,0.0,0.0,0.0,0.0,0.0,0.0,0.0,0.0,0.0,0.0,0.0,0.0,0.0,0.0,0.0,0.0,0.0,0.0,0.0,0.0,0.0,0.0,0.0,0.0,0.0,0.0,0.0,0.0,0.0,0.0,0.0,0.0,0.0,0.0,0.0,0.0,0.0,0.0,0.0,0.0,0.0,0.0,0.0,0.0,0.0,0.0,0.0,0.0,0.0,0.0,0.0,0.0,0.0,0.0,0.0,0.0,0.0,0.0,0.0,0.0,0.0,0.0,0.0,0.0,0.0,0.0,0.0,0.0,0.0,0.0,0.0,0.0,0.0,0.0,0.0,0.0,0.0,0.0,0.0,0.0,0.0,0.0,0.0,0.0,0.0,0.0,0.0,0.0,0.0,0.0,0.0,0.0,0.0,0.0,0.0,0.0,0.0,0.0,0.0,0.0,0.0,0.0,0.0,0.0,0.0,0.0,0.0,0.0,0.0,0.0,0.0,0.0,0.0,0.0,0.0,0.0,0.0,0.0,0.0,0.0,0.0,0.0,0.0,0.0,0.0,0.0,0.0,0.0,0.0,0.0,0.0,0.0,0.0,0.0,0.0,0.0,0.0,0.0,0.0,0.0,0.0,0.0,0.0,0.0,0.0,0.0,0.0,0.0,0.0,0.0,0.0,0.0,0.0,0.0,0.0,0.0,0.0,0.0,0.0,0.0,0.0,0.0,0.0,0.0,0.0,0.0,0.0,0.0,0.0,0.0,0.0,0.0,0.0,0.0,0.0,0.0,0.0,0.0,0.0,0.0,0.0,0.0,0.0,0.0,0.0,0.0,0.0,0.0,0.0,0.0,0.0,0.0,0.0,0.0,0.0,0.0,0.0,0.0,0.0,0.0,0.0,0.0,0.0,0.0,0.0,0.0,0.0,0.0,0.0,0.0,0.0,0.0,0.0,0.0,0.0,0.0,0.0,0.0,0.0,0.0,0.0,0.0,0.0,0.0,0.0,0.0,0.0,0.0,0.0,0.0,0.0,0.0,0.0,0.0,0.0,0.0,0.0,0.0,0.0,0.0,0.0,0.0,0.0,0.0,0.0,0.0,0.0,0.0,0.0,0.0,0.0,0.0,0.0,0.0,0.0,0.0,0.0,0.0,0.0,0.0,0.0,0.0,0.0,0.0,0.0,0.0,0.0,0.0,0.0,0.0,0.0,0.0,0.0,0.0,0.0,0.0,0.0,0.0,0.0,0.0,0.0,0.0,0.0,0.0,0.0,0.0,0.0,0.0,0.0,0.0,0.0,0.0,0.0,0.0,0.0,0.0,0.0,0.0,0.0,0.0,0.0,0.0,0.0,0.0,0.0,0.0,0.0,0.0,0.0,0.0,0.0,0.0,0.0,0.0,0.0,0.0,0.0,0.0,0.0,0.0,0.0,0.0,0.0,0.0,0.0,0.0,0.0,0.0,0.0,0.0,0.0,0.0,0.0,0.0,0.0,0.0,0.0,0.0,0.0,0.0,0.0,0.0,0.0,0.0,0.0,0.0,0.0,0.0,0.0,0.0,0.0,0.0,0.0,0.0,0.0,0.0,0.0,0.0,0.0,0.0,0.0,0.0,0.0,0.0,0.0,0.0,0.0,0.0,0.0,0.0,0.0,0.0,0.0,0.0,0.0,0.0,0.0,0.0,0.0,0.0,0.0,0.0,0.0,0.0,0.0,0.0,0.0,0.0,0.0,0.0,0.0,0.0,0.0,0.0,0.0,0.0,0.0,0.0,0.0,0.0,0.0,0.0,0.0,0.0,0.0,0.0,0.0,0.0,0.0,0.0,0.0,0.0,0.0,0.0,0.0,0.0,0.0,0.0,0.0,0.0,0.0,0.0,0.0,0.0,0.0,0.0,0.0,0.0,0.0,0.0,0.0,0.0,0.0,0.0,0.0,0.0,0.0,0.0,0.0,0.0,0.0,0.0,0.0,0.0,0.0,0.0,0.0,0.0,0.0,0.0,0.0,0.0,0.0,0.0,0.0,0.0,0.0,0.0,0.0,0.0,0.0,0.0,0.0,0.0,0.0,0.0,0.0,0.0,0.0,0.0,0.0,0.0,0.0,0.0,0.0,0.0,0.0,0.0,0.0,0.0,0.0,0.0,0.0,0.0,0.0,0.0,0.0,0.0,0.0,0.0,0.0,0.0,0.0,0.0,0.0,0.0,0.0,0.0,0.0,0.0,0.0,0.0,0.0,0.0,0.0,0.0,0.0,0.0,0.0,0.0,0.0,0.0,0.0,0.0,0.0,0.0,0.0,0.0,0.0,0.0,0.0,0.0,0.0,0.0,0.0,0.0,0.0,0.0,0.0,0.0,0.0,0.0,0.0,0.0,0.0,0.0,0.0,0.0,0.0,0.0,0.0,0.0,0.0,0.0,0.0,0.0,0.0,0.0,0.0,0.0,0.0,0.0,0.0,0.0,0.0,0.0,0.0,0.0,0.0,0.0,0.0,0.0,0.0,0.0,0.0,0.0,0.0,0.0,0.0,0.0,0.0,0.0,0.0,0.0,0.0,0.0,0.0,0.0,0.0,0.0,0.0,0.0,0.0,0.0,0.0,0.0,0.0,0.0,0.0,0.0,0.0,0.0,0.0,0.0,0.0,0.0,0.0,0.0,0.0,0.0,0.0,0.0,0.0,0.0,0.0,0.0,0.0,0.0,0.0,0.0,0.0,0.0,0.0,0.0,0.0,0.0,0.0,0.0,0.0,0.0,0.0,0.0,0.0,0.0,0.0,0.0,0.0,0.0,0.0,0.0,0.0,0.0,0.0,0.0,0.0,0.0,0.0,0.0,0.0,0.0,0.0,0.0,0.0,0.0,0.0,0.0,0.0,0.0,0.0,0.0,0.0,0.0,0.0,0.0,0.0,0.0,0.0,0.0,0.0,0.0,0.0,0.0,0.0,0.0,0.0,0.0,0.0,0.0,0.0,0.0,0.0,0.0,0.0,0.0,0.0,0.0,0.0,0.0,0.0,0.0,0.0,0.0,0.0,0.0,0.0,0.0,0.0,0.0,0.0,0.0,0.0,0.0,0.0,0.0,0.0,0.0,0.0,0.0,0.0,0.0,0.0,0.0,0.0,0.0,0.0,0.0,0.0,0.0,0.0,0.0,0.0,0.0,0.0,0.0,0.0,0.0,0.0,0.0,0.0,0.0,0.0,0.0,0.0,0.0,0.0,0.0,0.0,0.0,0.0,0.0,0.0,0.0,0.0,0.0,0.0,0.0,0.0,0.0,0.0,0.0,0.0,0.0,0.0,0.0,0.0,0.0,0.0,0.0,0.0,0.0,0.0,0.0,0.0,0.0,0.0,0.0,0.0,0.0,0.0,0.0,0.0,0.0,0.0,0.0,0.0,0.0,0.0,0.0,0.0,0.0,0.0,0.0,0.0,0.0,0.0,0.0,0.0,0.0,0.0,0.0,0.0,0.0,0.0,0.0,0.0,0.0,0.0,0.0,0.0,0.0,0.0,0.0,0.0,0.0,0.0,0.0,0.0,0.0,0.0,0.0,0.0,0.0,0.0,0.0,0.0,0.0,0.0,0.0,0.0,0.0,0.0,0.0,0.0,-0.0548,0.0,0.0,0.0,0.0,0.0,0.0,0.0,0.0,0.0,0.0,0.0,0.0,0.0,0.0,0.0,0.0,0.0,0.0,0.0,0.0,0.0,0.0,0.0,0.0,0.0,0.0,0.0,0.0,0.0,0.0,0.0,0.0,0.0,0.0,0.0,0.0,0.0,0.0,0.0,0.0,0.0,0.0,0.0,0.0,0.0,0.0,0.0,0.0,0.0,0.0,0.0,0.0,0.0,0.0,0.0,0.0,0.0,0.0,0.0,0.0,0.0,0.0,0.0,0.0,0.0,0.0,0.0,0.0,0.0,0.0,0.0,0.0,0.0,0.0,0.0,0.0,0.0,0.0,0.0,0.0,0.0,0.0,0.0,0.0,0.0,0.0,0.0,0.0,0.0,0.0,0.0,0.0,0.0,0.0,0.0,0.0,0.0,0.0,0.0,0.0,0.0,0.0,0.0,0.0,0.0,0.0,0.0,0.0,0.0,0.0,0.0,0.0,0.0,0.0,0.0,0.0,0.0,0.0,0.0,0.0,0.0,0.0,0.0,0.0,0.0,0.0,0.0,0.0,0.0,0.0,0.0,0.0,0.0,0.0,0.0,0.0,0.0,0.0,0.0,0.0,0.0,0.0,0.0,0.0,0.0,0.0,0.0,0.0,0.0,0.0,0.0,0.0,0.0,0.0,0.0,0.0,0.0,0.0,0.0,0.0,0.0,0.0,0.0,0.0,0.0,0.0,0.0,0.0,0.0,0.0,0.0,0.0,0.0,0.0,0.0,0.0,0.0,0.0,0.0,0.0,0.0,0.0,0.0,0.0,0.0,0.0,0.0,0.0,0.0,0.0,0.0,0.0,0.0,0.0,0.0,0.0,0.0,0.0,0.0,0.0,0.0,0.0,0.0,0.0,0.0,0.0,0.0,0.0,0.0,0.0,0.0,0.0,0.0,0.0,0.0,0.0,0.0,0.0,0.0,0.0,0.0,0.0,0.0,0.0,0.0,0.0,0.0,0.0121,0.0,0.0,0.0,0.0,0.0,0.0,0.0,0.0,0.0,0.0,0.0,0.0,0.0,0.0,0.0,0.0,0.0,0.0,0.0,0.0,0.0,0.0,0.0,0.0,0.0,0.0,0.0,0.0,0.0,0.0,0.0,0.0,0.0,0.0,0.0,0.0,0.0,0.0,0.0,0.0,0.0,0.0,0.0,0.0,0.0,0.0,0.0,0.0,0.0,0.0,0.0,0.0,0.0,0.0,0.0,0.0,0.0,0.0,0.0,0.0,0.0,0.0,0.0,0.0,0.0,0.0,0.0,0.0,0.0,0.0,0.0,0.0,0.0,0.0,0.0,0.0,0.0,0.0,0.0,0.0,0.0,0.0,0.0,0.0,0.0,0.0,0.0,0.0,0.0,0.0,0.0,0.0,0.0,0.0,0.0,0.0,0.0,0.0,0.0,0.0,0.0,0.0,0.0,0.0,0.0,0.0,0.0,0.0,0.0,0.0,0.0,0.0,0.1458,0.1446,0.0498,0.0,0.0,0.0,0.0,0.0,0.0,0.0,0.0,0.0,0.0,0.0,0.0,0.0,0.0,0.0,0.0,0.0,0.0,0.0,0.0,0.0,0.0,0.0,0.0,0.0,0.0,0.0,0.0,0.0,0.0,0.0,0.0,0.0,0.0,0.0,0.0,0.0,0.0,0.0,0.0,0.0,0.0,0.0,0.0,0.0,0.0,0.0,0.0,0.0,0.0,0.0,0.0,0.0,0.0,0.0,0.0,0.0,0.0,0.0,0.0,0.0,0.0,0.0,0.0,0.0,0.0,0.0,0.0,0.0,0.0,0.0,0.0,0.0,0.0,0.0,0.0,0.0,0.0,0.0,0.0,0.0,0.0,0.0,0.0,0.0,0.0,0.0,0.0,0.0,0.0,0.0,0.0,0.0,0.0,0.0,0.0,0.0,0.0,0.0,0.0,0.0,0.0,0.0,0.0,0.0,0.0,0.0,0.0,0.0,0.0,0.0,0.0,0.0,-0.1663,-0.058,0.0,0.0,0.0,0.0,0.0,0.0,0.0,0.0,0.0,0.0,0.0,0.0,0.0,0.0,0.0,0.0,0.0,0.0,0.0,0.0,0.0,0.0,0.0,0.0,0.0,0.0,0.0,0.0,0.0,0.0,0.0,0.0,0.0,0.0,0.0,0.0,0.0,0.0,0.0,0.0,0.0,0.0,0.0,0.0,0.0,0.0,0.0,0.0,0.0,0.0,0.0,0.0,0.0,0.0,0.0,0.0,0.0,0.0,0.0,0.0,0.0,0.0,0.0,0.0,0.0,0.0,0.0,0.0,0.0,0.0,0.0,0.0,0.0,0.0,0.0,0.0,0.0,0.0,0.0,0.0,0.0,0.0,0.0,0.0,0.0,0.0,0.0,0.0,0.0,0.0,0.0,0.0,0.0,0.0,0.0,0.0,0.0,0.0,0.0,0.0,0.0,0.0,0.0,0.0,0.0,0.0,0.0,0.0,0.0,0.0,0.0,-0.3518,0.0,-0.3791,-0.159,-0.0224,0.0,0.0,0.0,0.0,0.0,0.0,0.0,0.0,0.0,0.0,0.0,0.0,0.0,0.0,0.0,0.0,0.0,0.0,0.0,0.0,0.0,0.0,0.0,0.0,0.0,0.0,0.0,0.0,0.0,0.0,0.0,0.0,0.0,0.0,0.0,0.0,0.0,0.0,0.0,0.0,0.0,0.0,0.0,0.0,0.0,0.0,0.0,0.0,0.0,0.0,0.0,0.0,0.0,0.0,0.0,0.0,0.0,0.0,0.0,0.0,0.0,0.0,0.0,0.0,0.0,0.0,0.0,0.0,0.0,0.0,0.0,0.0,0.0,0.0,0.0,0.0,0.0,0.0,0.0,0.0,0.0,0.0,0.0,0.0,0.0,0.0,0.0,0.0,0.0,0.0,0.0,0.0,0.0,0.0,0.0,0.0,0.0,0.0,0.0,0.0,0.0,0.0,0.0,0.0,0.0,0.0,0.0,0.0,0.0,0.0,-0.2586,-0.3883,-0.3847,-0.2117,-0.079,0.0,0.0,0.0,0.0,0.0,0.0,0.0,0.0,0.0,0.0,0.0,0.0,0.0,0.0,0.0,0.0,0.0,0.0,0.0,0.0,0.0,0.0,0.0,0.0,0.0,0.0,0.0,0.0,0.0,0.0,0.0,0.0,0.0,0.0,0.0,0.0,0.0,0.0,0.0,0.0,0.0,0.0,0.0,0.0,0.0,0.0,0.0,0.0,0.0,0.0,0.0,0.0,0.0,0.0,0.0,0.0,0.0,0.0,0.0,0.0,0.0,0.0,0.0,0.0,0.0,0.0,0.0,0.0,0.0,0.0,0.0,0.0,0.0,0.0,0.0,0.0,0.0,0.0,0.0,0.0,0.0,0.0,0.0,0.0,0.0,0.0,0.0,0.0,0.0,0.0,0.0,0.0,0.0,0.0,0.0,0.0,0.0,0.0,0.0,0.0,0.0,0.0,0.0,0.0,0.0,0.0,0.0,0.0,0.0,0.0,-0.0924,-0.2206,-0.3779,-0.325,-0.2793,0.0,0.0,0.0,0.0,0.0,0.0,0.0,0.0,0.0,0.0,0.0,0.0,0.0,0.0,0.0,0.0,0.0,0.0,0.0,0.0,0.0,0.0,0.0,0.0,0.0,0.0,0.0,0.0,0.0,0.0,0.0,0.0,0.0,0.0,0.0,0.0,0.0,0.0,0.0,0.0,0.0,0.0,0.0,0.0,0.0,0.0,0.0,0.0,0.0,0.0,0.0,0.0,0.0,0.0,0.0,0.0,0.0,0.0,0.0,0.0,0.0,0.0,0.0,0.0,0.0,0.0,0.0,0.0,0.0,0.0,0.0,0.0,0.0,0.0,0.0,0.0,0.0,0.0,0.0,0.0,0.0,0.0,0.0,0.0,0.0,0.0,0.0,0.0,0.0,0.0,0.0,0.0,0.0,0.0,0.0,0.0,0.0,0.0,0.0,0.0,0.0,0.0,0.0,0.0,0.0,0.0,0.0,0.0,0.0,-0.1269,0.0,-0.1719,0.0,-0.3074,-0.3089,0.0,0.0,0.0,0.0,0.0,0.0,0.0,0.0,0.0,0.0,0.0,0.0,0.0,0.0,0.0,0.0,0.0,0.0,0.0,0.0,0.0,0.0,0.0,0.0,0.0,0.0,0.0,0.0,0.0,0.0,0.0,0.0,0.0,0.0,0.0,0.0,0.0,0.0,0.0,0.0,0.0,0.0,0.0,0.0,0.0,0.0,0.0,0.0,0.0,0.0,0.0,0.0,0.0,0.0,0.0,0.0,0.0,0.0,0.0,0.0,0.0,0.0,0.0,0.0,0.0,0.0,0.0,0.0,0.0,0.0,0.0,0.0,0.0,0.0,0.0,0.0,0.0,0.0,0.0,0.0,0.0,0.0,0.0,0.0,0.0,0.0,0.0,0.0,0.0,0.0,0.0,0.0,0.0,0.0,0.0,0.0,0.0,0.0,0.0,0.0,0.0,0.0,0.0,0.0,0.0,0.0,0.0,0.0,-0.3788,-0.385,-0.382,-0.2663,-0.0228,-0.1445,-0.143,0.0,0.0,0.0,0.0,0.0,0.0,0.0,0.0,0.0,0.0,0.0,0.0,0.0,0.0,0.0,0.0,0.0,0.0,0.0,0.0,0.0,0.0,0.0,0.0,0.0,0.0,0.0,0.0,0.0,0.0,0.0,0.0,0.0,0.0,0.0,0.0,0.0,0.0,0.0,0.0,0.0,0.0,0.0,0.0,0.0,0.0,0.0,0.0,0.0,0.0,0.0,0.0,0.0,0.0,0.0,0.0,0.0,0.0,0.0,0.0,0.0,0.0,0.0,0.0,0.0,0.0,0.0,0.0,0.0,0.0,0.0,0.0,0.0,0.0,0.0,0.0,0.0,0.0,0.0,0.0,0.0,0.0,0.0,0.0,0.0,0.0,0.0,0.0,0.0,0.0,0.0,0.0,0.0,0.0,0.0,0.0,0.0,0.0,0.0,0.0,0.0,0.0,0.0,0.0,0.0,0.0,0.0,0.0,0.0,-0.3858,-0.3913,-0.3518,-0.2713,-0.2247,-0.1375,0.0,0.0,0.0,0.0,0.0,0.0,0.0,0.0,0.0,0.0,0.0,0.0,0.0,0.0,0.0,0.0,0.0,0.0,0.0,0.0,0.0,0.0,0.0,0.0,0.0,0.0,0.0,0.0,0.0,0.0,0.0,0.0,0.0,0.0,0.0,0.0,0.0,0.0,0.0,0.0,0.0,0.0,0.0,0.0,0.0,0.0,0.0,0.0,0.0,0.0,0.0,0.0,0.0,0.0,0.0,0.0,0.0,0.0,0.0,0.0,0.0,0.0,0.0,0.0,0.0,0.0,0.0,0.0,0.0,0.0,0.0,0.0,0.0,0.0,0.0,0.0,0.0,0.0,0.0,0.0,0.0,0.0,0.0,0.0,0.0,0.0,0.0,0.0,0.0,0.0,0.0,0.0,0.0,0.0,0.0,0.0,0.0,0.0,0.0,0.0,0.0,0.0,0.0,0.0,0.0,0.0,0.0,0.0,0.0,-0.3876,-0.3954,-0.3967,-0.3938,-0.3171,-0.2355,-0.1525,0.0,0.0,0.0,0.0,0.0,0.0,0.0,0.0,0.0,0.0,0.0,0.0,0.0,0.0,0.0,0.0,0.0,0.0,0.0,0.0,0.0,0.0,0.0,0.0,0.0,0.0,0.0,0.0,0.0,0.0,0.0,0.0,0.0,0.0,0.0,0.0,0.0,0.0,0.0,0.0,0.0,0.0,0.0,0.0,0.0,0.0,0.0,0.0,0.0,0.0,0.0,0.0,0.0,0.0,0.0,0.0,0.0,0.0,0.0,0.0,0.0,0.0,0.0,0.0,0.0,0.0,0.0,0.0,0.0,0.0,0.0,0.0,0.0,0.0,0.0,0.0,0.0,0.0,0.0,0.0,0.0,0.0,0.0,0.0,0.0,0.0,0.0,0.0,0.0,0.0,0.0,0.0,0.0,0.0,0.0,0.0,0.0,0.0,0.0,0.0,0.0,0.0,0.0,0.0,0.0,0.0,0.0,0.0,-0.3996,-0.4148,-0.4201,-0.4095,-0.4065,-0.4058,0.0,0.0,0.0,0.0,0.0,0.0,0.0,0.0,0.0,0.0,0.0,0.0,0.0,0.0,0.0,0.0,0.0,0.0,0.0,0.0,0.0,0.0,0.0,0.0,0.0,0.0,0.0,0.0,0.0,0.0,0.0,0.0,0.0,0.0,0.0,0.0,0.0,0.0,0.0,0.0,0.0,0.0,0.0,0.0,0.0,0.0,0.0,0.0,0.0,0.0,0.0,0.0,0.0,0.0,0.0,0.0,0.0,0.0,0.0,0.0,0.0,0.0,0.0,0.0,0.0,0.0,0.0,0.0,0.0,0.0,0.0,0.0,0.0,0.0,0.0,0.0,0.0,0.0,0.0,0.0,0.0,0.0,0.0,0.0,0.0,0.0,0.0,0.0,0.0,0.0,0.0,0.0,0.0,0.0,0.0,0.0,0.0,0.0,0.0,0.0,0.0,0.0,0.0,0.0,0.0,0.0,0.0,0.0,0.0,-0.4945,-0.5513,-0.5574,-0.4984,-0.4952,-0.4669,0.0,0.0,0.0,0.0,0.0,0.0,0.0,0.0,0.0,0.0,0.0,0.0,0.0,0.0,0.0,0.0,0.0,0.0,0.0,0.0,0.0,0.0,0.0,0.0,0.0,0.0,0.0,0.0,0.0,0.0,0.0,0.0,0.0,0.0,0.0,0.0,0.0,0.0,0.0,0.0,0.0,0.0,0.0,0.0,0.0,0.0,0.0,0.0,0.0,0.0,0.0,0.0,0.0,0.0,0.0,0.0,0.0,0.0,0.0,0.0,0.0,0.0,0.0,0.0,0.0,0.0,0.0,0.0,0.0,0.0,0.0,0.0,0.0,0.0,0.0,0.0,0.0,0.0,0.0,0.0,0.0,0.0,0.0,0.0,0.0,0.0,0.0,0.0,0.0,0.0,0.0,0.0,0.0,0.0,0.0,0.0,0.0,0.0,0.0,0.0,0.0,0.0,0.0,0.0,0.0,0.0,0.0,0.0,-0.6622,-0.586,-0.6949,-0.7137,-0.6373,-0.5696,-0.5129,0.0,0.0,0.0,0.0,0.0,0.0,0.0,0.0,0.0,0.0,0.0,0.0,0.0,0.0,0.0,0.0,0.0,0.0,0.0,0.0,0.0,0.0,0.0,0.0,0.0,0.0,0.0,0.0,0.0,0.0,0.0,0.0,0.0,0.0,0.0,0.0,0.0,0.0,0.0,0.0,0.0,0.0,0.0,0.0,0.0,0.0,0.0,0.0,0.0,0.0,0.0,0.0,0.0,0.0,0.0,0.0,0.0,0.0,0.0,0.0,0.0,0.0,0.0,0.0,0.0,0.0,0.0,0.0,0.0,0.0,0.0,0.0,0.0,0.0,0.0,0.0,0.0,0.0,0.0,0.0,0.0,0.0,0.0,0.0,0.0,0.0,0.0,0.0,0.0,0.0,0.0,0.0,0.0,0.0,0.0,0.0,0.0,0.0,0.0,0.0,0.0,0.0,0.0,0.0,0.0,0.0,0.0,0.0,-0.7184,-0.6719,-0.8129,-0.8592,-0.7899,-0.6441,-0.5535,0.0,0.0,0.0,0.0,0.0,0.0,0.0,0.0,0.0,0.0,0.0,0.0,0.0,0.0,0.0,0.0,0.0,0.0,0.0,0.0,0.0,0.0,0.0,0.0,0.0,0.0,0.0,0.0,0.0,0.0,0.0,0.0,0.0,0.0,0.0,0.0,0.0,0.0,0.0,0.0,0.0,0.0,0.0,0.0,0.0,0.0,0.0,0.0,0.0,0.0,0.0,0.0,0.0,0.0,0.0,0.0,0.0,0.0,0.0,0.0,0.0,0.0,0.0,0.0,0.0,0.0,0.0,0.0,0.0,0.0,0.0,0.0,0.0,0.0,0.0,0.0,0.0,0.0,0.0,0.0,0.0,0.0,0.0,0.0,0.0,0.0,0.0,0.0,0.0,0.0,0.0,0.0,0.0,0.0,0.0,0.0,0.0,0.0,0.0,0.0,0.0,0.0,0.0,0.0,0.0,0.0,0.0,0.0,-0.722,-0.6753,-0.8134,-0.8829,-0.866,-0.7771,-0.6705,0.0,0.0,0.0,0.0,0.0,0.0,0.0,0.0,0.0,0.0,0.0,0.0,0.0,0.0,0.0,0.0,0.0,0.0,0.0,0.0,0.0,0.0,0.0,0.0,0.0,0.0,0.0,0.0,0.0,0.0,0.0,0.0,0.0,0.0,0.0,0.0,0.0,0.0,0.0,0.0,0.0,0.0,0.0,0.0,0.0,0.0,0.0,0.0,0.0,0.0,0.0,0.0,0.0,0.0,0.0,0.0,0.0,0.0,0.0,0.0,0.0,0.0,0.0,0.0,0.0,0.0,0.0,0.0,0.0,0.0,0.0,0.0,0.0,0.0,0.0,0.0,0.0,0.0,0.0,0.0,0.0,0.0,0.0,0.0,0.0,0.0,0.0,0.0,0.0,0.0,0.0,0.0,0.0,0.0,0.0,0.0,0.0,0.0,0.0,0.0,0.0,0.0,0.0,0.0,0.0,0.0,0.0,0.0,-0.72,-0.729,-0.8336,-0.8919,-0.8885,-0.8519,-0.7568,0.0,0.0,0.0,0.0,0.0,0.0,0.0,0.0,0.0,0.0,0.0,0.0,0.0,0.0,0.0,0.0,0.0,0.0,0.0,0.0,0.0,0.0,0.0,0.0,0.0,0.0,0.0,0.0,0.0,0.0,0.0,0.0,0.0,0.0,0.0,0.0,0.0,0.0,0.0,0.0,0.0,0.0,0.0,0.0,0.0,0.0,0.0,0.0,0.0,0.0,0.0,0.0,0.0,0.0,0.0,0.0,0.0,0.0,0.0,0.0,0.0,0.0,0.0,0.0,0.0,0.0,0.0,0.0,0.0,0.0,0.0,0.0,0.0,0.0,0.0,0.0,0.0,0.0,0.0,0.0,0.0,0.0,0.0,0.0,0.0,0.0,0.0,0.0,0.0,0.0,0.0,0.0,0.0,0.0,0.0,0.0,0.0,0.0,0.0,0.0,0.0,0.0,0.0,0.0,0.0,0.0,0.0,-0.6729,-0.7299,-0.7905,-0.8572,-0.8919,-0.8919,-0.8919,-0.8042,-0.6261,0.0,0.0,0.0,0.0,0.0,0.0,0.0,0.0,0.0,0.0,0.0,0.0,0.0,0.0,0.0,0.0,0.0,0.0,0.0,0.0,0.0,0.0,0.0,0.0,0.0,0.0,0.0,0.0,0.0,0.0,0.0,0.0,0.0,0.0,0.0,0.0,0.0,0.0,0.0,0.0,0.0,0.0,0.0,0.0,0.0,0.0,0.0,0.0,0.0,0.0,0.0,0.0,0.0,0.0,0.0,0.0,0.0,0.0,0.0,0.0,0.0,0.0,0.0,0.0,0.0,0.0,0.0,0.0,0.0,0.0,0.0,0.0,0.0,0.0,0.0,0.0,0.0,0.0,0.0,0.0,0.0,0.0,0.0,0.0,0.0,0.0,0.0,0.0,0.0,0.0,0.0,0.0,0.0,0.0,0.0,0.0,0.0,0.0,0.0,0.0,0.0,0.0,0.0,0.0,0.0,-0.6296,-0.7337,-0.7914,-0.7991,-0.8646,-0.8975,-0.8987,-0.8919,-0.7759,-0.5455,0.0,0.0,0.0,0.0,0.0,0.0,0.0,0.0,0.0,0.0,0.0,0.0,0.0,0.0,0.0,0.0,0.0,0.0,0.0,0.0,0.0,0.0,0.0,0.0,0.0,0.0,0.0,0.0,0.0,0.0,0.0,0.0,0.0,0.0,0.0,0.0,0.0,0.0,0.0,0.0,-0.0789,0.0,0.0,0.0,0.0,0.0,0.0,0.0,0.0,0.0,0.0,0.0,0.0,0.0,0.0,0.0,0.0,0.0,0.0,0.0,0.0,0.0,0.0,0.0,0.0,0.0,0.0,0.0,0.0,0.0,0.0,0.0,0.0,0.0,0.0,0.0,0.0,0.0,0.0,0.0,0.0,0.0,0.0,0.0,0.0,0.0,0.0,0.0,0.0,0.0,0.0,0.0,0.0,0.0,0.0,0.0,0.0,0.0,0.0,0.0,0.0,0.0,0.0,0.0,0.0,-0.6839,-0.7716,-0.8358,-0.8664,-0.8927,-0.9034,-0.8997,-0.8557,-0.7082,0.0,0.0,0.0,0.0,0.0,0.0,0.0,0.0,0.0,0.0,0.0,0.0,0.0,0.0,0.0,0.0,0.0,0.0,0.0,0.0,0.0,0.0,0.0,0.0,0.0,0.0,0.0,0.0,0.0,0.0,0.0,0.0,0.0,0.0,0.0,0.0,0.0,0.0,0.0,0.0,0.0,-0.094,-0.3536,0.0,0.0,0.0,0.0,0.0,0.0,-0.0884,-0.0243,0.0,0.0,0.0,0.0,0.0,0.0,0.0,0.0,0.0,0.0,0.0,0.0,0.0,0.0,0.0,0.0,0.0,0.0,0.0,0.0,0.0,0.0,0.0,0.0,0.0,0.0,0.0,0.0,0.0,0.0,0.0,0.0,0.0,0.0,0.0,0.0,0.0,0.0,0.0,0.0,0.0,0.0,0.0,0.0,0.0,0.0,0.0,0.0,0.0,0.0,0.0,0.0,0.0,0.0,0.0,-0.7236,-0.8279,-0.8977,-0.9304,-0.9347,-0.9256,-0.9027,-0.8379,-0.6673,0.0,0.0,0.0,0.0,0.0,0.0,0.0,0.0,0.0,0.0,0.0,0.0,0.0,0.0,0.0,0.0,0.0,0.0,0.0,0.0,0.0,0.0,0.0,0.0,0.0,0.0,0.0,0.0,0.0,0.0,0.0,0.0,0.0,0.0,0.0,0.0,0.0,0.0,0.0,0.0,0.0,-0.1533,-0.3578,-0.2121,0.0,0.0,0.0,0.0,-0.3909,-0.213,0.0,0.0,0.0,0.0,0.0,0.0,0.0,0.0,0.0,0.0,0.0,0.0,0.0,0.0,0.0,0.0,0.0,0.0,0.0,0.0,0.0,0.0,0.0,0.0,0.0,0.0,0.0,0.0,0.0,0.0,0.0,0.0,0.0,0.0,0.0,0.0,0.0,0.0,0.0,0.0,0.0,0.0,0.0,0.0,0.0,0.0,0.0,0.0,0.0,0.0,0.0,0.0,0.0,0.0,0.0,0.0,-0.729,-0.9397,-1.015,-0.9466,-0.9951,-0.9881,-0.9116,-0.8884,-0.7173,0.0,0.0,0.0,0.0,0.0,0.0,0.0,0.0,0.0,0.0,0.0,0.0,0.0,0.0,0.0,0.0,0.0,0.0,0.0,0.0,0.0,0.0,0.0,0.0,0.0,0.0,0.0,0.0,0.0,0.0,0.0,0.0,0.0,0.0,0.0,0.0,0.0,0.0,0.0,0.0,0.0,-0.3545,-0.3864,-0.3631,-0.3458,0.0,0.0,-0.3909,-0.3913,-0.3641,0.0,0.0,0.0,0.0,0.0,0.0,0.0,0.0,0.0,0.0,0.0,0.0,0.0,0.0,0.0,0.0,0.0,0.0,0.0,0.0,0.0,0.0,0.0,0.0,0.0,0.0,0.0,0.0,0.0,0.0,0.0,0.0,0.0,0.0,0.0,0.0,0.0,0.0,0.0,0.0,0.0,0.0,0.0,0.0,0.0,0.0,0.0,0.0,0.0,0.0,0.0,0.0,0.0,0.0,0.0,-0.7295,-0.7338,-0.9641,-1.0622,-1.0154,-1.0346,-1.0238,-0.9799,-0.8654,-0.6694,0.0,0.0,0.0,0.0,0.0,0.0,0.0,0.0,0.0,0.0,0.0,0.0,0.0,0.0,0.0,0.0,0.0,0.0,0.0,0.0,0.0,0.0,0.0,0.0,0.0,0.0,0.0,0.0,0.0,0.0,0.0,0.0,0.0,0.0,0.0,0.0,0.0,0.0,0.0,0.0,0.0,0.0,-0.4079,-0.4042,0.0,0.0,0.0,-0.4755,-0.4017,0.0,0.0,0.0,0.0,0.0,0.0,0.0,0.0,0.0,0.0,0.0,0.0,0.0,0.0,0.0,0.0,0.0,0.0,0.0,0.0,0.0,0.0,0.0,0.0,0.0,0.0,0.0,0.0,0.0,0.0,0.0,0.0,0.0,0.0,0.0,0.0,0.0,0.0,0.0,0.0,0.0,0.0,0.0,0.0,0.0,0.0,0.0,0.0,0.0,0.0,0.0,0.0,0.0,0.0,0.0,0.0,0.0,-0.7626,-0.9984,-1.1137,-1.1042,-1.1064,-1.0851,-1.0318,-0.8884,0.0,0.0,0.0,0.0,0.0,0.0,0.0,0.0,0.0,0.0,0.0,0.0,0.0,0.0,0.0,0.0,0.0,0.0,0.0,0.0,0.0,0.0,0.0,0.0,0.0,0.0,0.0,0.0,0.0,0.0,0.0,0.0,0.0,0.0,0.0,0.0,0.0,0.0,0.0,0.0,0.0,0.0,-0.4514,-0.5264,-0.5279,-0.5137,0.0,0.0,-0.5998,-0.4629,-0.4118,-0.3913,0.0,0.0,0.0,0.0,0.0,0.0,0.0,0.0,0.0,0.0,0.0,0.0,0.0,0.0,0.0,0.0,0.0,0.0,0.0,0.0,0.0,0.0,0.0,0.0,0.0,0.0,0.0,0.0,0.0,0.0,0.0,0.0,0.0,0.0,0.0,0.0,0.0,0.0,0.0,0.0,0.0,0.0,0.0,0.0,0.0,0.0,0.0,0.0,0.0,0.0,0.0,0.0,0.0,0.0,0.0,-0.8458,-1.0792,-1.1988,-1.1944,-1.2458,-1.1996,-1.0437,-1.0135,-0.8421,0.0,0.0,0.0,0.0,0.0,0.0,0.0,0.0,0.0,0.0,0.0,0.0,0.0,0.0,0.0,0.0,0.0,0.0,0.0,0.0,0.0,0.0,0.0,0.0,0.0,0.0,0.0,0.0,0.0,0.0,0.0,0.0,0.0,0.0,0.0,0.0,0.0,0.0,0.0,0.0,0.0,-0.5333,-0.8188,-0.8368,-0.8059,0.0,0.0,-0.7467,-0.6073,-0.4767,-0.3912,-0.398,0.0,0.0,0.0,0.0,0.0,0.0,0.0,0.0,0.0,0.0,0.0,0.0,0.0,0.0,0.0,0.0,0.0,0.0,0.0,0.0,0.0,0.0,0.0,0.0,0.0,0.0,0.0,0.0,0.0,0.0,0.0,0.0,0.0,0.0,0.0,0.0,0.0,0.0,0.0,0.0,0.0,0.0,0.0,0.0,0.0,0.0,0.0,0.0,0.0,0.0,0.0,0.0,0.0,-0.8934,-0.9257,-1.1622,-1.2803,-1.2742,-1.2936,-1.2681,-1.1949,-1.0349,-0.8371,0.0,0.0,0.0,0.0,0.0,0.0,0.0,0.0,0.0,0.0,0.0,0.0,0.0,0.0,0.0,0.0,0.0,0.0,0.0,0.0,0.0,0.0,0.0,0.0,0.0,0.0,0.0,0.0,0.0,0.0,0.0,0.0,0.0,0.0,0.0,0.0,0.0,0.0,0.0,0.0,0.0,-0.5506,-0.8468,-0.8748,0.0,0.0,-0.8302,-0.817,-0.753,-0.6162,-0.4937,-0.4195,-0.3967,0.0,0.0,0.0,0.0,0.0,0.0,0.0,0.0,0.0,0.0,0.0,0.0,0.0,0.0,0.0,0.0,0.0,0.0,0.0,0.0,0.0,0.0,0.0,0.0,0.0,0.0,0.0,0.0,0.0,0.0,0.0,0.0,0.0,0.0,0.0,0.0,0.0,0.0,0.0,0.0,0.0,0.0,0.0,0.0,0.0,0.0,0.0,0.0,0.0,0.0,0.0,0.0,-0.9808,-1.0066,-1.2196,-1.3377,-1.3596,-1.3513,-1.3287,-1.2872,-1.0866,-0.897,0.0,0.0,0.0,0.0,0.0,0.0,0.0,0.0,0.0,0.0,0.0,0.0,0.0,0.0,0.0,0.0,0.0,0.0,0.0,0.0,0.0,0.0,0.0,0.0,0.0,0.0,0.0,0.0,0.0,0.0,0.0,0.0,0.0,0.0,0.0,0.0,0.0,0.0,0.0,0.0,0.0,-0.5565,-0.8473,-0.8818,-0.8706,-0.852,-0.8583,-0.8648,-0.8503,-0.7517,-0.6286,-0.4804,0.0,0.0,0.0,0.0,0.0,0.0,0.0,0.0,0.0,0.0,0.0,0.0,0.0,0.0,0.0,0.0,0.0,0.0,0.0,0.0,0.0,0.0,0.0,0.0,0.0,0.0,0.0,-0.7282,0.0,0.0,-0.7279,0.0,0.0,0.0,0.0,0.0,0.0,0.0,0.0,0.0,0.0,0.0,0.0,0.0,0.0,0.0,0.0,0.0,0.0,0.0,0.0,0.0,0.0,-1.0098,-1.0893,-1.2522,-1.3704,-1.4422,-1.4338,-1.3883,-1.304,-1.1978,-1.0627,-0.8862,0.0,0.0,0.0,0.0,0.0,0.0,0.0,0.0,0.0,0.0,0.0,0.0,0.0,0.0,0.0,0.0,0.0,0.0,0.0,0.0,0.0,0.0,0.0,0.0,0.0,0.0,0.0,0.0,0.0,0.0,0.0,0.0,0.0,0.0,0.0,0.0,0.0,0.0,0.0,-0.633,-0.5589,-0.849,-0.8897,-0.8897,-0.8891,-0.888,-0.8886,-0.8875,-0.867,-0.7911,0.0,0.0,0.0,0.0,0.0,0.0,0.0,0.0,0.0,0.0,0.0,0.0,0.0,0.0,0.0,0.0,0.0,0.0,0.0,0.0,0.0,0.0,0.0,0.0,0.0,0.0,0.0,-1.2267,-1.1282,0.0,0.0,0.0,0.0,0.0,0.0,0.0,0.0,0.0,0.0,0.0,-1.5294,-1.5551,0.0,0.0,0.0,0.0,0.0,0.0,0.0,0.0,0.0,0.0,0.0,0.0,-1.0898,-1.1764,-1.3807,-1.4756,-1.4518,-1.4971,-1.48,-1.3871,-1.287,-1.1257,-0.8953,0.0,0.0,0.0,0.0,0.0,0.0,0.0,0.0,0.0,0.0,0.0,0.0,0.0,0.0,0.0,0.0,0.0,0.0,0.0,0.0,0.0,0.0,0.0,0.0,0.0,0.0,0.0,0.0,0.0,0.0,0.0,0.0,0.0,0.0,0.0,0.0,0.0,-0.6694,-0.8637,-0.8044,-0.7778,-0.8773,-0.8919,-0.8919,0.0,0.0,0.0,0.0,0.0,0.0,0.0,0.0,0.0,0.0,0.0,0.0,0.0,0.0,-0.4857,-0.4426,-0.2258,-0.0854,-0.2215,0.0,0.0,0.0,0.0,0.0,0.0,0.0,0.0,0.0,0.0,0.0,0.0,0.0,0.0,-1.5288,0.0,-1.371,0.0,0.0,0.0,0.0,0.0,0.0,0.0,0.0,-1.8078,-1.8456,-1.8155,-1.8155,-1.7741,0.0,-1.6947,-1.5729,0.0,0.0,0.0,0.0,0.0,0.0,0.0,0.0,-1.2127,-1.2971,-1.5025,-1.5729,-1.497,-1.5423,-1.5276,-1.4355,-1.3068,-1.13,-0.903,-0.7324,-0.6173,0.0,0.0,0.0,0.0,0.0,0.0,0.0,0.0,0.0,0.0,0.0,0.0,0.0,0.0,0.0,0.0,0.0,0.0,0.0,0.0,0.0,0.0,0.0,0.0,0.0,0.0,0.0,0.0,0.0,0.0,0.0,0.0,0.0,-0.4635,-0.593,-0.7438,-0.8727,-0.8919,-0.8919,-0.8919,0.0,0.0,0.0,0.0,0.0,0.0,0.0,-0.8592,-0.7607,-0.8223,-0.8737,-0.8463,-0.7078,-0.6018,-0.5954,0.0,0.0,-0.4863,-0.2285,-0.1075,-0.2904,-0.3925,-0.4316,-0.3769,-0.409,-0.4131,0.0,0.0,0.0,0.0,0.0,0.0,0.0,0.0,-1.8262,-1.7851,0.0,-1.6261,0.0,0.0,0.0,0.0,0.0,-1.7436,0.0,0.0,-2.0994,-2.1327,-2.0548,-2.0503,-2.0107,-1.9407,-1.936,-1.8893,-1.7894,-1.4205,0.0,0.0,0.0,0.0,0.0,0.0,-1.3752,-1.4536,-1.6101,-1.6548,-1.5766,-1.5753,-1.5312,-1.4398,-1.2621,-1.0935,-0.93,-0.842,-0.7282,-0.5887,-0.4793,0.0,0.0,0.0,0.0,0.0,0.0,0.0,0.0,0.0,0.0,0.0,0.0,0.0,0.0,0.0,0.0,0.0,0.0,0.0,0.0,-0.0052,0.0,0.0,0.0,0.0,0.0,0.0,0.0,0.0,0.0,0.0,-0.4685,-0.623,-0.7848,-0.8931,0.0,0.0,0.0,0.0,-0.8919,-0.8919,-1.0138,-1.0612,-0.9304,-0.8982,-0.8908,-0.8925,0.0,0.0,-0.8636,-0.8755,-0.8812,-0.8863,-0.8835,-0.7977,-0.5156,-0.4469,-0.4363,-0.4555,-0.4637,-0.4841,-0.5382,-0.5113,-0.4701,-2.5841,0.0,0.0,0.0,0.0,-2.2795,-2.2336,-2.1593,-2.1612,-2.1465,-2.1153,-1.974,0.0,0.0,0.0,0.0,0.0,0.0,-2.028,-2.1096,-2.1574,-2.1666,-2.1418,-2.1418,-2.1317,-2.1078,-2.1078,-2.0344,-1.8948,-1.7791,-1.6249,-1.4328,0.0,0.0,0.0,0.0,-1.5129,-1.5435,-1.6933,-1.7355,-1.6578,-1.656,-1.5817,-1.4305,-1.3196,-1.2329,-1.1747,-0.9902,-0.8689,-0.8193,-0.5774,0.0,0.0,0.0,0.0,0.0,0.0,0.0,0.0,0.0,0.0,0.0,0.0,0.0,0.0,0.0,0.0,0.0,0.0,0.0,-0.3011,-0.1287,0.0,0.0,0.0,0.0,0.0,0.0,0.0,0.0,0.0,0.0,-0.4784,-0.6817,-0.9365,0.0,0.0,-0.8919,-0.8919,-0.8919,-0.8919,-0.8919,-1.0138,0.0,-1.2,-1.0303,-0.9145,-0.985,-0.9382,-0.8869,-0.8824,-0.8875,-0.8919,-0.8919,-0.8919,-0.8597,-0.7752,-0.5869,-0.5,-0.5781,-0.6082,-0.6132,-0.6314,-0.6453,-0.6466,-2.9237,-2.6998,-2.6374,-2.5915,-2.564,-2.5621,-2.5162,-2.4419,-2.4437,-2.4419,-2.4345,-2.3024,-2.2281,-2.1924,-2.1116,0.0,0.0,0.0,-2.2244,-2.2767,-2.2749,-2.2749,-2.2749,-2.274,-2.2584,-2.2281,-2.2263,-2.1592,-2.0307,-2.0288,-1.9572,-1.8067,0.0,0.0,-1.5478,-1.6255,-1.6646,-1.6702,-1.7913,-1.8181,-1.7385,-1.6762,-1.5883,-1.4777,-1.3648,-1.2843,-1.2395,-1.0749,-0.9521,-0.8827,-0.6916,-0.5348,0.0,0.0,0.0,0.0,0.0,0.0,0.0,0.0,0.0,0.0,0.0,0.0,0.0,0.0,0.0,0.0,-0.088,-0.2297,-0.4314,-0.2857,0.0,0.0,0.0,0.0,0.0,0.0,0.0,-0.8812,-0.8366,-0.7566,-0.6453,-0.8983,-1.1601,-1.3264,-1.1331,-0.9755,-0.9778,0.0,-1.0686,-1.0676,-1.1464,-1.2389,-1.3235,-1.1889,-1.0883,-1.1492,-1.0585,-0.9541,-0.8987,-0.8919,-0.8919,-0.8919,-0.8919,-0.8919,-0.8919,-0.7401,-0.6241,-0.6656,-0.718,-0.7438,-0.7078,-0.7213,-0.7416,-3.1751,-3.1549,-3.0087,-2.895,-2.811,-2.8092,-2.7585,-2.6796,-2.6785,-2.6749,-2.6649,-2.5852,-2.5081,-2.4337,-2.3556,0.0,-2.4392,-2.4373,-2.4383,-2.4392,-2.4392,-2.4401,-2.4373,-2.4318,-2.3896,-2.3208,-2.3134,-2.2685,-2.1904,-2.1904,-2.1849,-2.1702,-1.8794,-1.7257,-1.7238,-1.7869,-1.8207,-1.8207,-1.8911,-1.8893,-1.8108,-1.659,-1.572,-1.5607,-1.4053,-1.282,-1.1947,-1.1142,-0.9985,-0.8513,-0.8115,-0.7001,-0.5009,0.0,0.0,0.0,0.0,0.0,0.0,0.0,0.0,0.0,0.0,0.0,0.0,0.0,0.0,0.0,-0.2429,0.0,-0.4787,-0.4854,0.0,0.0,0.0,-0.4841,-0.4841,-0.7253,-0.8919,-0.8919,0.0,0.0,-0.9236,-1.2065,-1.3991,-1.3713,-1.2317,-1.1286,-1.1286,-1.247,-1.3438,-1.3284,-1.3515,-1.3589,-1.3487,-1.3252,-1.3125,-1.3159,-1.222,-1.0815,-0.9473,-0.8953,-0.8936,-0.8919,-0.8919,-0.8919,-0.8919,-0.8761,-0.8485,-0.715,-0.7938,-0.8586,-0.7776,-0.7612,-0.7865,-3.4761,-3.4105,-3.3738,-3.2412,-3.0558,-3.0552,-2.9751,-2.8455,-2.8436,-2.8099,-2.7457,-2.6649,-2.6209,-2.5978,-2.5191,-2.5273,-2.6033,-2.6015,-2.6043,-2.6033,-2.6025,-2.6033,-2.6007,-2.5411,-2.5007,-2.4805,-2.4208,-2.3483,-2.2749,-2.2712,-2.2391,-2.1776,-2.1005,-2.0299,-1.9641,-1.9216,-1.9003,-1.8996,-1.9205,-1.8904,-1.8108,-1.7135,-1.6308,-1.5704,-1.4684,-1.38,-1.2971,-1.2134,-1.1201,-1.0141,-0.8897,-0.816,-0.7989,-0.5716,0.0,0.0,0.0,0.0,0.0,0.0,0.0,0.0,0.0,-0.0965,-0.326,0.0,-0.3221,0.0,-0.3978,-0.5271,-0.7612,-0.7841,0.0,0.0,-0.7841,-0.7846,-0.7863,-0.8468,-0.8919,-0.8919,-0.8919,-0.9772,-1.2034,-1.3258,-1.4019,-1.4225,-1.3549,-1.3016,-1.3034,-1.3401,-1.379,-1.3788,-1.3941,-1.3988,-1.3778,-1.3561,-1.3405,-1.3396,-1.3074,-1.2346,-1.0839,-0.9636,-0.8919,-0.8919,-0.8919,-0.8919,-0.8919,-0.8919,-0.8812,-0.8451,-0.8671,-0.8852,-0.8581,-0.8563,-0.8653,-3.6009,-3.5536,-3.5169,-3.4234,-3.2963,-3.2247,-3.1237,-3.0081,-3.0051,-2.9806,-2.9365,-2.8539,-2.8198,-2.8143,-2.7365,-2.7255,-2.7629,-2.7291,-2.7145,-2.7126,-2.6749,-2.6602,-2.6583,-2.6135,-2.5925,-2.5915,-2.5136,-2.4511,-2.4061,-2.3712,-2.3309,-2.2877,-2.2501,-2.2079,-2.1593,-2.0419,-1.9656,-1.9297,-1.9279,-1.9095,-1.861,-1.7502,-1.6688,-1.6218,-1.5117,-1.4126,-1.334,-1.2835,-1.2185,-1.1302,-1.0064,-0.9327,-0.9237,-0.7653,-0.608,0.0,0.0,0.0,0.0,0.0,0.0,0.0,0.0,0.0,0.0,0.0,-0.6469,-0.6448,-0.6448,-0.7134,-0.8744,-0.8919,-0.8919,-0.8919,-0.8919,-0.8919,-0.8919,-1.0135,-1.1013,-1.1119,-1.1125,-1.174,-1.3409,-1.39,-1.417,-1.4458,-1.4206,-1.3977,-1.3906,-1.4037,-1.4157,-1.4181,-1.4262,-1.4242,-1.397,-1.3686,-1.3478,-1.3487,-1.3446,-1.3091,-1.2211,-1.0307,-0.8919,-0.8919,-0.8919,-0.8919,-0.8919,-0.8919,-0.8908,-0.8925,-0.8952,-0.8952,-0.893,-0.8942,-0.8998,-3.6523,-3.6376,-3.5642,-3.5261,-3.5059,-3.3665,-3.2504,-3.1562,-3.1549,-3.1488,-3.136,-3.065,-3.0356,-3.0301,-2.961,-2.9244,-2.9115,-2.8411,-2.8055,-2.7915,-2.7236,-2.6895,-2.6906,-2.6814,-2.6759,-2.6704,-2.5944,-2.5485,-2.5374,-2.4695,-2.4309,-2.419,-2.3501,-2.3098,-2.2951,-2.1538,-2.0327,-1.9315,-1.9279,-1.9279,-1.9279,-1.7741,-1.6908,-1.6835,-1.535,-1.4114,-1.3359,-1.3301,-1.2908,-1.2049,-1.127,-1.0467,-0.9573,-0.9492,-0.8241,0.0,-0.7568,0.0,0.0,0.0,0.0,0.0,0.0,0.0,0.0,-0.7456,-0.8919,-0.8919,-0.8919,-0.9049,-0.9433,-0.9467,-0.9473,-0.949,-0.9473,-0.9496,-0.9592,-1.1961,-1.3723,-1.3937,-1.3984,-1.3984,-1.398,-1.4195,-1.4368,-1.4488,-1.447,-1.4381,-1.43,-1.4356,-1.4458,-1.4488,-1.4488,-1.4381,-1.4105,-1.3848,-1.369,-1.365,-1.3543,-1.3421,-1.3353,-1.1342,-0.9652,-0.9594,-0.9327,-0.9026,-0.9134,-0.9083,-0.8964,-0.9162,-0.9197,-0.9107,-0.8968,-0.8969,-0.9046,-3.7881,-3.7272,-3.7088,-3.6666,-3.6046,-3.5734,-3.4376,-3.2362,-3.2375,-3.2008,-3.1397,-3.125,-3.1164,-3.1176,-3.1029,-3.0577,-2.9971,-2.9806,-2.9402,-2.8767,-2.862,-2.8565,-2.851,-2.7879,-2.7567,-2.7541,-2.6759,-2.6025,-2.5384,-2.5246,-2.4842,-2.4218,-2.4043,-2.3657,-2.3024,0.0,0.0,0.0,-1.9279,-1.9279,-1.9242,-1.7722,-1.6908,-1.6872,-1.535,0.0,-1.3359,-1.3311,-1.2921,-1.2135,-1.1867,0.0,0.0,0.0,0.0,0.0,0.0,0.0,0.0,0.0,0.0,0.0,-0.8687,-0.8675,-0.8486,-0.8753,-0.8919,-0.8919,-0.8919,-0.9907,-1.232,-1.2549,-1.2549,-1.2549,-1.2532,-1.2549,-1.2599,-1.3344,-1.397,-1.4344,-1.4387,-1.4381,-1.4374,-1.4429,-1.4464,-1.4488,-1.4488,-1.45,-1.4441,-1.4464,-1.4488,-1.4488,-1.4488,-1.4464,-1.4344,-1.4187,-1.4053,-1.3987,-1.3766,-1.3581,-1.3512,-1.3343,-1.2917,-1.2777,-1.0889,-0.9591,-1.054,-0.9779,-0.9287,-0.9841,-0.9678,-0.9325,-0.9054,-0.9043,-0.9106,-3.8469,0.0,-3.7676,-3.7272,0.0,-3.6468,-3.5587,-3.4412,-3.3959,-3.3316,-3.2559,-3.2155,-3.199,-3.1971,-3.1568,-3.1164,-3.0809,-3.0779,-3.0356,-2.961,-2.9592,-2.939,-2.8987,-2.8594,-2.8374,-2.8345,-2.7585,-2.6979,-2.6568,-2.5797,-2.5191,-2.4787,-2.4392,-2.4006,-2.3602,-2.3199,-2.196,-1.9913,-1.951,-1.9279,-1.9242,-1.8108,-1.7484,-1.7458,-1.5931,0.0,0.0,0.0,0.0,0.0,0.0,0.0,0.0,0.0,0.0,-1.0744,-0.996,-0.9058,-0.8232,-0.8736,-0.9878,-1.1546,-1.1918,-1.1666,-1.0715,-0.9673,-0.9365,-1.0087,-1.0864,-1.2003,-1.3434,-1.365,-1.3633,-1.3649,-1.3641,-1.3649,-1.3672,-1.3905,-1.4208,-1.4435,-1.4488,-1.4488,-1.4488,-1.4488,-1.4488,-1.4488,-1.4488,-1.4506,-1.4488,-1.4488,-1.4488,-1.4488,-1.4488,-1.4488,-1.447,-1.4399,-1.4319,-1.42,-1.4033,-1.3902,-1.3899,-1.4064,-1.419,-1.4082,-1.2836,-1.2054,-1.2356,-1.1994,-1.1323,-1.0522,-1.0265,-0.9962,-0.9384,-0.9206,-0.9206,-3.8707,-3.8652,-3.7973,-3.7713,-3.7658,-3.6982,-3.6633,-3.6431,0.0,0.0,0.0,-3.3109,-3.2803,-3.2779,-3.2118,-3.1764,-3.1604,-3.1604,-3.1109,-3.0228,-3.021,-2.9776,-2.9005,-2.8987,-2.8987,-2.8968,-2.8319,-2.7934,-2.7761,-2.6458,-2.5678,-2.5356,-2.4732,-2.4355,-2.4153,-2.3391,-2.2254,-2.0759,-1.9913,-1.9444,-1.9297,-1.8519,-1.8096,-1.8096,-1.6683,-1.5894,-1.5912,-1.5288,-1.4934,-1.4909,-1.4136,-1.3883,-1.424,-1.282,-1.2072,-1.2323,-1.2399,-1.1089,-0.8164,-1.0034,-1.2119,-1.3881,-1.4312,-1.388,-1.2457,-1.0998,-1.0488,-1.143,-1.3014,-1.4002,-1.3995,-1.4019,-1.4002,-1.4002,-1.4002,-1.4186,-1.4772,-1.5037,-1.5388,-1.5337,-1.5502,-1.5356,-1.5484,-1.5209,-1.4763,-1.4561,-1.4488,-1.4836,-1.5111,-1.4934,-1.4658,-1.4983,-1.4818,-1.4548,-1.4677,-1.4561,-1.4465,-1.435,-1.4293,-1.4268,-1.4269,-1.4393,-1.4494,-1.4411,-1.4447,-1.4204,-1.4069,-1.3999,-1.3521,-1.1303,-1.1102,-1.1008,-1.0092,-0.9715,-0.9578,-3.8707,-3.8689,-3.8579,-3.8524,-3.8524,-3.8414,-3.7973,-3.7217,-3.5697,-3.4546,-3.3788,-3.3678,-3.3642,-3.3623,-3.3495,-3.3091,-3.2436,-3.2417,-3.1629,-3.0228,-3.021,-2.9769,-2.9005,-2.8987,-2.8987,-2.8987,-2.8877,-2.8484,-2.7835,-2.7567,-2.6788,-2.554,-2.5283,-2.486,-2.419,-2.3419,-2.2538,-2.161,-2.0749,-1.9987,-1.9315,-1.8519,-1.8096,-1.8078,-1.7227,-1.6725,-1.6743,-1.6615,-1.656,-1.656,-1.5945,-1.5231,-1.4423,-1.3956,-1.3816,-1.4035,-1.4105,-1.3313,-1.1439,-1.1486,-1.2383,-1.4205,-1.4464,-1.439,-1.4159,-1.3904,-1.3234,-1.2116,-1.3431,-1.4417,-1.4411,-1.4399,-1.4387,-1.4435,-1.4447,-1.5457,-1.7983,-1.8368,-1.8386,-1.8379,-1.8636,-1.8489,-1.8232,-1.7337,-1.6083,-1.4946,-1.5001,-1.5521,-1.7293,-1.6224,-1.5301,-1.601,-1.5368,-1.4915,-1.5215,-1.4903,-1.4543,-1.4494,-1.4447,-1.4435,-1.4429,-1.4483,-1.4471,-1.4362,-1.4241,-1.4163,-1.4203,-1.4368,-1.3853,-1.2662,-1.2433,-1.2177,-1.1388,-1.0949,-1.0404,-3.8707,-3.8707,-3.8707,-3.8707,-3.8707,-3.8707,-3.823,-3.7456,-3.6721,-3.5642,-3.4468,-3.399,-3.3807,-3.3807,-3.3807,-3.3605,-3.3256,-3.3256,-3.2375,-3.0907,-3.0852,-3.0191,-2.9078,-2.8987,-2.8987,-2.8987,-2.8987,-2.8803,-2.8448,-2.8007,-2.72,-2.6062,-2.5191,-2.4557,-2.4208,-2.3841,-2.3033,-2.1812,-2.0933,-2.0115,-1.9315,-1.8941,-1.8765,-1.8739,-1.7961,-1.755,-1.7557,-1.7128,-1.6908,-1.6908,-1.6348,-1.5951,-1.5751,-1.4777,-1.4667,-1.5629,-1.4952,-1.4164,-1.3399,-1.3254,-1.3551,-1.4427,-1.4488,-1.4488,-1.4488,-1.4488,-1.4159,-1.342,-1.4074,-1.4488,-1.4488,-1.4488,-1.4488,-1.4488,-1.5998,-1.7674,-1.8948,-1.9279,-1.9279,-1.9279,-1.9279,-1.9279,-1.9279,-1.8647,-1.8023,-1.7197,-1.7087,-1.7726,-1.8982,-1.7889,-1.7117,-1.7943,-1.7571,-1.669,-1.5919,-1.5001,-1.4526,-1.4428,-1.4476,-1.4488,-1.4488,-1.4488,-1.4411,-1.4216,-1.3963,-1.3868,-1.4082,-1.4299,-1.3944,-1.3221,-1.2915,-1.2556,-1.1853,-1.0877,-0.994,-3.8872,-3.8707,-3.8707,-3.8707,-3.8707,-3.8707,-3.834,-3.7786,-3.7566,-3.6776,-3.555,-3.4523,-3.3972,-3.3807,-3.3807,-3.3807,-3.3807,-3.3807,-3.2926,-3.1494,-3.1403,-3.054,-2.9133,-2.8987,-2.8987,-2.8987,-2.8987,-2.8987,-2.8913,-2.8363,-2.7567,-2.6539,-2.4997,-2.4199,-2.4199,-2.4199,-2.3492,-2.2125,-2.1235,-2.0291,-1.9334,-1.9279,-1.9279,-1.9242,-1.8709,-1.839,-1.8335,-1.7759,-1.744,-1.741,-1.7048,-1.7012,-1.733,-1.618,-1.593,-1.6858,-1.6163,-1.5246,-1.4561,-1.4488,-1.4488,-1.4488,-1.4488,-1.4671,-1.4989,-1.4695,-1.4622,-1.4787,-1.4616,-1.4769,-1.5557,-1.5686,-1.5576,-1.5741,-1.7736,-1.9095,-1.9279,-1.9279,-1.9279,-1.9279,-1.9279,-1.9279,-1.9279,-1.9279,-1.9187,-1.9132,-1.9279,-1.9238,-1.9062,-1.8797,-1.8743,-1.9033,-1.9201,-1.8445,-1.653,-1.5434,-1.4861,-1.466,-1.452,-1.4489,-1.4483,-1.4476,-1.4411,-1.419,-1.3831,-1.3711,-1.3883,-1.4047,-1.3879,-1.3315,-1.3183,-1.2924,-1.2329,-1.136,-0.9932,-3.935,-3.8744,-3.8707,-3.8707,-3.8707,-3.8707,-3.8634,-3.8487,-3.7823,-3.7437,-3.7033,-3.5573,-3.4491,-3.3862,-3.3825,-3.3807,-3.3807,-3.3807,-3.2944,-3.1562,-3.1403,-3.054,-2.9115,-2.9005,-2.8987,-2.8987,-2.8987,-2.8987,-2.8987,-2.884,-2.8088,-2.6583,-2.4997,-2.4199,-2.4199,-2.4199,-2.3768,-2.2896,-2.2097,-2.0913,-1.9389,-1.9279,-1.9279,-1.9279,-1.9224,-1.9187,-1.9132,-1.9132,-1.9058,-1.9077,-1.8985,-1.9003,-1.9003,-1.8878,-1.8449,-1.7726,-1.8353,-1.7638,-1.4879,-1.4488,-1.4634,-1.4488,-1.4653,-1.5258,-1.645,-1.5392,-1.4952,-1.5588,-1.5093,-1.5912,-1.8416,-1.8691,-1.8526,-1.8397,-1.8948,-1.9279,-1.9279,-1.9279,-1.9279,-1.9279,-1.9279,-1.9279,-1.9279,-1.9279,-1.9279,-1.9279,-1.9279,-1.9214,-1.8905,-1.8418,-1.8194,-1.8576,-1.8965,-1.8884,-1.7844,-1.67,-1.5794,-1.5352,-1.4761,-1.4459,-1.4381,-1.4441,-1.4447,-1.43,-1.4093,-1.3868,-1.3723,-1.3713,-1.3783,-1.3715,-1.3634,-1.3615,-1.3494,-1.3016,-1.1931,-3.9698,-3.9368,-3.8891,-3.8707,-3.8707,-3.8707,-3.8707,-3.8652,-3.8358,-3.7951,-3.7401,-3.6266,-3.5312,-3.4472,-3.4009,-3.3807,-3.3807,-3.3807,-3.3201,-3.2118,-3.1623,-3.0797,-2.9769,-2.9207,-2.8987,-2.8987,-2.8987,-2.8987,-2.884,-2.8051,-2.7244,-2.6502,-2.4979,-2.4199,-2.4199,-2.4199,-2.3804,-2.3006,-2.2685,-2.1712,-2.017,-1.9536,-1.9279,-1.9279,-1.9279,-1.9279,-1.9279,-1.9279,-1.9279,-1.9279,-1.9279,-1.9279,-1.9279,-1.9279,-1.9106,-1.8702,-1.9051,-1.7883,-1.475,-1.6224,-1.7344,-1.7326,-1.7326,-1.7638,-1.8225,-1.7693,-1.7319,-1.7055,-1.7215,-1.7968,-1.9095,-1.9279,-1.9279,-1.9279,-1.9279,-1.9279,-1.9279,-1.9279,-1.9279,-1.9279,-1.9279,-1.9279,-1.9279,-1.9279,-1.9279,-1.9279,-1.9279,-1.9206,-1.8975,-1.8536,-1.8345,-1.8485,-1.8734,-1.8872,-1.8656,-1.7723,-1.6624,-1.5618,-1.465,-1.408,-1.4172,-1.4368,-1.447,-1.4405,-1.4281,-1.4103,-1.3894,-1.3684,-1.363,-1.3751,-1.3721,-1.3613,-1.3576,-1.3479,-1.2741,-4.0267,-3.979,-3.9038,-3.8707,-3.8707,-3.8707,-3.8707,-3.8707,-3.8707,-3.8358,-3.7749,-3.6762,-3.5954,-3.5261,-3.4284,-3.3807,-3.3807,-3.3807,-3.3366,-3.2614,-3.199,-3.1182,-3.021,-2.9629,-2.9207,-2.9042,-2.8987,-2.8987,-2.884,-2.7647,-2.6822,-2.6429,-2.5217,-2.442,-2.4218,-2.4199,-2.3914,-2.3373,-2.3144,-2.2382,-2.1208,-2.017,-1.9528,-1.9334,-1.9279,-1.9279,-1.9279,-1.9279,-1.9279,-1.9279,-1.9279,-1.9279,-1.9279,-1.9279,-1.9279,-1.9279,-1.9279,-1.8324,-1.5961,-1.7986,-1.9279,-1.9279,-1.9279,-1.9279,-1.9279,-1.9279,-1.8967,-1.8328,-1.8849,-1.9205,-1.9279,-1.9279,-1.9279,-1.9279,-1.9279,-1.9279,-1.9279,-1.9279,-1.9279,-1.9279,-1.9279,-1.9279,-1.9271,-1.9259,-1.9235,-1.9289,-1.9279,-1.9266,-1.916,-1.8905,-1.8688,-1.8592,-1.8553,-1.8698,-1.9041,-1.8144,-1.7098,-1.6512,-1.5426,-1.3942,-1.3931,-1.4179,-1.4381,-1.4281,-1.438,-1.4356,-1.4112,-1.3865,-1.3592,-1.3686,-1.3639,-1.3495,-1.3496,-1.343,-1.3422,-4.1295,-3.9861,-3.9038,-3.8726,-3.8707,-3.8707,-3.8707,-3.8707,-3.8707,-3.867,-3.8395,-3.7019,-3.6285,-3.6064,-3.4559,-3.3807,-3.3807,-3.3807,-3.3403,-3.2711,-3.2546,-3.1702,-3.0265,-3.0136,-2.9739,-2.9133,-2.9023,-2.8987,-2.8932,-2.8136,-2.7346,-2.6576,-2.5686,-2.4934,-2.4309,-2.4199,-2.4181,-2.4006,-2.341,-2.2933,-2.2657,-2.1255,-2.0126,-1.9462,-1.9297,-1.9279,-1.9279,-1.9279,-1.9279,-1.9279,-1.9279,-1.9279,-1.9279,-1.9279,-1.9279,-1.9279,-1.9279,-1.9242,-1.8967,-1.9132,-1.9279,-1.9279,-1.9279,-1.9279,-1.9279,-1.9279,-1.9224,-1.9187,-1.9205,-1.9279,-1.9279,-1.9279,-1.9279,-1.9297,-1.9289,-1.9289,-1.9292,-1.9243,-1.9271,-1.9274,-1.9282,-1.9297,-1.9289,-1.9184,-1.9166,-1.9253,-1.9289,-1.9259,-1.9212,-1.9204,-1.9049,-1.8761,-1.8542,-1.8463,-1.8945,-1.8417,-1.8165,-1.7835,-1.6373,-1.4271,-1.394,-1.384,-1.4136,-1.4138,-1.4082,-1.4091,-1.4179,-1.4071,-1.3799,-1.3677,-1.3528,-1.343,-1.3438,-1.3413,-1.3396,-4.135,-3.9898,-3.9606,-3.9184,-3.8707,-3.8707,-3.8707,-3.8707,-3.8707,-3.8707,-3.8524,-3.7533,-3.6795,-3.6229,-3.5078,-3.427,-3.3844,-3.3807,-3.3642,-3.333,-3.2839,-3.2289,-3.1702,-3.0723,-3.0087,-2.9757,-2.9262,-2.8987,-2.8913,-2.8191,-2.7383,-2.6594,-2.5786,-2.4989,-2.4346,-2.4199,-2.4199,-2.4171,-2.3896,-2.3529,-2.3024,-2.2401,-2.1465,-2.0126,-1.9565,-1.9279,-1.9279,-1.9279,-1.9279,-1.9279,-1.9279,-1.9279,-1.9279,-1.9279,-1.9279,-1.9279,-1.9279,-1.9279,-1.9279,-1.9279,-1.9279,-1.9279,-1.9279,-1.9279,-1.9279,-1.9279,-1.9279,-1.9279,-1.9279,-1.9279,-1.9279,-1.9279,-1.9279,-1.9289,-1.9222,-1.9119,-1.9018,-1.8984,-1.8992,-1.9008,-1.9158,-1.9279,-1.9251,-1.9067,-1.8992,-1.9158,-1.9084,-1.8991,-1.8992,-1.8966,-1.8914,-1.8797,-1.8611,-1.8524,-1.865,-1.8645,-1.8526,-1.8697,-1.7886,-1.6685,-1.6015,-1.5971,-1.6257,-1.462,-1.4203,-1.4241,-1.4453,-1.4291,-1.4001,-1.3711,-1.3557,-1.354,-1.3396,-1.3396,-1.3396,-4.1662,-4.0671,-4.0118,-3.9588,-3.9093,-3.8799,-3.8707,-3.8707,-3.8707,-3.8707,-3.856,-3.7845,-3.7199,-3.6541,-3.5518,-3.4729,-3.4192,-3.3954,-3.3807,-3.377,-3.3238,-3.2839,-3.2454,-3.1482,-3.0675,-3.0124,-2.939,-2.8987,-2.895,-2.8448,-2.7787,-2.6998,-2.6182,-2.5364,-2.4685,-2.4337,-2.4199,-2.4199,-2.4199,-2.3914,-2.3419,-2.3116,-2.2511,-2.1355,-2.0335,-1.9646,-1.9315,-1.9279,-1.9279,-1.9279,-1.9279,-1.9279,-1.9279,-1.9279,-1.9279,-1.9279,-1.9279,-1.9279,-1.9279,-1.9279,-1.9279,-1.9279,-1.9279,-1.9279,-1.9279,-1.9279,-1.9279,-1.9279,-1.9279,-1.9279,-1.9279,-1.9279,-1.9279,-1.9266,-1.9127,-1.8852,-1.8544,-1.8485,-1.8553,-1.8733,-1.9076,-1.9259,-1.9266,-1.9051,-1.9043,-1.9208,-1.8949,-1.8677,-1.8514,-1.8485,-1.8563,-1.8676,-1.8687,-1.8649,-1.8639,-1.8553,-1.8419,-1.8556,-1.8743,-1.7994,-1.7595,-1.7745,-1.7218,-1.5453,-1.473,-1.4736,-1.464,-1.449,-1.4235,-1.3956,-1.3863,-1.3896,-1.3676,-1.3396,-1.3396,-4.2304,-4.1974,-4.0598,-3.9955,-3.9717,-3.9093,-3.8744,-3.8707,-3.8707,-3.8707,-3.8597,-3.7881,-3.7547,-3.7144,-3.5936,-3.5078,-3.4784,-3.4229,-3.388,-3.3788,-3.3733,-3.3348,-3.2711,-3.2472,-3.1537,-3.021,-2.9372,-2.9005,-2.8987,-2.8895,-2.8473,-2.7732,-2.6888,-2.6043,-2.5356,-2.4603,-2.4199,-2.4199,-2.4199,-2.4171,-2.4098,-2.3465,-2.3024,-2.2712,-2.1657,-2.0582,-1.9499,-1.9334,-1.9334,-1.9389,-1.9315,-1.9297,-1.9279,-1.9279,-1.9279,-1.9279,-1.9279,-1.9279,-1.9279,-1.9279,-1.9279,-1.9279,-1.9279,-1.9279,-1.9279,-1.9279,-1.9279,-1.9279,-1.9279,-1.9279,-1.9279,-1.9279,-1.9279,-1.9266,-1.9025,-1.8574,-1.8046,-1.7918,-1.8016,-1.8508,-1.8912,-1.9251,-1.9261,-1.9338,-1.935,-1.9223,-1.886,-1.8398,-1.8089,-1.8009,-1.8057,-1.8396,-1.8573,-1.8593,-1.8544,-1.8475,-1.8358,-1.831,-1.85,-1.8301,-1.8111,-1.8132,-1.7827,-1.6481,-1.6431,-1.6386,-1.5818,-1.5597,-1.5037,-1.4752,-1.4577,-1.4259,-1.3938,-1.3659,-1.343,-4.28,-4.2268,-4.1772,-4.0891,-3.9937,-3.9625,-3.9239,-3.8726,-3.8707,-3.8707,-3.8652,-3.845,-3.8043,-3.7511,-3.689,-3.6083,-3.5041,-3.4711,-3.4344,-3.3899,-3.3825,-3.3678,-3.3366,-3.2871,-3.1751,-3.0289,-2.9372,-2.9005,-2.9005,-2.8987,-2.8594,-2.7787,-2.7016,-2.6209,-2.5429,-2.464,-2.4199,-2.4199,-2.4199,-2.4199,-2.419,-2.3951,-2.3556,-2.3079,-2.3061,-2.252,-2.1096,-1.9921,-1.9601,-2.0052,-1.9609,-1.9279,-1.9279,-1.9279,-1.9279,-1.9279,-1.9279,-1.9279,-1.9279,-1.9279,-1.9279,-1.9279,-1.9279,-1.9279,-1.9279,-1.9279,-1.9279,-1.9279,-1.9279,-1.9279,-1.9279,-1.9279,-1.9428,-1.9297,-1.8991,-1.8587,-1.8432,-1.9638,-1.9875,-1.863,-1.8669,-1.8931,-1.9183,-1.9611,-2.0081,-1.9539,-1.9031,-1.8563,-1.8269,-1.8058,-1.7928,-1.8246,-1.8365,-1.8695,-1.8912,-1.8782,-1.8412,-1.8358,-1.8471,-1.8393,-1.828,-1.8187,-1.7916,-1.7789,-1.7789,-1.7596,-1.7041,-1.6512,-1.5889,-1.5425,-1.5127,-1.4725,-1.4259,-1.3887,-1.3549,-4.3204,-4.2727,-4.2433,-4.157,-4.0341,-4.0047,-3.9441,-3.8762,-3.8707,-3.8707,-3.8707,-3.8707,-3.8432,-3.7936,-3.7639,-3.6909,-3.5917,-3.5334,-3.4729,-3.4229,-3.388,-3.3807,-3.3697,-3.2968,-3.1953,-3.0723,-2.9831,-2.928,-2.9005,-2.8968,-2.8748,-2.8191,-2.7438,-2.6649,-2.5852,-2.5062,-2.4548,-2.4273,-2.4199,-2.4199,-2.4199,-2.4199,-2.3951,-2.3602,-2.3933,-2.3657,-2.2639,-2.1255,-2.0476,-2.0374,-1.973,-1.9315,-1.9279,-1.9279,-1.9279,-1.9279,-1.9279,-1.9279,-1.9279,-1.9279,-1.9279,-1.9279,-1.9279,-1.9279,-1.9279,-1.9279,-1.9279,-1.9279,-1.9235,-1.9546,-2.0265,-2.0733,-2.0826,-2.0862,-1.9597,-1.9127,-1.949,-2.1096,-2.1539,-2.0296,-2.0068,-2.0063,-2.0365,-2.0409,-2.1092,-2.06,-2.0108,-1.9996,-1.9654,-1.8789,-1.8436,-1.834,-1.8773,-1.9133,-1.952,-1.9159,-1.8533,-1.8478,-1.8501,-1.826,-1.8035,-1.7971,-1.7789,-1.7789,-1.7789,-1.7789,-1.7335,-1.6993,-1.6492,-1.6102,-1.576,-1.5462,-1.503,-1.3929,-1.3481,-4.3479,-4.3387,-4.2708,-4.1882,-4.1001,-4.0322,-3.9533,-3.8762,-3.8707,-3.8707,-3.8707,-3.8707,-3.8689,-3.8487,-3.7955,-3.7474,-3.7125,-3.5848,-3.4986,-3.4637,-3.4156,-3.3807,-3.3697,-3.2968,-3.2118,-3.1286,-3.0485,-2.9751,-2.9023,-2.8987,-2.8987,-2.8822,-2.8081,-2.7346,-2.6465,-2.5778,-2.4934,-2.4291,-2.4199,-2.4199,-2.4199,-2.4199,-2.4181,-2.4116,-2.4153,-2.4116,-2.3841,-2.2785,-2.1661,-2.0531,-1.9814,-1.9575,-1.9363,-1.9352,-1.9591,-1.9407,-1.9352,-1.9418,-1.937,-1.9279,-1.9279,-1.9279,-1.9279,-1.9279,-1.9279,-1.9279,-1.9279,-1.9326,-1.9578,-2.0342,-2.1878,-2.2569,-2.294,-2.2944,-2.0849,-2.0297,-2.1878,-2.2245,-2.202,-2.2087,-2.2226,-2.2223,-2.1946,-2.1635,-2.1937,-2.2289,-2.1961,-2.2014,-2.2038,-2.0685,-1.8711,-1.8869,-1.9882,-2.0208,-2.0754,-1.9612,-1.9069,-1.9017,-1.9063,-1.8929,-1.811,-1.7833,-1.7789,-1.7789,-1.7789,-1.7789,-1.7698,-1.7336,-1.711,-1.6834,-1.6553,-1.6333,-1.574,-1.4826,-1.4268,-4.3479,-4.3461,-4.3259,-4.2378,-4.1168,-4.0857,-3.9992,-3.8799,-3.8707,-3.8707,-3.8707,-3.8707,-3.8707,-3.867,-3.8469,-3.7771,-3.6762,-3.6174,-3.5183,-3.4229,-3.3954,-3.3807,-3.366,-3.2986,-3.2197,-3.1403,-3.0668,-2.9776,-2.9042,-2.9023,-2.9005,-2.8968,-2.8246,-2.7438,-2.6583,-2.5841,-2.4989,-2.4309,-2.4199,-2.4199,-2.4199,-2.4199,-2.4199,-2.4199,-2.4199,-2.419,-2.4097,-2.3098,-2.1552,-1.989,-2.0581,-2.0435,-1.9711,-2.0435,-2.0601,-1.9895,-2.0343,-2.0463,-1.9596,-1.9289,-1.9297,-1.9279,-1.9282,-1.9279,-1.9279,-1.9315,-1.9297,-1.9656,-2.0951,-2.2211,-2.2401,-2.2515,-2.2646,-2.2537,-2.1665,-2.1447,-2.2078,-2.2313,-2.2313,-2.2313,-2.2313,-2.2313,-2.2268,-2.2279,-2.2306,-2.2647,-2.2775,-2.2787,-2.2793,-2.2798,-2.0981,-2.1198,-2.1827,-2.1902,-2.1651,-2.0399,-1.9713,-1.967,-1.9824,-2.0149,-1.8968,-1.7811,-1.7789,-1.7789,-1.7789,-1.7789,-1.7789,-1.7625,-1.7512,-1.7371,-1.731,-1.7084,-1.6908,-1.6282,-1.59,-4.3479,-4.3479,-4.3479,-4.2763,-4.1625,-4.1242,-4.0377,-3.9294,-3.8836,-3.8707,-3.8707,-3.8707,-3.8707,-3.8707,-3.8689,-3.8028,-3.6872,-3.6431,-3.5569,-3.4468,-3.399,-3.3825,-3.3697,-3.3243,-3.2674,-3.188,-3.1072,-3.0301,-2.9574,-2.9189,-2.9005,-2.8932,-2.8539,-2.7897,-2.7145,-2.63,-2.5503,-2.4805,-2.442,-2.4199,-2.4199,-2.4199,-2.4199,-2.4199,-2.419,-2.417,-2.3981,-2.3322,-2.2285,-2.1397,-2.1388,-2.1398,-2.1428,-2.1537,-2.1647,-2.1253,-2.1534,-2.1225,-2.0953,-2.0033,-1.9192,-1.9134,-1.9158,-2.0051,-2.1016,-2.1353,-2.1353,-2.1704,-2.2906,-2.3135,-2.2803,-2.247,-2.2324,-2.2321,-2.2313,-2.2313,-2.2313,-2.2313,-2.2313,-2.2313,-2.2313,-2.2313,-2.2313,-2.2432,-2.2501,-2.2565,-2.2717,-2.2935,-2.3158,-2.3342,-2.3354,-2.2952,-2.2555,-2.2315,-2.2229,-2.1295,-2.0822,-2.072,-2.0686,-2.1045,-1.9625,-1.8109,-1.7789,-1.7789,-1.7789,-1.7789,-1.7789,-1.7789,-1.7732,-1.7665,-1.7772,-1.7732,-1.7473,-1.727,-1.6999,-4.3479,-4.3479,-4.3479,-4.302,-4.2194,-4.146,-4.0598,-3.9827,-3.9038,-3.8707,-3.8707,-3.8707,-3.8707,-3.8707,-3.8689,-3.8193,-3.7272,-3.656,-3.5679,-3.4761,-3.4137,-3.3807,-3.3788,-3.3733,-3.322,-3.2467,-3.177,-3.0938,-3.0081,-2.9354,-2.9023,-2.8968,-2.8932,-2.8539,-2.7732,-2.7016,-2.6282,-2.5356,-2.4732,-2.4365,-2.4245,-2.4199,-2.4199,-2.4199,-2.4199,-2.4084,-2.3896,-2.3567,-2.3298,-2.3466,-2.2208,-2.2493,-2.3609,-2.2666,-2.2676,-2.3335,-2.2569,-2.225,-2.2716,-2.0946,-1.9632,-1.9605,-1.9657,-2.0743,-2.306,-2.363,-2.3592,-2.3422,-2.3873,-2.3606,-2.3134,-2.2638,-2.2352,-2.2313,-2.2313,-2.2313,-2.2313,-2.2313,-2.2313,-2.2313,-2.2313,-2.2313,-2.2327,-2.2338,-2.2363,-2.2405,-2.2569,-2.2738,-2.3089,-2.3389,-2.3354,-2.3168,-2.2751,-2.2324,-2.2296,-2.2178,-2.2009,-2.1907,-2.1786,-2.1569,-2.0048,-1.8763,-1.8093,-1.7789,-1.7789,-1.7789,-1.7789,-1.7789,-1.7789,-1.7789,-1.7789,-1.7789,-1.7749,-1.7631,-1.7411,-4.3479,-4.3479,-4.3479,-4.3039,-4.2231,-4.1444,-4.0653,-3.9863,-3.9056,-3.8707,-3.8707,-3.8707,-3.8707,-3.8707,-3.8634,-3.7955,-3.6707,-3.6229,-3.5532,-3.4137,-3.3935,-3.3807,-3.3807,-3.3807,-3.3366,-3.2632,-3.1788,-3.1011,-3.021,-2.95,-2.8987,-2.8987,-2.895,-2.8601,-2.7897,-2.7585,-2.6806,-2.565,-2.5191,-2.4787,-2.4318,-2.4218,-2.4199,-2.4199,-2.4199,-2.4056,-2.3795,-2.3459,-2.3248,-2.3165,-2.3057,-2.3182,-2.3785,-2.369,-2.3586,-2.3682,-2.3593,-2.3086,-2.2645,-2.2406,-2.2187,-2.1436,-2.1663,-2.2775,-2.3858,-2.417,-2.4012,-2.3847,-2.3902,-2.3792,-2.3283,-2.2655,-2.2391,-2.2352,-2.231,-2.2313,-2.2313,-2.2313,-2.2313,-2.2313,-2.2313,-2.2313,-2.2313,-2.2327,-2.2324,-2.231,-2.2394,-2.2487,-2.285,-2.3277,-2.3187,-2.2995,-2.2725,-2.2296,-2.2313,-2.2313,-2.2313,-2.2313,-2.2313,-2.2245,-2.0707,-1.9659,-1.9084,-1.8408,-1.7789,-1.7856,-1.8104,-1.7817,-1.7817,-1.78,-1.7822,-1.7789,-1.7789,-1.7789,-1.7789,-4.3479,-4.3479,-4.3479,-4.3259,-4.269,-4.1625,-4.0855,-4.0267,-3.9184,-3.8707,-3.8707,-3.8707,-3.8707,-3.8707,-3.8634,-3.7826,-3.6358,-3.5404,-3.4669,-3.3917,-3.3807,-3.3807,-3.3807,-3.3788,-3.3513,-3.2999,-3.1935,-3.1176,-3.0577,-2.9659,-2.8987,-2.8987,-2.8987,-2.8822,-2.8319,-2.8007,-2.7394,-2.6568,-2.5723,-2.5154,-2.4824,-2.4373,-2.4199,-2.4199,-2.419,-2.4056,-2.3795,-2.3414,-2.3177,-2.3072,-2.3052,-2.3242,-2.3685,-2.3852,-2.3886,-2.3976,-2.3774,-2.3439,-2.2985,-2.279,-2.2665,-2.2366,-2.2685,-2.3194,-2.3682,-2.3871,-2.3775,-2.3685,-2.386,-2.3986,-2.362,-2.3028,-2.2712,-2.2474,-2.2383,-2.2344,-2.233,-2.2313,-2.2313,-2.2313,-2.2313,-2.2313,-2.2313,-2.2347,-2.2313,-2.2327,-2.231,-2.2408,-2.2394,-2.2747,-2.2721,-2.2579,-2.246,-2.231,-2.2313,-2.2313,-2.2313,-2.2313,-2.2313,-2.2313,-2.1705,-2.0876,-2.0183,-1.9625,-1.9135,-1.8577,-1.8662,-1.8273,-1.8172,-1.8251,-1.8256,-1.7986,-1.7822,-1.7901,-1.7867,-4.3479,-4.3479,-4.3479,-4.3479,-4.3222,-4.1809,-4.1095,-4.0838,-3.9405,-3.8707,-3.8707,-3.8707,-3.8707,-3.8707,-3.8707,-3.7771,-3.6229,-3.4688,-3.388,-3.3844,-3.3807,-3.3807,-3.3807,-3.3788,-3.377,-3.3623,-3.2375,-3.1623,-3.098,-2.9989,-2.9244,-2.906,-2.8987,-2.8932,-2.8785,-2.8381,-2.7879,-2.7431,-2.6549,-2.5668,-2.5319,-2.474,-2.4456,-2.4199,-2.419,-2.4056,-2.3785,-2.3426,-2.3129,-2.2995,-2.2712,-2.2803,-2.3084,-2.3491,-2.3785,-2.4084,-2.3827,-2.3591,-2.32,-2.2764,-2.2366,-2.231,-2.2501,-2.2816,-2.3175,-2.3271,-2.3235,-2.3441,-2.3645,-2.4184,-2.4314,-2.3739,-2.3356,-2.3276,-2.3058,-2.2984,-2.297,-2.2939,-2.3124,-2.2347,-2.2733,-2.3004,-2.2634,-2.2482,-2.2398,-2.2344,-2.233,-2.2313,-2.2313,-2.2327,-2.2394,-2.2405,-2.2338,-2.231,-2.2313,-2.2381,-2.2381,-2.2313,-2.2313,-2.2313,-2.2313,-2.1806,-2.1164,-2.1181,-2.0741,-2.0149,-1.9778,-1.9811,-1.9621,-1.9193,-1.886,-1.8763,-1.8476,-1.8104,-1.8003,-4.3479,-4.3479,-4.3479,-4.3479,-4.324,-4.1791,-4.1113,-4.082,-3.9405,-3.8707,-3.8707,-3.8707,-3.8707,-3.8707,-3.8707,-3.7771,-3.6211,-3.4724,-3.3862,-3.3825,-3.3807,-3.3807,-3.3807,-3.3807,-3.3807,-3.3568,-3.2816,-3.2137,-3.1384,-3.0467,-2.9647,-2.9152,-2.8987,-2.8987,-2.8968,-2.8803,-2.8381,-2.7989,-2.7376,-2.666,-2.5815,-2.5356,-2.4879,-2.4438,-2.4346,-2.4119,-2.3785,-2.3414,-2.3105,-2.2919,-2.2555,-2.2446,-2.2632,-2.3103,-2.3524,-2.3782,-2.3986,-2.3915,-2.3646,-2.2871,-2.2405,-2.231,-2.2366,-2.2394,-2.2528,-2.2555,-2.2646,-2.2881,-2.3444,-2.4199,-2.5319,-2.4812,-2.4557,-2.4933,-2.537,-2.5624,-2.5676,-2.5456,-2.4695,-2.3359,-2.3545,-2.3562,-2.2953,-2.2685,-2.2936,-2.2733,-2.2465,-2.2381,-2.2313,-2.2313,-2.2324,-2.2324,-2.2327,-2.2313,-2.2313,-2.2415,-2.2465,-2.233,-2.2313,-2.2313,-2.2313,-2.2313,-2.2127,-2.1874,-2.1857,-2.1569,-2.1366,-2.1228,-2.072,-2.0061,-1.9811,-1.963,-1.9203,-1.8809,-1.8386,-4.3479,-4.3479,-4.3479,-4.3479,-4.3204,-4.1791,-4.1113,-4.0875,-3.9423,-3.8707,-3.8707,-3.8707,-3.8707,-3.8707,-3.8707,-3.7808,-3.6285,-3.5073,-3.4215,-3.3935,-3.3807,-3.3807,-3.3807,-3.3807,-3.3807,-3.3715,-3.3348,-3.2779,-3.1953,-3.076,-3.0051,-2.9647,-2.9244,-2.8987,-2.8987,-2.8968,-2.8767,-2.8374,-2.7989,-2.7467,-2.6623,-2.6256,-2.5585,-2.5044,-2.4759,-2.4476,-2.3821,-2.3414,-2.3117,-2.2859,-2.2528,-2.2352,-2.2446,-2.2721,-2.3151,-2.343,-2.3871,-2.4084,-2.3824,-2.303,-2.2501,-2.2327,-2.2313,-2.2313,-2.2313,-2.2338,-2.2347,-2.2765,-2.4379,-2.5501,-2.6432,-2.6211,-2.5913,-2.5261,-2.595,-2.6605,-2.6708,-2.6708,-2.571,-2.4374,-2.4169,-2.3763,-2.2767,-2.2818,-2.3359,-2.3207,-2.2753,-2.2567,-2.2482,-2.2736,-2.2905,-2.2499,-2.2482,-2.2313,-2.2516,-2.2919,-2.3141,-2.2972,-2.2313,-2.2313,-2.2313,-2.2313,-2.2313,-2.2195,-2.2279,-2.2313,-2.2195,-2.1772,-2.1346,-2.1008,-2.0961,-2.0758,-2.0061,-1.9502,-1.9215,-4.3479,-4.3479,-4.3479,-4.3479,-4.3222,-4.1774,-4.1113,-4.0783,-3.9389,-3.8707,-3.8707,-3.8707,-3.8707,-3.8652,-3.8358,-3.7643,-3.6266,-3.5371,-3.4546,-3.3917,-3.3807,-3.3807,-3.3807,-3.3807,-3.3807,-3.3788,-3.3733,-3.3385,-3.2394,-3.1201,-3.0503,-2.9941,-2.9372,-2.8987,-2.8987,-2.8987,-2.8987,-2.8785,-2.8418,-2.8044,-2.764,-2.6998,-2.6319,-2.565,-2.5485,-2.4935,-2.4194,-2.3504,-2.3263,-2.3089,-2.2812,-2.2479,-2.2372,-2.2515,-2.2827,-2.3224,-2.371,-2.3747,-2.3513,-2.3017,-2.246,-2.231,-2.2313,-2.2313,-2.2313,-2.2381,-2.2584,-2.3395,-2.4962,-2.6602,-2.6941,-2.748,-2.6894,-2.6128,-2.619,-2.6708,-2.6708,-2.6708,-2.6708,-2.5726,-2.4982,-2.4457,-2.3934,-2.4086,-2.488,-2.4541,-2.4086,-2.3393,-2.3376,-2.39,-2.3917,-2.3105,-2.2716,-2.2398,-2.2733,-2.3613,-2.4002,-2.4323,-2.3108,-2.2313,-2.2313,-2.2313,-2.233,-2.2398,-2.2313,-2.2313,-2.2313,-2.2296,-2.1874,-2.1735,-2.2057,-2.187,-2.1143,-2.0805,-2.0619,-4.3479,-4.3479,-4.3479,-4.3479,-4.3259,-4.1791,-4.1113,-4.0875,-3.9389,-3.8726,-3.8707,-3.8707,-3.8707,-3.8579,-3.801,-3.7199,-3.6266,-3.5532,-3.4656,-3.3935,-3.3807,-3.3807,-3.3807,-3.3807,-3.3807,-3.3807,-3.3807,-3.3348,-3.2614,-3.1696,-3.087,-3.0265,-2.9519,-2.8987,-2.8987,-2.8987,-2.8987,-2.8968,-2.8877,-2.851,-2.786,-2.7126,-2.6722,-2.6337,-2.5915,-2.5364,-2.4817,-2.4039,-2.358,-2.3815,-2.3485,-2.2951,-2.2446,-2.2324,-2.3129,-2.3611,-2.3628,-2.304,-2.3,-2.2646,-2.2377,-2.231,-2.2313,-2.2313,-2.2769,-2.2939,-2.3697,-2.6082,-2.6623,-2.6691,-2.6825,-2.6874,-2.7052,-2.7005,-2.6784,-2.6808,-2.6708,-2.6708,-2.6708,-2.6657,-2.5811,-2.5997,-2.5879,-2.6133,-2.6369,-2.5895,-2.5354,-2.466,-2.4355,-2.4898,-2.5135,-2.4408,-2.3799,-2.3477,-2.3359,-2.4186,-2.4847,-2.5423,-2.4391,-2.2905,-2.2885,-2.2987,-2.2516,-2.2533,-2.2415,-2.2313,-2.2313,-2.2279,-2.2229,-2.2229,-2.2245,-2.2262,-2.2195,-2.1992,-2.1688,-4.3479,-4.3479,-4.3479,-4.3479,-4.3277,-4.1774,-4.1113,-4.0765,-3.9407,-3.8707,-3.8707,-3.8707,-3.8707,-3.8615,-3.8285,-3.7459,-3.645,-3.5899,-3.5,-3.4009,-3.3825,-3.3807,-3.3807,-3.3807,-3.3807,-3.3807,-3.3788,-3.3715,-3.2963,-3.2063,-3.1146,-3.076,-2.9677,-2.8987,-2.8987,-2.8987,-2.8987,-2.8987,-2.895,-2.8822,-2.8491,-2.8124,-2.7721,-2.731,-2.6898,-2.6366,-2.5631,-2.501,-2.4544,-2.4646,-2.4269,-2.3915,-2.363,-2.3678,-2.4203,-2.5522,-2.5392,-2.435,-2.2867,-2.2496,-2.246,-2.2364,-2.2533,-2.3054,-2.4154,-2.4763,-2.5,-2.6488,-2.6674,-2.6708,-2.6708,-2.6708,-2.6907,-2.7053,-2.7005,-2.6891,-2.6708,-2.6708,-2.6708,-2.6708,-2.6708,-2.6708,-2.6708,-2.6657,-2.6607,-2.637,-2.6116,-2.5795,-2.5642,-2.5964,-2.6048,-2.5879,-2.532,-2.4847,-2.4712,-2.4998,-2.5659,-2.615,-2.615,-2.4864,-2.4137,-2.3866,-2.3646,-2.2888,-2.2398,-2.233,-2.2347,-2.2296,-2.2262,-2.2279,-2.2313,-2.2313,-2.2313,-2.2279,-2.2043,-4.3479,-4.3479,-4.3479,-4.3479,-4.3351,-4.1992,-4.126,-4.093,-3.9646,-3.8909,-3.8744,-3.8707,-3.8707,-3.8689,-3.8579,-3.79,-3.6666,-3.6413,-3.5422,-3.4486,-3.3917,-3.3825,-3.3807,-3.3807,-3.3807,-3.3807,-3.3807,-3.3752,-3.3348,-3.2522,-3.1678,-3.1347,-3.0063,-2.928,-2.9023,-2.8987,-2.8987,-2.8987,-2.8987,-2.8968,-2.8913,-2.8932,-2.8565,-2.8209,-2.7849,-2.7394,-2.6566,-2.5724,-2.5372,-2.5428,-2.5007,-2.4829,-2.4982,-2.51,-2.5439,-2.6319,-2.6317,-2.5656,-2.4215,-2.3475,-2.3139,-2.326,-2.3463,-2.456,-2.5947,-2.6708,-2.6708,-2.6708,-2.6691,-2.6708,-2.6708,-2.6708,-2.6758,-2.6808,-2.6741,-2.6725,-2.6708,-2.6708,-2.6708,-2.6708,-2.6708,-2.6708,-2.6708,-2.6708,-2.6691,-2.6691,-2.6708,-2.6708,-2.6691,-2.6674,-2.6573,-2.6386,-2.6184,-2.5761,-2.5744,-2.5912,-2.6522,-2.6708,-2.6708,-2.6454,-2.549,-2.5304,-2.5321,-2.4323,-2.3023,-2.2818,-2.3088,-2.2699,-2.2313,-2.2313,-2.2313,-2.2313,-2.2313,-2.2313,-2.2313,-4.3479,-4.3479,-4.3479,-4.3479,-4.3441,-4.258,-4.1791,-4.104,-4.0175,-3.935,-3.8744,-3.8707,-3.8707,-3.8707,-3.8634,-3.8212,-3.7345,-3.6633,-3.5752,-3.4894,-3.4215,-3.3935,-3.3844,-3.3807,-3.3807,-3.3807,-3.3807,-3.3807,-3.3642,-3.3036,-3.2137,-3.136,-3.043,-2.9721,-2.9262,-2.9078,-2.9005,-2.8994,-2.8964,-2.897,-2.897,-2.897,-2.8879,-2.8725,-2.8194,-2.762,-2.7278,-2.6318,-2.5864,-2.6182,-2.5777,-2.5727,-2.6048,-2.615,-2.6454,-2.6573,-2.6708,-2.6268,-2.5625,-2.4949,-2.5134,-2.5862,-2.6184,-2.5964,-2.6607,-2.6708,-2.6708,-2.6708,-2.6708,-2.6708,-2.6708,-2.6708,-2.6708,-2.6708,-2.6708,-2.6708,-2.6708,-2.6708,-2.6708,-2.6708,-2.6708,-2.6708,-2.6708,-2.6708,-2.6708,-2.6708,-2.6708,-2.6708,-2.6708,-2.6691,-2.6691,-2.6623,-2.6623,-2.6505,-2.6522,-2.6708,-2.6708,-2.6708,-2.6708,-2.6708,-2.6404,-2.6471,-2.6302,-2.5693,-2.4492,-2.4154,-2.3833,-2.3799,-2.3511,-2.2651,-2.2313,-2.2313,-2.2313,-2.2313,-2.2313,-4.3479,-4.3479,-4.3479,-4.3479,-4.3423,-4.2635,-4.1829,-4.104,-4.0249,-3.9441,-3.8692,-3.8707,-3.8707,-3.8707,-3.867,-3.8267,-3.7547,-3.7254,-3.6248,-3.5316,-3.4656,-3.4266,-3.4045,-3.3862,-3.3807,-3.3793,-3.3793,-3.3807,-3.3752,-3.339,-3.2876,-3.2014,-3.0931,-3.021,-2.9721,-2.9244,-2.9,-2.8947,-2.8893,-2.8876,-2.881,-2.8773,-2.8749,-2.8694,-2.8585,-2.8154,-2.7828,-2.7244,-2.6976,-2.6738,-2.643,-2.6504,-2.6607,-2.6674,-2.6708,-2.6708,-2.6708,-2.6708,-2.6691,-2.6149,-2.6217,-2.6387,-2.6657,-2.6708,-2.6708,-2.6708,-2.6708,-2.6708,-2.6708,-2.6708,-2.6708,-2.6708,-2.6708,-2.6708,-2.6708,-2.6708,-2.6708,-2.6708,-2.7249,-2.7486,-2.7046,-2.6708,-2.6708,-2.6708,-2.6708,-2.6708,-2.6708,-2.6708,-2.6708,-2.6708,-2.6708,-2.6708,-2.6708,-2.6708,-2.6708,-2.6708,-2.6708,-2.6708,-2.6708,-2.6708,-2.6708,-2.6674,-2.6471,-2.6116,-2.5981,-2.5558,-2.5287,-2.5236,-2.4678,-2.368,-2.2868,-2.2313,-2.2313,-2.2347,-2.2313,-4.3479,-4.3479,-4.3479,-4.3497,-4.3389,-4.2823,-4.1946,-4.0996,-4.0343,-3.9447,-3.8533,-3.8564,-3.8596,-3.8611,-3.8606,-3.8453,-3.7918,-3.7529,-3.6762,-3.6068,-3.5485,-3.4866,-3.4344,-3.406,-3.4004,-3.3812,-3.3712,-3.3698,-3.3726,-3.3758,-3.3378,-3.2595,-3.1571,-3.0857,-2.9989,-2.9452,-2.8989,-2.8888,-2.8743,-2.8644,-2.8533,-2.8435,-2.837,-2.837,-2.8316,-2.8192,-2.7925,-2.7517,-2.7302,-2.706,-2.6839,-2.6691,-2.6691,-2.6708,-2.6708,-2.6708,-2.6708,-2.6708,-2.6708,-2.6691,-2.6708,-2.6708,-2.6708,-2.6708,-2.6708,-2.6708,-2.6708,-2.6708,-2.6708,-2.6708,-2.6708,-2.6708,-2.6708,-2.6708,-2.6708,-2.6708,-2.6708,-2.6759,-2.7689,-2.8349,-2.8044,-2.8044,-2.6776,-2.681,-2.6945,-2.686,-2.6708,-2.6708,-2.6708,-2.6708,-2.6708,-2.6708,-2.6708,-2.6708,-2.6708,-2.6708,-2.6708,-2.6708,-2.6708,-2.6708,-2.6708,-2.6708,-2.6708,-2.6471,-2.6454,-2.6657,-2.6454,-2.6031,-2.5388,-2.4642,-2.3763,-2.2837,-2.2617,-2.2651,-2.2381,-4.3479,-4.3479,-4.3479,-4.3445,-4.334,-4.3251,-4.2231,-4.0833,-4.0365,-3.9442,-3.8192,-3.8204,-3.8338,-3.8401,-3.8446,-3.8468,-3.8398,-3.7896,-3.7364,-3.7019,-3.6325,-3.559,-3.4973,-3.4571,-3.409,-3.3567,-3.3433,-3.3473,-3.3587,-3.3573,-3.3482,-3.3184,-3.2224,-3.1301,-3.0247,-2.9464,-2.9008,-2.884,-2.8696,-2.8594,-2.8331,-2.8215,-2.8131,-2.7971,-2.7971,-2.789,-2.7683,-2.7489,-2.7276,-2.7053,-2.6841,-2.6708,-2.6708,-2.6708,-2.6708,-2.6708,-2.6708,-2.6708,-2.6708,-2.6708,-2.6708,-2.6708,-2.6708,-2.6708,-2.6708,-2.6708,-2.6843,-2.6979,-2.6793,-2.6725,-2.6708,-2.6708,-2.6708,-2.6843,-2.6877,-2.7588,-2.7706,-2.7774,-2.8839,-2.9431,-3.0023,-3.0108,-2.8129,-2.6962,-2.7148,-2.7097,-2.681,-2.6725,-2.6793,-2.6708,-2.6708,-2.6708,-2.6708,-2.6708,-2.6708,-2.6708,-2.6708,-2.6708,-2.6708,-2.6708,-2.6708,-2.6708,-2.6708,-2.6708,-2.6708,-2.6708,-2.6708,-2.6623,-2.598,-2.5303,-2.4338,-2.3545,-2.3257,-2.2852,-2.2499,-4.3481,-4.3429,-4.334,-4.3142,-4.2899,-4.2863,-4.2118,-4.0865,-3.9635,-3.845,-3.7721,-3.7685,-3.7896,-3.8066,-3.8285,-3.8485,-3.8569,-3.856,-3.8157,-3.7463,-3.6997,-3.6194,-3.5437,-3.4688,-3.4096,-3.3573,-3.3299,-3.3229,-3.3353,-3.3324,-3.3339,-3.3077,-3.2295,-3.1387,-3.0835,-3.0384,-3.0232,-3.0012,-2.9758,-2.939,-2.8688,-2.8418,-2.8154,-2.7752,-2.7717,-2.7607,-2.7436,-2.7282,-2.7101,-2.6957,-2.6775,-2.6725,-2.6708,-2.6708,-2.6708,-2.6708,-2.6708,-2.6708,-2.6708,-2.6708,-2.6708,-2.6708,-2.6708,-2.6708,-2.6708,-2.6708,-2.7012,-2.7418,-2.73,-2.7131,-2.6708,-2.6759,-2.686,-2.7317,-2.7841,-2.9431,-3.0006,-2.9989,-3.0398,-3.0548,-3.0987,-3.0954,-2.9719,-2.8755,-2.8687,-2.8366,-2.8146,-2.7402,-2.7232,-2.686,-2.6708,-2.6708,-2.6708,-2.6708,-2.6708,-2.6742,-2.6725,-2.6708,-2.6708,-2.6708,-2.6708,-2.6708,-2.6708,-2.6708,-2.6708,-2.6708,-2.6708,-2.6674,-2.6539,-2.5929,-2.5118,-2.4289,-2.3799,-2.3156,-2.2415,-4.3428,-4.3305,-4.3105,-4.2787,-4.2416,-4.2438,-4.1669,-4.0263,-3.8748,-3.7679,-3.7159,-3.7208,-3.7469,-3.7721,-3.7983,-3.8239,-3.8483,-3.8481,-3.8389,-3.77,-3.7473,-3.6701,-3.58,-3.4955,-3.4287,-3.367,-3.3227,-3.3087,-3.3019,-3.3006,-3.2941,-3.2638,-3.2005,-3.1632,-3.125,-3.0916,-3.0427,-3.0148,-2.9876,-2.9567,-2.9079,-2.8778,-2.8524,-2.8128,-2.7837,-2.7563,-2.7363,-2.7161,-2.6957,-2.6893,-2.6792,-2.6725,-2.6725,-2.6708,-2.6708,-2.6708,-2.6708,-2.6708,-2.6708,-2.6708,-2.6708,-2.6708,-2.6708,-2.6979,-2.7131,-2.7063,-2.769,-2.8062,-2.8147,-2.8264,-2.8163,-2.8061,-2.8197,-2.8704,-2.9245,-3.0835,-3.1004,-3.0886,-3.0886,-3.1123,-3.119,-3.119,-3.119,-3.1021,-3.0548,-3.0057,-2.9585,-2.8704,-2.7858,-2.7452,-2.7317,-2.7452,-2.7165,-2.7012,-2.6945,-2.6826,-2.6793,-2.6708,-2.6708,-2.6708,-2.6708,-2.6708,-2.6708,-2.6708,-2.6708,-2.6708,-2.6708,-2.664,-2.6556,-2.6488,-2.6167,-2.5321,-2.4458,-2.3782,-2.3122,-4.3393,-4.3178,-4.2844,-4.242,-4.2032,-4.1839,-4.0693,-3.8855,-3.8065,-3.7301,-3.6574,-3.6741,-3.7017,-3.7321,-3.7559,-3.7774,-3.7982,-3.8051,-3.7978,-3.7892,-3.7559,-3.6863,-3.629,-3.5642,-3.466,-3.3782,-3.3279,-3.3143,-3.2779,-3.2569,-3.2453,-3.2283,-3.1917,-3.1707,-3.1359,-3.0953,-3.0458,-3.0395,-3.0245,-2.992,-2.9489,-2.921,-2.9002,-2.8678,-2.8303,-2.8031,-2.7776,-2.7521,-2.7182,-2.6979,-2.6793,-2.681,-2.6793,-2.6742,-2.6708,-2.6708,-2.6708,-2.6877,-2.6708,-2.6708,-2.73,-2.752,-2.7402,-2.7876,-2.8147,-2.8011,-2.8587,-2.9365,-2.977,-3.0395,-3.0768,-3.0649,-3.0548,-3.0683,-3.07,-3.1157,-3.1157,-3.1123,-3.1123,-3.119,-3.119,-3.119,-3.119,-3.119,-3.119,-3.092,-3.0429,-3.0378,-2.9482,-2.845,-2.8468,-2.8908,-2.8416,-2.7503,-2.73,-2.7114,-2.6894,-2.6826,-2.6725,-2.6708,-2.6708,-2.6708,-2.6708,-2.6708,-2.6708,-2.6708,-2.6708,-2.6708,-2.6691,-2.6607,-2.6522,-2.6234,-2.5321,-2.5049,-2.4406,-4.3339,-4.3086,-4.2653,-4.2192,-4.1569,-4.0504,-3.9289,-3.8201,-3.7905,-3.7155,-3.5893,-3.6156,-3.6474,-3.6701,-3.6902,-3.7173,-3.7359,-3.7469,-3.7433,-3.7359,-3.7246,-3.6819,-3.6265,-3.5642,-3.4823,-3.4237,-3.3768,-3.3417,-3.2875,-3.2457,-3.202,-3.1803,-3.1618,-3.1506,-3.1333,-3.1061,-3.1021,-3.0991,-3.0815,-3.0465,-3.0078,-2.9844,-2.9585,-2.9178,-2.8857,-2.8619,-2.8501,-2.8417,-2.8214,-2.8197,-2.7215,-2.7063,-2.8316,-2.7402,-2.6708,-2.6793,-2.7165,-2.7537,-2.6877,-2.6725,-2.7486,-2.9145,-2.9617,-2.9228,-2.9416,-2.9433,-2.9704,-3.0243,-3.07,-3.1055,-3.119,-3.119,-3.119,-3.119,-3.119,-3.119,-3.119,-3.119,-3.119,-3.119,-3.119,-3.119,-3.119,-3.119,-3.119,-3.119,-3.119,-3.119,-3.0937,-2.9837,-2.9431,-2.989,-2.9805,-2.8924,-2.7858,-2.7469,-2.7182,-2.6945,-2.6826,-2.6725,-2.6708,-2.6708,-2.6708,-2.6708,-2.6708,-2.6708,-2.6708,-2.6708,-2.6708,-2.6708,-2.6623,-2.6488,-2.6302,-2.5929,-2.5726,-4.3304,-4.2956,-4.2398,-4.1576,-4.0499,-3.9539,-3.8519,-3.7601,-3.7466,-3.6738,-3.569,-3.5844,-3.6067,-3.6291,-3.6498,-3.6701,-3.6958,-3.6978,-3.6978,-3.6939,-3.6741,-3.6522,-3.6063,-3.5625,-3.5057,-3.4567,-3.4202,-3.3891,-3.3242,-3.2559,-3.2053,-3.1487,-3.1252,-3.121,-3.1179,-3.1169,-3.1298,-3.1361,-3.1327,-3.1098,-3.0798,-3.0535,-3.0228,-2.9854,-2.9568,-2.9365,-2.9416,-2.9382,-2.9213,-2.9044,-2.7859,-2.7994,-2.8891,-2.8062,-2.8197,-2.8366,-2.8315,-2.8772,-2.8602,-2.7994,-2.9196,-3.0412,-3.1173,-3.0717,-3.0463,-3.0482,-3.0548,-3.0784,-3.1004,-3.119,-3.119,-3.119,-3.119,-3.119,-3.119,-3.119,-3.119,-3.119,-3.119,-3.119,-3.119,-3.119,-3.119,-3.119,-3.119,-3.119,-3.119,-3.119,-3.119,-3.0801,-3.048,-3.0683,-3.07,-3.0378,-2.9245,-2.8078,-2.7604,-2.7266,-2.6877,-2.6776,-2.6742,-2.6708,-2.6708,-2.6708,-2.6708,-2.6708,-2.6708,-2.6708,-2.6708,-2.6708,-2.6708,-2.6607,-2.6556,-2.6471,-2.6404,-4.3196,-4.2768,-4.2021,-4.0722,-3.912,-3.8928,-3.8099,-3.6863,-3.6761,-3.6299,-3.5707,-3.5751,-3.5871,-3.6049,-3.6139,-3.6284,-3.6412,-3.6454,-3.6454,-3.653,-3.6326,-3.6135,-3.6028,-3.582,-3.5331,-3.4859,-3.4575,-3.4432,-3.3775,-3.296,-3.2064,-3.1414,-3.1249,-3.1207,-3.119,-3.119,-3.1249,-3.1269,-3.1288,-3.1147,-3.1162,-3.114,-3.1173,-3.0937,-3.0431,-2.9941,-3.0057,-2.9922,-2.9619,-2.9348,-2.9213,-2.923,-2.9264,-2.9314,-2.9956,-3.0125,-2.9771,-2.9888,-3.0023,-2.9619,-2.989,-3.07,-3.1173,-3.1072,-3.0987,-3.097,-3.097,-3.0987,-3.1157,-3.119,-3.119,-3.119,-3.119,-3.119,-3.119,-3.119,-3.119,-3.119,-3.119,-3.119,-3.119,-3.119,-3.119,-3.119,-3.119,-3.119,-3.119,-3.119,-3.119,-3.119,-3.119,-3.119,-3.1089,-3.092,-3.0395,-2.9262,-2.8247,-2.7706,-2.7131,-2.681,-2.6725,-2.6708,-2.6708,-2.6708,-2.6708,-2.6708,-2.6708,-2.6708,-2.6708,-2.6708,-2.6708,-2.6708,-2.6708,-2.6708,-2.6708,-4.2769,-4.2297,-4.141,-4.0229,-3.8986,-3.8396,-3.7652,-3.6761,-3.6129,-3.5825,-3.5633,-3.5644,-3.5689,-3.5778,-3.5805,-3.591,-3.5893,-3.598,-3.5854,-3.5915,-3.5844,-3.5866,-3.5778,-3.5711,-3.5492,-3.5453,-3.5272,-3.4943,-3.4181,-3.3179,-3.236,-3.2012,-3.1718,-3.1444,-3.141,-3.141,-3.1427,-3.1478,-3.1461,-3.1444,-3.1427,-3.1275,-3.1157,-3.1123,-3.0784,-3.0734,-3.0818,-3.0801,-3.0734,-3.0666,-3.0683,-3.0683,-3.0683,-3.0649,-3.0801,-3.1021,-3.0768,-3.0852,-3.0852,-3.0753,-3.0818,-3.092,-3.119,-3.119,-3.1173,-3.119,-3.119,-3.119,-3.119,-3.119,-3.119,-3.119,-3.119,-3.119,-3.119,-3.119,-3.119,-3.119,-3.119,-3.119,-3.119,-3.119,-3.119,-3.119,-3.119,-3.119,-3.119,-3.119,-3.119,-3.119,-3.119,-3.119,-3.119,-3.1021,-3.0734,-2.9989,-2.8738,-2.7824,-2.7199,-2.6928,-2.6708,-2.6708,-2.6708,-2.6708,-2.6708,-2.6708,-2.6708,-2.6708,-2.6708,-2.6708,-2.6708,-2.6708,-2.6708,-2.6708,-2.6708,-4.1917,-4.1785,-4.1042,-3.9884,-3.858,-3.8075,-3.728,-3.6299,-3.5785,-3.5616,-3.5616,-3.5616,-3.5616,-3.5616,-3.5616,-3.5616,-3.5616,-3.5622,-3.5667,-3.5644,-3.5616,-3.5622,-3.5616,-3.5616,-3.5583,-3.56,-3.5549,-3.5182,-3.4472,-3.3935,-3.3279,-3.2801,-3.229,-3.2104,-3.2104,-3.2138,-3.2104,-3.2205,-3.2087,-3.2087,-3.1952,-3.1664,-3.1258,-3.119,-3.119,-3.1207,-3.119,-3.119,-3.1173,-3.1173,-3.1106,-3.1106,-3.1072,-3.1055,-3.1123,-3.1173,-3.114,-3.119,-3.119,-3.119,-3.119,-3.119,-3.119,-3.119,-3.119,-3.119,-3.119,-3.119,-3.119,-3.119,-3.119,-3.119,-3.119,-3.119,-3.119,-3.119,-3.119,-3.119,-3.119,-3.119,-3.119,-3.119,-3.119,-3.119,-3.119,-3.119,-3.119,-3.119,-3.119,-3.119,-3.119,-3.119,-3.119,-3.1173,-3.1007,-3.0074,-2.8822,-2.801,-2.7334,-2.6945,-2.6708,-2.6708,-2.6708,-2.6708,-2.6708,-2.6708,-2.6708,-2.6708,-2.6708,-2.6708,-2.6708,-2.6708,-2.6708,-2.6708,-2.6708,-4.0947,-4.1251,-4.0802,-3.9542,-3.8048,-3.7898,-3.7019,-3.5785,-3.5616,-3.5684,-3.5819,-3.5819,-3.5718,-3.5616,-3.5616,-3.5616,-3.5616,-3.5616,-3.5616,-3.5616,-3.5616,-3.5616,-3.5616,-3.5616,-3.5616,-3.5616,-3.5583,-3.5267,-3.4759,-3.4303,-3.3931,-3.3592,-3.344,-3.3355,-3.3389,-3.3355,-3.3169,-3.3102,-3.3085,-3.3237,-3.2814,-3.2222,-3.1833,-3.1562,-3.1292,-3.1309,-3.1376,-3.1495,-3.1512,-3.1461,-3.1529,-3.1326,-3.1224,-3.119,-3.119,-3.119,-3.119,-3.119,-3.119,-3.119,-3.119,-3.119,-3.119,-3.119,-3.119,-3.119,-3.119,-3.119,-3.119,-3.119,-3.119,-3.119,-3.119,-3.119,-3.119,-3.119,-3.119,-3.119,-3.119,-3.119,-3.119,-3.119,-3.119,-3.119,-3.119,-3.119,-3.119,-3.119,-3.119,-3.119,-3.119,-3.119,-3.119,-3.1157,-3.114,-3.0277,-2.9076,-2.8416,-2.7774,-2.7165,-2.6708,-2.6708,-2.6708,-2.6708,-2.6708,-2.6708,-2.6708,-2.6708,-2.6708,-2.6708,-2.6708,-2.6708,-2.6708,-2.6708,-2.6708,-4.0433,-4.0754,-4.0451,-3.9414,-3.8024,-3.7898,-3.7026,-3.5752,-3.5633,-3.5921,-3.64,-3.6485,-3.6265,-3.5633,-3.5616,-3.5718,-3.5971,-3.587,-3.5684,-3.5616,-3.5785,-3.5701,-3.5633,-3.5684,-3.5616,-3.5616,-3.5616,-3.5498,-3.5148,-3.4759,-3.4472,-3.4286,-3.3643,-3.3508,-3.3474,-3.3525,-3.3622,-3.3677,-3.366,-3.3677,-3.3558,-3.3186,-3.3102,-3.2577,-3.1833,-3.2222,-3.2594,-3.2949,-3.2983,-3.2814,-3.2341,-3.1853,-3.1444,-3.1292,-3.1343,-3.119,-3.119,-3.119,-3.119,-3.119,-3.119,-3.119,-3.119,-3.119,-3.119,-3.119,-3.119,-3.119,-3.119,-3.119,-3.119,-3.119,-3.119,-3.119,-3.119,-3.119,-3.119,-3.119,-3.119,-3.119,-3.119,-3.119,-3.119,-3.119,-3.119,-3.119,-3.119,-3.119,-3.119,-3.119,-3.119,-3.119,-3.119,-3.119,-3.1157,-3.0514,-2.9516,-2.8873,-2.8146,-2.7418,-2.6911,-2.6725,-2.6708,-2.6708,-2.6708,-2.6708,-2.6708,-2.6708,-2.6708,-2.6708,-2.6708,-2.6708,-2.6708,-2.6708,-2.6708]},{"header":{"parameterUnit":"m.s-1","parameterCategory":1,"la1":31.0,"la2":29.5877,"lo1":-88.7671,"lo2":-86.6584,"dy":0.0162,"dx":0.0185,"nx":115,"ny":88,"refTime":"2026-05-12T00:00:00:Z","depth":0,"parameterNumber":3,"parameterNumberName":"V-component_of_WINDS"},"data":[0.0,0.0,0.0,0.0,0.0,0.0,0.0,0.0,0.0,0.0,0.0,0.0,0.0,0.0,0.0,0.0,0.0,0.0,0.0,0.0,0.0,0.0,0.0,0.0,0.0,0.0,0.0,0.0,0.0,0.0,0.0,0.0,0.0,0.0,0.0,0.0,0.0,0.0,0.0,0.0,0.0,0.0,0.0,0.0,0.0,0.0,0.0,0.0,0.0,0.0,0.0,0.0,0.0,0.0,0.0,0.0,0.0,0.0,0.0,0.0,0.0,0.0,0.0,0.0,0.0,0.0,0.0,0.0,0.0,0.0,0.0,0.0,0.0,0.0,0.0,0.0,0.0,0.0,0.0,0.0,0.0,0.0,0.0,0.0,0.0,0.0,0.0,0.0,0.0,0.0,0.0,0.0,0.0,0.0,0.0,0.0,0.0,0.0,0.0,0.0,0.0,0.0,0.0,0.0,0.0,0.0,0.0,0.0,0.0,0.0,0.0,0.0,0.0,0.0,0.0,0.0,0.0,0.0,0.0,0.0,0.0,0.0,0.0,0.0,0.0,0.0,0.0,0.0,0.0,0.0,0.0,0.0,0.0,0.0,0.0,0.0,0.0,0.0,0.0,0.0,0.0,0.0,0.0,0.0,0.0,0.0,0.0,0.0,0.0,0.0,0.0,0.0,0.0,0.0,0.0,0.0,0.0,0.0,0.0,0.0,0.0,0.0,0.0,0.0,0.0,0.0,0.0,0.0,0.0,0.0,0.0,0.0,0.0,0.0,0.0,0.0,0.0,0.0,0.0,0.0,0.0,0.0,0.0,0.0,0.0,0.0,0.0,0.0,0.0,0.0,0.0,0.0,0.0,0.0,0.0,0.0,0.0,0.0,0.0,0.0,0.0,0.0,0.0,0.0,0.0,0.0,0.0,0.0,0.0,0.0,0.0,0.0,0.0,0.0,0.0,0.0,0.0,0.0,0.0,0.0,0.0,0.0,0.0,0.0,0.0,0.0,0.0,0.0,0.0,0.0,0.0,0.0,0.0,0.0,0.0,0.0,0.0,0.0,0.0,0.0,0.0,0.0,0.0,0.0,0.0,0.0,0.0,0.0,0.0,0.0,0.0,0.0,0.0,0.0,0.0,0.0,0.0,0.0,0.0,0.0,0.0,0.0,0.0,0.0,0.0,0.0,0.0,0.0,0.0,0.0,0.0,0.0,0.0,0.0,0.0,0.0,0.0,0.0,0.0,0.0,0.0,0.0,0.0,0.0,0.0,0.0,0.0,0.0,0.0,0.0,0.0,0.0,0.0,0.0,0.0,0.0,0.0,0.0,0.0,0.0,0.0,0.0,0.0,0.0,0.0,0.0,0.0,0.0,0.0,0.0,0.0,0.0,0.0,0.0,0.0,0.0,0.0,0.0,0.0,0.0,0.0,0.0,0.0,0.0,0.0,0.0,0.0,0.0,0.0,0.0,0.0,0.0,0.0,0.0,0.0,0.0,0.0,0.0,0.0,0.0,0.0,0.0,0.0,0.0,0.0,0.0,0.0,0.0,0.0,0.0,0.0,0.0,0.0,0.0,0.0,0.0,0.0,0.0,0.0,0.0,0.0,0.0,0.0,0.0,0.0,0.0,0.0,0.0,0.0,0.0,0.0,0.0,0.0,0.0,0.0,0.0,0.0,0.0,0.0,0.0,0.0,0.0,0.0,0.0,0.0,0.0,0.0,0.0,0.0,0.0,0.0,0.0,0.0,0.0,0.0,0.0,0.0,0.0,0.0,0.0,0.0,0.0,0.0,0.0,0.0,0.0,0.0,0.0,0.0,0.0,0.0,0.0,0.0,0.0,0.0,0.0,0.0,0.0,0.0,0.0,0.0,0.0,0.0,0.0,0.0,0.0,0.0,0.0,0.0,0.0,0.0,0.0,0.0,0.0,0.0,0.0,0.0,0.0,0.0,0.0,0.0,0.0,0.0,0.0,0.0,0.0,0.0,0.0,0.0,0.0,0.0,0.0,0.0,0.0,0.0,0.0,0.0,0.0,0.0,0.0,0.0,0.0,0.0,0.0,0.0,0.0,0.0,0.0,0.0,0.0,0.0,0.0,0.0,0.0,0.0,0.0,0.0,0.0,0.0,0.0,0.0,0.0,0.0,0.0,0.0,0.0,0.0,0.0,0.0,0.0,0.0,0.0,0.0,0.0,0.0,0.0,0.0,0.0,0.0,0.0,0.0,0.0,0.0,0.0,0.0,0.0,0.0,0.0,0.0,0.0,0.0,0.0,0.0,0.0,0.0,0.0,0.0,0.0,0.0,0.0,0.0,0.0,0.0,0.0,0.0,0.0,0.0,0.0,0.0,0.0,0.0,0.0,0.0,0.0,0.0,0.0,0.0,0.0,0.0,0.0,0.0,0.0,0.0,0.0,0.0,0.0,0.0,0.0,0.0,0.0,0.0,0.0,0.0,0.0,0.0,0.0,0.0,0.0,0.0,0.0,0.0,0.0,0.0,0.0,0.0,0.0,0.0,0.0,0.0,0.0,0.0,0.0,0.0,0.0,0.0,0.0,0.0,0.0,0.0,0.0,0.0,0.0,0.0,0.0,0.0,0.0,0.0,0.0,0.0,0.0,0.0,0.0,0.0,0.0,0.0,0.0,0.0,0.0,0.0,0.0,0.0,0.0,0.0,0.0,0.0,0.0,0.0,0.0,0.0,0.0,0.0,0.0,0.0,0.0,0.0,0.0,0.0,0.0,0.0,0.0,0.0,0.0,0.0,0.0,0.0,0.0,0.0,0.0,0.0,0.0,0.0,0.0,0.0,0.0,0.0,0.0,0.0,0.0,0.0,0.0,0.0,0.0,0.0,0.0,0.0,0.0,0.0,0.0,0.0,0.0,0.0,0.0,0.0,0.0,0.0,0.0,0.0,0.0,0.0,0.0,0.0,0.0,0.0,0.0,0.0,0.0,0.0,0.0,0.0,0.0,0.0,0.0,0.0,0.0,0.0,0.0,0.0,0.0,0.0,0.0,0.0,0.0,0.0,0.0,0.0,0.0,0.0,0.0,0.0,0.0,0.0,0.0,0.0,0.0,0.0,0.0,0.0,0.0,0.0,0.0,0.0,0.0,0.0,0.0,0.0,0.0,0.0,0.0,0.0,0.0,0.0,0.0,0.0,0.0,0.0,0.0,0.0,0.0,0.0,0.0,0.0,0.0,0.0,0.0,0.0,0.0,0.0,0.0,0.0,0.0,0.0,0.0,0.0,0.0,0.0,0.0,0.0,0.0,0.0,0.0,0.0,0.0,0.0,0.0,0.0,0.0,0.0,0.0,0.0,0.0,0.0,0.0,0.0,0.0,0.0,0.0,0.0,0.0,0.0,0.0,0.0,0.0,0.0,0.0,0.0,0.0,0.0,0.0,0.0,0.0,0.0,0.0,0.0,0.0,0.0,0.0,0.0,0.0,0.0,0.0,0.0,0.0,0.0,0.0,0.0,0.0,0.0,0.0,0.0,0.0,0.0,0.0,0.0,0.0,0.0,0.0,0.0,0.0,0.0,0.0,0.0,0.0,0.0,0.0,0.0,0.0,0.0,0.0,0.0,0.0,0.0,0.0,0.0,0.0,0.0,0.0,0.0,0.0,0.0,0.0,0.0,0.0,0.0,0.0,0.0,0.0,0.0,0.0,0.0,0.0,0.0,0.0,0.0,0.0,0.0,0.0,0.0,0.0,0.0,0.0,0.0,0.0,0.0,0.0,0.0,0.0,0.0,0.0,0.0,0.0,0.0,0.0,0.0,0.0,0.0,0.0,0.0,0.0,0.0,0.0,0.0,0.0,0.0,0.0,0.0,0.0,0.0,0.0,0.0,0.0,0.0,0.0,0.0,0.0,0.0,0.0,0.0,0.0,0.0,0.0,0.0,0.0,0.0,0.0,0.0,0.0,0.0,0.0,0.0,0.0,0.0,0.0,0.0,0.0,0.0,0.0,0.0,0.0,0.0,0.0,0.0,0.0,0.0,0.0,0.0,0.0,0.0,0.0,0.0,0.0,0.0,0.0,0.0,0.0,0.0,0.0,0.0,0.0,0.0,0.0,0.0,0.0,0.0,0.0,0.0,0.0,0.0,0.0,0.0,0.0,0.0,0.0,0.0,0.0,0.0,0.0,0.0,0.0,0.0,0.0,0.0,0.0,0.0,0.0,0.0,0.0,0.0,0.0,0.0,0.0,0.0,0.0,0.0,0.0,0.0,0.0,0.0,0.0,0.0,0.0,0.0,0.0,0.0,0.0,0.0,0.0,0.0471,0.0,0.0,0.0,0.0,0.0,0.0,0.0,0.0,0.0,0.0,0.0,0.0,0.0,0.0,0.0,0.0,0.0,0.0,0.0,0.0,0.0,0.0,0.0,0.0,0.0,0.0,0.0,0.0,0.0,0.0,0.0,0.0,0.0,0.0,0.0,0.0,0.0,0.0,0.0,0.0,0.0,0.0,0.0,0.0,0.0,0.0,0.0,0.0,0.0,0.0,0.0,0.0,0.0,0.0,0.0,0.0,0.0,0.0,0.0,0.0,0.0,0.0,0.0,0.0,0.0,0.0,0.0,0.0,0.0,0.0,0.0,0.0,0.0,0.0,0.0,0.0,0.0,0.0,0.0,0.0,0.0,0.0,0.0,0.0,0.0,0.0,0.0,0.0,0.0,0.0,0.0,0.0,0.0,0.0,0.0,0.0,0.0,0.0,0.0,0.0,0.0,0.0,0.0,0.0,0.0,0.0,0.0,0.0,0.0,0.0,0.0,0.0,0.0,0.0,0.0,0.0,0.0,0.0,0.0,0.0,0.0,0.0,0.0,0.0,0.0,0.0,0.0,0.0,0.0,0.0,0.0,0.0,0.0,0.0,0.0,0.0,0.0,0.0,0.0,0.0,0.0,0.0,0.0,0.0,0.0,0.0,0.0,0.0,0.0,0.0,0.0,0.0,0.0,0.0,0.0,0.0,0.0,0.0,0.0,0.0,0.0,0.0,0.0,0.0,0.0,0.0,0.0,0.0,0.0,0.0,0.0,0.0,0.0,0.0,0.0,0.0,0.0,0.0,0.0,0.0,0.0,0.0,0.0,0.0,0.0,0.0,0.0,0.0,0.0,0.0,0.0,0.0,0.0,0.0,0.0,0.0,0.0,0.0,0.0,0.0,0.0,0.0,0.0,0.0,0.0,0.0,0.0,0.0,0.0,0.0,0.0,0.0,0.0,0.0,0.0,0.0,0.0,0.0,0.0,0.0,0.0,0.0,0.0,0.0,0.0,0.0,0.0,0.0392,0.0,0.0,0.0,0.0,0.0,0.0,0.0,0.0,0.0,0.0,0.0,0.0,0.0,0.0,0.0,0.0,0.0,0.0,0.0,0.0,0.0,0.0,0.0,0.0,0.0,0.0,0.0,0.0,0.0,0.0,0.0,0.0,0.0,0.0,0.0,0.0,0.0,0.0,0.0,0.0,0.0,0.0,0.0,0.0,0.0,0.0,0.0,0.0,0.0,0.0,0.0,0.0,0.0,0.0,0.0,0.0,0.0,0.0,0.0,0.0,0.0,0.0,0.0,0.0,0.0,0.0,0.0,0.0,0.0,0.0,0.0,0.0,0.0,0.0,0.0,0.0,0.0,0.0,0.0,0.0,0.0,0.0,0.0,0.0,0.0,0.0,0.0,0.0,0.0,0.0,0.0,0.0,0.0,0.0,0.0,0.0,0.0,0.0,0.0,0.0,0.0,0.0,0.0,0.0,0.0,0.0,0.0,0.0,0.0,0.0,0.0,0.0,0.4455,0.4418,0.1543,0.0,0.0,0.0,0.0,0.0,0.0,0.0,0.0,0.0,0.0,0.0,0.0,0.0,0.0,0.0,0.0,0.0,0.0,0.0,0.0,0.0,0.0,0.0,0.0,0.0,0.0,0.0,0.0,0.0,0.0,0.0,0.0,0.0,0.0,0.0,0.0,0.0,0.0,0.0,0.0,0.0,0.0,0.0,0.0,0.0,0.0,0.0,0.0,0.0,0.0,0.0,0.0,0.0,0.0,0.0,0.0,0.0,0.0,0.0,0.0,0.0,0.0,0.0,0.0,0.0,0.0,0.0,0.0,0.0,0.0,0.0,0.0,0.0,0.0,0.0,0.0,0.0,0.0,0.0,0.0,0.0,0.0,0.0,0.0,0.0,0.0,0.0,0.0,0.0,0.0,0.0,0.0,0.0,0.0,0.0,0.0,0.0,0.0,0.0,0.0,0.0,0.0,0.0,0.0,0.0,0.0,0.0,0.0,0.0,0.0,0.0,0.0,0.0,0.3941,0.1388,0.0,0.0,0.0,0.0,0.0,0.0,0.0,0.0,0.0,0.0,0.0,0.0,0.0,0.0,0.0,0.0,0.0,0.0,0.0,0.0,0.0,0.0,0.0,0.0,0.0,0.0,0.0,0.0,0.0,0.0,0.0,0.0,0.0,0.0,0.0,0.0,0.0,0.0,0.0,0.0,0.0,0.0,0.0,0.0,0.0,0.0,0.0,0.0,0.0,0.0,0.0,0.0,0.0,0.0,0.0,0.0,0.0,0.0,0.0,0.0,0.0,0.0,0.0,0.0,0.0,0.0,0.0,0.0,0.0,0.0,0.0,0.0,0.0,0.0,0.0,0.0,0.0,0.0,0.0,0.0,0.0,0.0,0.0,0.0,0.0,0.0,0.0,0.0,0.0,0.0,0.0,0.0,0.0,0.0,0.0,0.0,0.0,0.0,0.0,0.0,0.0,0.0,0.0,0.0,0.0,0.0,0.0,0.0,0.0,0.0,0.0,0.2978,0.0,0.323,0.1904,0.0789,0.0,0.0,0.0,0.0,0.0,0.0,0.0,0.0,0.0,0.0,0.0,0.0,0.0,0.0,0.0,0.0,0.0,0.0,0.0,0.0,0.0,0.0,0.0,0.0,0.0,0.0,0.0,0.0,0.0,0.0,0.0,0.0,0.0,0.0,0.0,0.0,0.0,0.0,0.0,0.0,0.0,0.0,0.0,0.0,0.0,0.0,0.0,0.0,0.0,0.0,0.0,0.0,0.0,0.0,0.0,0.0,0.0,0.0,0.0,0.0,0.0,0.0,0.0,0.0,0.0,0.0,0.0,0.0,0.0,0.0,0.0,0.0,0.0,0.0,0.0,0.0,0.0,0.0,0.0,0.0,0.0,0.0,0.0,0.0,0.0,0.0,0.0,0.0,0.0,0.0,0.0,0.0,0.0,0.0,0.0,0.0,0.0,0.0,0.0,0.0,0.0,0.0,0.0,0.0,0.0,0.0,0.0,0.0,0.0,0.0,0.2175,0.3273,0.3285,0.3694,0.2679,0.0,0.0,0.0,0.0,0.0,0.0,0.0,0.0,0.0,0.0,0.0,0.0,0.0,0.0,0.0,0.0,0.0,0.0,0.0,0.0,0.0,0.0,0.0,0.0,0.0,0.0,0.0,0.0,0.0,0.0,0.0,0.0,0.0,0.0,0.0,0.0,0.0,0.0,0.0,0.0,0.0,0.0,0.0,0.0,0.0,0.0,0.0,0.0,0.0,0.0,0.0,0.0,0.0,0.0,0.0,0.0,0.0,0.0,0.0,0.0,0.0,0.0,0.0,0.0,0.0,0.0,0.0,0.0,0.0,0.0,0.0,0.0,0.0,0.0,0.0,0.0,0.0,0.0,0.0,0.0,0.0,0.0,0.0,0.0,0.0,0.0,0.0,0.0,0.0,0.0,0.0,0.0,0.0,0.0,0.0,0.0,0.0,0.0,0.0,0.0,0.0,0.0,0.0,0.0,0.0,0.0,0.0,0.0,0.0,0.0,0.0782,0.1868,0.3214,0.3485,0.3109,0.0,0.0,0.0,0.0,0.0,0.0,0.0,0.0,0.0,0.0,0.0,0.0,0.0,0.0,0.0,0.0,0.0,0.0,0.0,0.0,0.0,0.0,0.0,0.0,0.0,0.0,0.0,0.0,0.0,0.0,0.0,0.0,0.0,0.0,0.0,0.0,0.0,0.0,0.0,0.0,0.0,0.0,0.0,0.0,0.0,0.0,0.0,0.0,0.0,0.0,0.0,0.0,0.0,0.0,0.0,0.0,0.0,0.0,0.0,0.0,0.0,0.0,0.0,0.0,0.0,0.0,0.0,0.0,0.0,0.0,0.0,0.0,0.0,0.0,0.0,0.0,0.0,0.0,0.0,0.0,0.0,0.0,0.0,0.0,0.0,0.0,0.0,0.0,0.0,0.0,0.0,0.0,0.0,0.0,0.0,0.0,0.0,0.0,0.0,0.0,0.0,0.0,0.0,0.0,0.0,0.0,0.0,0.0,0.0,0.107,0.0,0.1446,0.0,0.2596,0.2609,0.0,0.0,0.0,0.0,0.0,0.0,0.0,0.0,0.0,0.0,0.0,0.0,0.0,0.0,0.0,0.0,0.0,0.0,0.0,0.0,0.0,0.0,0.0,0.0,0.0,0.0,0.0,0.0,0.0,0.0,0.0,0.0,0.0,0.0,0.0,0.0,0.0,0.0,0.0,0.0,0.0,0.0,0.0,0.0,0.0,0.0,0.0,0.0,0.0,0.0,0.0,0.0,0.0,0.0,0.0,0.0,0.0,0.0,0.0,0.0,0.0,0.0,0.0,0.0,0.0,0.0,0.0,0.0,0.0,0.0,0.0,0.0,0.0,0.0,0.0,0.0,0.0,0.0,0.0,0.0,0.0,0.0,0.0,0.0,0.0,0.0,0.0,0.0,0.0,0.0,0.0,0.0,0.0,0.0,0.0,0.0,0.0,0.0,0.0,0.0,0.0,0.0,0.0,0.0,0.0,0.0,0.0,0.0,0.3264,0.3252,0.3226,0.2265,0.0183,0.1226,0.1213,0.0,0.0,0.0,0.0,0.0,0.0,0.0,0.0,0.0,0.0,0.0,0.0,0.0,0.0,0.0,0.0,0.0,0.0,0.0,0.0,0.0,0.0,0.0,0.0,0.0,0.0,0.0,0.0,0.0,0.0,0.0,0.0,0.0,0.0,0.0,0.0,0.0,0.0,0.0,0.0,0.0,0.0,0.0,0.0,0.0,0.0,0.0,0.0,0.0,0.0,0.0,0.0,0.0,0.0,0.0,0.0,0.0,0.0,0.0,0.0,0.0,0.0,0.0,0.0,0.0,0.0,0.0,0.0,0.0,0.0,0.0,0.0,0.0,0.0,0.0,0.0,0.0,0.0,0.0,0.0,0.0,0.0,0.0,0.0,0.0,0.0,0.0,0.0,0.0,0.0,0.0,0.0,0.0,0.0,0.0,0.0,0.0,0.0,0.0,0.0,0.0,0.0,0.0,0.0,0.0,0.0,0.0,0.0,0.0,0.3302,0.3298,0.2978,0.2297,0.191,0.1157,0.0,0.0,0.0,0.0,0.0,0.0,0.0,0.0,0.0,0.0,0.0,0.0,0.0,0.0,0.0,0.0,0.0,0.0,0.0,0.0,0.0,0.0,0.0,0.0,0.0,0.0,0.0,0.0,0.0,0.0,0.0,0.0,0.0,0.0,0.0,0.0,0.0,0.0,0.0,0.0,0.0,0.0,0.0,0.0,0.0,0.0,0.0,0.0,0.0,0.0,0.0,0.0,0.0,0.0,0.0,0.0,0.0,0.0,0.0,0.0,0.0,0.0,0.0,0.0,0.0,0.0,0.0,0.0,0.0,0.0,0.0,0.0,0.0,0.0,0.0,0.0,0.0,0.0,0.0,0.0,0.0,0.0,0.0,0.0,0.0,0.0,0.0,0.0,0.0,0.0,0.0,0.0,0.0,0.0,0.0,0.0,0.0,0.0,0.0,0.0,0.0,0.0,0.0,0.0,0.0,0.0,0.0,0.0,0.0,0.3575,0.337,0.3263,0.3268,0.2602,0.1933,0.1221,0.0,0.0,0.0,0.0,0.0,0.0,0.0,0.0,0.0,0.0,0.0,0.0,0.0,0.0,0.0,0.0,0.0,0.0,0.0,0.0,0.0,0.0,0.0,0.0,0.0,0.0,0.0,0.0,0.0,0.0,0.0,0.0,0.0,0.0,0.0,0.0,0.0,0.0,0.0,0.0,0.0,0.0,0.0,0.0,0.0,0.0,0.0,0.0,0.0,0.0,0.0,0.0,0.0,0.0,0.0,0.0,0.0,0.0,0.0,0.0,0.0,0.0,0.0,0.0,0.0,0.0,0.0,0.0,0.0,0.0,0.0,0.0,0.0,0.0,0.0,0.0,0.0,0.0,0.0,0.0,0.0,0.0,0.0,0.0,0.0,0.0,0.0,0.0,0.0,0.0,0.0,0.0,0.0,0.0,0.0,0.0,0.0,0.0,0.0,0.0,0.0,0.0,0.0,0.0,0.0,0.0,0.0,0.0,0.3987,0.3504,0.3252,0.3228,0.3204,0.3213,0.0,0.0,0.0,0.0,0.0,0.0,0.0,0.0,0.0,0.0,0.0,0.0,0.0,0.0,0.0,0.0,0.0,0.0,0.0,0.0,0.0,0.0,0.0,0.0,0.0,0.0,0.0,0.0,0.0,0.0,0.0,0.0,0.0,0.0,0.0,0.0,0.0,0.0,0.0,0.0,0.0,0.0,0.0,0.0,0.0,0.0,0.0,0.0,0.0,0.0,0.0,0.0,0.0,0.0,0.0,0.0,0.0,0.0,0.0,0.0,0.0,0.0,0.0,0.0,0.0,0.0,0.0,0.0,0.0,0.0,0.0,0.0,0.0,0.0,0.0,0.0,0.0,0.0,0.0,0.0,0.0,0.0,0.0,0.0,0.0,0.0,0.0,0.0,0.0,0.0,0.0,0.0,0.0,0.0,0.0,0.0,0.0,0.0,0.0,0.0,0.0,0.0,0.0,0.0,0.0,0.0,0.0,0.0,0.0,0.3726,0.3807,0.3751,0.3506,0.3484,0.3376,0.0,0.0,0.0,0.0,0.0,0.0,0.0,0.0,0.0,0.0,0.0,0.0,0.0,0.0,0.0,0.0,0.0,0.0,0.0,0.0,0.0,0.0,0.0,0.0,0.0,0.0,0.0,0.0,0.0,0.0,0.0,0.0,0.0,0.0,0.0,0.0,0.0,0.0,0.0,0.0,0.0,0.0,0.0,0.0,0.0,0.0,0.0,0.0,0.0,0.0,0.0,0.0,0.0,0.0,0.0,0.0,0.0,0.0,0.0,0.0,0.0,0.0,0.0,0.0,0.0,0.0,0.0,0.0,0.0,0.0,0.0,0.0,0.0,0.0,0.0,0.0,0.0,0.0,0.0,0.0,0.0,0.0,0.0,0.0,0.0,0.0,0.0,0.0,0.0,0.0,0.0,0.0,0.0,0.0,0.0,0.0,0.0,0.0,0.0,0.0,0.0,0.0,0.0,0.0,0.0,0.0,0.0,0.0,0.3959,0.3742,0.4248,0.4352,0.3992,0.3673,0.3468,0.0,0.0,0.0,0.0,0.0,0.0,0.0,0.0,0.0,0.0,0.0,0.0,0.0,0.0,0.0,0.0,0.0,0.0,0.0,0.0,0.0,0.0,0.0,0.0,0.0,0.0,0.0,0.0,0.0,0.0,0.0,0.0,0.0,0.0,0.0,0.0,0.0,0.0,0.0,0.0,0.0,0.0,0.0,0.0,0.0,0.0,0.0,0.0,0.0,0.0,0.0,0.0,0.0,0.0,0.0,0.0,0.0,0.0,0.0,0.0,0.0,0.0,0.0,0.0,0.0,0.0,0.0,0.0,0.0,0.0,0.0,0.0,0.0,0.0,0.0,0.0,0.0,0.0,0.0,0.0,0.0,0.0,0.0,0.0,0.0,0.0,0.0,0.0,0.0,0.0,0.0,0.0,0.0,0.0,0.0,0.0,0.0,0.0,0.0,0.0,0.0,0.0,0.0,0.0,0.0,0.0,0.0,0.0,0.4158,0.3909,0.467,0.4923,0.4561,0.388,0.3526,0.0,0.0,0.0,0.0,0.0,0.0,0.0,0.0,0.0,0.0,0.0,0.0,0.0,0.0,0.0,0.0,0.0,0.0,0.0,0.0,0.0,0.0,0.0,0.0,0.0,0.0,0.0,0.0,0.0,0.0,0.0,0.0,0.0,0.0,0.0,0.0,0.0,0.0,0.0,0.0,0.0,0.0,0.0,0.0,0.0,0.0,0.0,0.0,0.0,0.0,0.0,0.0,0.0,0.0,0.0,0.0,0.0,0.0,0.0,0.0,0.0,0.0,0.0,0.0,0.0,0.0,0.0,0.0,0.0,0.0,0.0,0.0,0.0,0.0,0.0,0.0,0.0,0.0,0.0,0.0,0.0,0.0,0.0,0.0,0.0,0.0,0.0,0.0,0.0,0.0,0.0,0.0,0.0,0.0,0.0,0.0,0.0,0.0,0.0,0.0,0.0,0.0,0.0,0.0,0.0,0.0,0.0,0.0,0.4095,0.385,0.4661,0.5059,0.4962,0.4509,0.4009,0.0,0.0,0.0,0.0,0.0,0.0,0.0,0.0,0.0,0.0,0.0,0.0,0.0,0.0,0.0,0.0,0.0,0.0,0.0,0.0,0.0,0.0,0.0,0.0,0.0,0.0,0.0,0.0,0.0,0.0,0.0,0.0,0.0,0.0,0.0,0.0,0.0,0.0,0.0,0.0,0.0,0.0,0.0,0.0,0.0,0.0,0.0,0.0,0.0,0.0,0.0,0.0,0.0,0.0,0.0,0.0,0.0,0.0,0.0,0.0,0.0,0.0,0.0,0.0,0.0,0.0,0.0,0.0,0.0,0.0,0.0,0.0,0.0,0.0,0.0,0.0,0.0,0.0,0.0,0.0,0.0,0.0,0.0,0.0,0.0,0.0,0.0,0.0,0.0,0.0,0.0,0.0,0.0,0.0,0.0,0.0,0.0,0.0,0.0,0.0,0.0,0.0,0.0,0.0,0.0,0.0,0.0,0.0,0.3971,0.4051,0.474,0.5098,0.5078,0.4894,0.4469,0.0,0.0,0.0,0.0,0.0,0.0,0.0,0.0,0.0,0.0,0.0,0.0,0.0,0.0,0.0,0.0,0.0,0.0,0.0,0.0,0.0,0.0,0.0,0.0,0.0,0.0,0.0,0.0,0.0,0.0,0.0,0.0,0.0,0.0,0.0,0.0,0.0,0.0,0.0,0.0,0.0,0.0,0.0,0.0,0.0,0.0,0.0,0.0,0.0,0.0,0.0,0.0,0.0,0.0,0.0,0.0,0.0,0.0,0.0,0.0,0.0,0.0,0.0,0.0,0.0,0.0,0.0,0.0,0.0,0.0,0.0,0.0,0.0,0.0,0.0,0.0,0.0,0.0,0.0,0.0,0.0,0.0,0.0,0.0,0.0,0.0,0.0,0.0,0.0,0.0,0.0,0.0,0.0,0.0,0.0,0.0,0.0,0.0,0.0,0.0,0.0,0.0,0.0,0.0,0.0,0.0,0.0,0.3401,0.3912,0.427,0.48,0.5098,0.5098,0.5098,0.4856,0.4303,0.0,0.0,0.0,0.0,0.0,0.0,0.0,0.0,0.0,0.0,0.0,0.0,0.0,0.0,0.0,0.0,0.0,0.0,0.0,0.0,0.0,0.0,0.0,0.0,0.0,0.0,0.0,0.0,0.0,0.0,0.0,0.0,0.0,0.0,0.0,0.0,0.0,0.0,0.0,0.0,0.0,0.0,0.0,0.0,0.0,0.0,0.0,0.0,0.0,0.0,0.0,0.0,0.0,0.0,0.0,0.0,0.0,0.0,0.0,0.0,0.0,0.0,0.0,0.0,0.0,0.0,0.0,0.0,0.0,0.0,0.0,0.0,0.0,0.0,0.0,0.0,0.0,0.0,0.0,0.0,0.0,0.0,0.0,0.0,0.0,0.0,0.0,0.0,0.0,0.0,0.0,0.0,0.0,0.0,0.0,0.0,0.0,0.0,0.0,0.0,0.0,0.0,0.0,0.0,0.0,0.2713,0.349,0.3956,0.4149,0.4706,0.5039,0.5098,0.5098,0.4979,0.471,0.0,0.0,0.0,0.0,0.0,0.0,0.0,0.0,0.0,0.0,0.0,0.0,0.0,0.0,0.0,0.0,0.0,0.0,0.0,0.0,0.0,0.0,0.0,0.0,0.0,0.0,0.0,0.0,0.0,0.0,0.0,0.0,0.0,0.0,0.0,0.0,0.0,0.0,0.0,0.0,0.067,0.0,0.0,0.0,0.0,0.0,0.0,0.0,0.0,0.0,0.0,0.0,0.0,0.0,0.0,0.0,0.0,0.0,0.0,0.0,0.0,0.0,0.0,0.0,0.0,0.0,0.0,0.0,0.0,0.0,0.0,0.0,0.0,0.0,0.0,0.0,0.0,0.0,0.0,0.0,0.0,0.0,0.0,0.0,0.0,0.0,0.0,0.0,0.0,0.0,0.0,0.0,0.0,0.0,0.0,0.0,0.0,0.0,0.0,0.0,0.0,0.0,0.0,0.0,0.0,0.2781,0.3365,0.3842,0.4202,0.4635,0.4892,0.5,0.4866,0.4833,0.0,0.0,0.0,0.0,0.0,0.0,0.0,0.0,0.0,0.0,0.0,0.0,0.0,0.0,0.0,0.0,0.0,0.0,0.0,0.0,0.0,0.0,0.0,0.0,0.0,0.0,0.0,0.0,0.0,0.0,0.0,0.0,0.0,0.0,0.0,0.0,0.0,0.0,0.0,0.0,0.0,0.0794,0.2987,0.0,0.0,0.0,0.0,0.0,0.0,0.0739,0.0196,0.0,0.0,0.0,0.0,0.0,0.0,0.0,0.0,0.0,0.0,0.0,0.0,0.0,0.0,0.0,0.0,0.0,0.0,0.0,0.0,0.0,0.0,0.0,0.0,0.0,0.0,0.0,0.0,0.0,0.0,0.0,0.0,0.0,0.0,0.0,0.0,0.0,0.0,0.0,0.0,0.0,0.0,0.0,0.0,0.0,0.0,0.0,0.0,0.0,0.0,0.0,0.0,0.0,0.0,0.0,0.2787,0.3335,0.3845,0.4264,0.4584,0.4806,0.4863,0.4704,0.4738,0.0,0.0,0.0,0.0,0.0,0.0,0.0,0.0,0.0,0.0,0.0,0.0,0.0,0.0,0.0,0.0,0.0,0.0,0.0,0.0,0.0,0.0,0.0,0.0,0.0,0.0,0.0,0.0,0.0,0.0,0.0,0.0,0.0,0.0,0.0,0.0,0.0,0.0,0.0,0.0,0.0,0.1303,0.3029,0.1787,0.0,0.0,0.0,0.0,0.3302,0.1807,0.0,0.0,0.0,0.0,0.0,0.0,0.0,0.0,0.0,0.0,0.0,0.0,0.0,0.0,0.0,0.0,0.0,0.0,0.0,0.0,0.0,0.0,0.0,0.0,0.0,0.0,0.0,0.0,0.0,0.0,0.0,0.0,0.0,0.0,0.0,0.0,0.0,0.0,0.0,0.0,0.0,0.0,0.0,0.0,0.0,0.0,0.0,0.0,0.0,0.0,0.0,0.0,0.0,0.0,0.0,0.0,0.2753,0.3642,0.4127,0.4141,0.468,0.4913,0.4822,0.4962,0.5011,0.0,0.0,0.0,0.0,0.0,0.0,0.0,0.0,0.0,0.0,0.0,0.0,0.0,0.0,0.0,0.0,0.0,0.0,0.0,0.0,0.0,0.0,0.0,0.0,0.0,0.0,0.0,0.0,0.0,0.0,0.0,0.0,0.0,0.0,0.0,0.0,0.0,0.0,0.0,0.0,0.0,0.3007,0.3264,0.3087,0.2928,0.0,0.0,0.3302,0.3298,0.3075,0.0,0.0,0.0,0.0,0.0,0.0,0.0,0.0,0.0,0.0,0.0,0.0,0.0,0.0,0.0,0.0,0.0,0.0,0.0,0.0,0.0,0.0,0.0,0.0,0.0,0.0,0.0,0.0,0.0,0.0,0.0,0.0,0.0,0.0,0.0,0.0,0.0,0.0,0.0,0.0,0.0,0.0,0.0,0.0,0.0,0.0,0.0,0.0,0.0,0.0,0.0,0.0,0.0,0.0,0.0,0.2628,0.268,0.3605,0.4157,0.4271,0.4661,0.4938,0.5033,0.4772,0.4775,0.0,0.0,0.0,0.0,0.0,0.0,0.0,0.0,0.0,0.0,0.0,0.0,0.0,0.0,0.0,0.0,0.0,0.0,0.0,0.0,0.0,0.0,0.0,0.0,0.0,0.0,0.0,0.0,0.0,0.0,0.0,0.0,0.0,0.0,0.0,0.0,0.0,0.0,0.0,0.0,0.0,0.0,0.3123,0.3201,0.0,0.0,0.0,0.4026,0.3386,0.0,0.0,0.0,0.0,0.0,0.0,0.0,0.0,0.0,0.0,0.0,0.0,0.0,0.0,0.0,0.0,0.0,0.0,0.0,0.0,0.0,0.0,0.0,0.0,0.0,0.0,0.0,0.0,0.0,0.0,0.0,0.0,0.0,0.0,0.0,0.0,0.0,0.0,0.0,0.0,0.0,0.0,0.0,0.0,0.0,0.0,0.0,0.0,0.0,0.0,0.0,0.0,0.0,0.0,0.0,0.0,0.0,0.2747,0.3634,0.4233,0.4475,0.4825,0.506,0.513,0.4799,0.0,0.0,0.0,0.0,0.0,0.0,0.0,0.0,0.0,0.0,0.0,0.0,0.0,0.0,0.0,0.0,0.0,0.0,0.0,0.0,0.0,0.0,0.0,0.0,0.0,0.0,0.0,0.0,0.0,0.0,0.0,0.0,0.0,0.0,0.0,0.0,0.0,0.0,0.0,0.0,0.0,0.0,0.3088,0.3476,0.3731,0.3924,0.0,0.0,0.4945,0.3842,0.3448,0.3298,0.0,0.0,0.0,0.0,0.0,0.0,0.0,0.0,0.0,0.0,0.0,0.0,0.0,0.0,0.0,0.0,0.0,0.0,0.0,0.0,0.0,0.0,0.0,0.0,0.0,0.0,0.0,0.0,0.0,0.0,0.0,0.0,0.0,0.0,0.0,0.0,0.0,0.0,0.0,0.0,0.0,0.0,0.0,0.0,0.0,0.0,0.0,0.0,0.0,0.0,0.0,0.0,0.0,0.0,0.0,0.3089,0.3928,0.4467,0.469,0.524,0.5373,0.502,0.5276,0.5173,0.0,0.0,0.0,0.0,0.0,0.0,0.0,0.0,0.0,0.0,0.0,0.0,0.0,0.0,0.0,0.0,0.0,0.0,0.0,0.0,0.0,0.0,0.0,0.0,0.0,0.0,0.0,0.0,0.0,0.0,0.0,0.0,0.0,0.0,0.0,0.0,0.0,0.0,0.0,0.0,0.0,0.3333,0.4763,0.5331,0.5788,0.0,0.0,0.586,0.4852,0.3921,0.3268,0.3216,0.0,0.0,0.0,0.0,0.0,0.0,0.0,0.0,0.0,0.0,0.0,0.0,0.0,0.0,0.0,0.0,0.0,0.0,0.0,0.0,0.0,0.0,0.0,0.0,0.0,0.0,0.0,0.0,0.0,0.0,0.0,0.0,0.0,0.0,0.0,0.0,0.0,0.0,0.0,0.0,0.0,0.0,0.0,0.0,0.0,0.0,0.0,0.0,0.0,0.0,0.0,0.0,0.0,0.3208,0.3347,0.4216,0.4739,0.4955,0.521,0.5366,0.543,0.5287,0.503,0.0,0.0,0.0,0.0,0.0,0.0,0.0,0.0,0.0,0.0,0.0,0.0,0.0,0.0,0.0,0.0,0.0,0.0,0.0,0.0,0.0,0.0,0.0,0.0,0.0,0.0,0.0,0.0,0.0,0.0,0.0,0.0,0.0,0.0,0.0,0.0,0.0,0.0,0.0,0.0,0.0,0.3275,0.4864,0.5387,0.0,0.0,0.6018,0.5801,0.5585,0.4803,0.3989,0.3322,0.3263,0.0,0.0,0.0,0.0,0.0,0.0,0.0,0.0,0.0,0.0,0.0,0.0,0.0,0.0,0.0,0.0,0.0,0.0,0.0,0.0,0.0,0.0,0.0,0.0,0.0,0.0,0.0,0.0,0.0,0.0,0.0,0.0,0.0,0.0,0.0,0.0,0.0,0.0,0.0,0.0,0.0,0.0,0.0,0.0,0.0,0.0,0.0,0.0,0.0,0.0,0.0,0.0,0.3546,0.3639,0.4409,0.4935,0.5185,0.5289,0.5436,0.5614,0.5344,0.5049,0.0,0.0,0.0,0.0,0.0,0.0,0.0,0.0,0.0,0.0,0.0,0.0,0.0,0.0,0.0,0.0,0.0,0.0,0.0,0.0,0.0,0.0,0.0,0.0,0.0,0.0,0.0,0.0,0.0,0.0,0.0,0.0,0.0,0.0,0.0,0.0,0.0,0.0,0.0,0.0,0.0,0.3213,0.4855,0.5272,0.5454,0.5706,0.5574,0.5509,0.5695,0.5337,0.4672,0.3555,0.0,0.0,0.0,0.0,0.0,0.0,0.0,0.0,0.0,0.0,0.0,0.0,0.0,0.0,0.0,0.0,0.0,0.0,0.0,0.0,0.0,0.0,0.0,0.0,0.0,0.0,0.0,0.2606,0.0,0.0,0.2614,0.0,0.0,0.0,0.0,0.0,0.0,0.0,0.0,0.0,0.0,0.0,0.0,0.0,0.0,0.0,0.0,0.0,0.0,0.0,0.0,0.0,0.0,0.3663,0.3992,0.4542,0.5005,0.5374,0.5594,0.5627,0.5519,0.5554,0.5386,0.5001,0.0,0.0,0.0,0.0,0.0,0.0,0.0,0.0,0.0,0.0,0.0,0.0,0.0,0.0,0.0,0.0,0.0,0.0,0.0,0.0,0.0,0.0,0.0,0.0,0.0,0.0,0.0,0.0,0.0,0.0,0.0,0.0,0.0,0.0,0.0,0.0,0.0,0.0,0.0,0.3645,0.321,0.4865,0.5098,0.5137,0.5146,0.5127,0.5117,0.5137,0.5365,0.5174,0.0,0.0,0.0,0.0,0.0,0.0,0.0,0.0,0.0,0.0,0.0,0.0,0.0,0.0,0.0,0.0,0.0,0.0,0.0,0.0,0.0,0.0,0.0,0.0,0.0,0.0,0.0,0.4556,0.4065,0.0,0.0,0.0,0.0,0.0,0.0,0.0,0.0,0.0,0.0,0.0,0.5605,0.5699,0.0,0.0,0.0,0.0,0.0,0.0,0.0,0.0,0.0,0.0,0.0,0.0,0.398,0.4282,0.5008,0.5371,0.5338,0.5579,0.57,0.571,0.5764,0.5567,0.5078,0.0,0.0,0.0,0.0,0.0,0.0,0.0,0.0,0.0,0.0,0.0,0.0,0.0,0.0,0.0,0.0,0.0,0.0,0.0,0.0,0.0,0.0,0.0,0.0,0.0,0.0,0.0,0.0,0.0,0.0,0.0,0.0,0.0,0.0,0.0,0.0,0.0,0.3874,0.4962,0.4621,0.4457,0.5039,0.5098,0.5098,0.0,0.0,0.0,0.0,0.0,0.0,0.0,0.0,0.0,0.0,0.0,0.0,0.0,0.0,0.503,0.3077,0.3494,0.3832,0.288,0.0,0.0,0.0,0.0,0.0,0.0,0.0,0.0,0.0,0.0,0.0,0.0,0.0,0.0,0.5621,0.0,0.499,0.0,0.0,0.0,0.0,0.0,0.0,0.0,0.0,0.658,0.674,0.6653,0.6653,0.6479,0.0,0.6147,0.5725,0.0,0.0,0.0,0.0,0.0,0.0,0.0,0.0,0.4429,0.4737,0.5487,0.5725,0.5467,0.5594,0.5711,0.5763,0.575,0.5481,0.498,0.407,0.3448,0.0,0.0,0.0,0.0,0.0,0.0,0.0,0.0,0.0,0.0,0.0,0.0,0.0,0.0,0.0,0.0,0.0,0.0,0.0,0.0,0.0,0.0,0.0,0.0,0.0,0.0,0.0,0.0,0.0,0.0,0.0,0.0,0.0,0.2676,0.3441,0.4305,0.5001,0.5098,0.5098,0.5098,0.0,0.0,0.0,0.0,0.0,0.0,0.0,0.4923,0.4403,0.482,0.5367,0.5789,0.452,0.3483,0.3516,0.0,0.0,0.309,0.3477,0.3877,0.3246,0.2839,0.2749,0.3226,0.2944,0.2747,0.0,0.0,0.0,0.0,0.0,0.0,0.0,0.0,0.6647,0.6519,0.0,0.5919,0.0,0.0,0.0,0.0,0.0,0.6346,0.0,0.0,0.759,0.7762,0.7504,0.7513,0.7343,0.704,0.6999,0.6853,0.6513,0.517,0.0,0.0,0.0,0.0,0.0,0.0,0.4988,0.5291,0.59,0.6043,0.5738,0.5714,0.5725,0.5708,0.5504,0.5201,0.4764,0.4465,0.3944,0.3197,0.2981,0.0,0.0,0.0,0.0,0.0,0.0,0.0,0.0,0.0,0.0,0.0,0.0,0.0,0.0,0.0,0.0,0.0,0.0,0.0,0.0,0.0027,0.0,0.0,0.0,0.0,0.0,0.0,0.0,0.0,0.0,0.0,0.2705,0.3624,0.4531,0.5117,0.0,0.0,0.0,0.0,0.5098,0.5098,0.5839,0.6111,0.5331,0.5146,0.5117,0.5127,0.0,0.0,0.5528,0.53,0.5049,0.5078,0.5088,0.4582,0.3022,0.2725,0.2674,0.2696,0.2711,0.2788,0.31,0.3019,0.2755,0.9406,0.0,0.0,0.0,0.0,0.8297,0.813,0.7886,0.7893,0.7839,0.7725,0.7209,0.0,0.0,0.0,0.0,0.0,0.0,0.7381,0.7652,0.7826,0.7859,0.7796,0.7796,0.7732,0.7646,0.7646,0.7379,0.6873,0.6454,0.5894,0.5233,0.0,0.0,0.0,0.0,0.5488,0.5618,0.6184,0.6338,0.6075,0.6068,0.5992,0.5834,0.5601,0.5489,0.554,0.4736,0.4238,0.4096,0.32,0.0,0.0,0.0,0.0,0.0,0.0,0.0,0.0,0.0,0.0,0.0,0.0,0.0,0.0,0.0,0.0,0.0,0.0,0.0,0.1738,0.0739,0.0,0.0,0.0,0.0,0.0,0.0,0.0,0.0,0.0,0.0,0.2769,0.3936,0.538,0.0,0.0,0.5098,0.5098,0.5098,0.5098,0.5098,0.5839,0.0,0.6911,0.5904,0.5253,0.5673,0.539,0.5146,0.5224,0.5175,0.5098,0.5098,0.5098,0.4914,0.4464,0.3389,0.2902,0.3346,0.3529,0.3558,0.3673,0.3745,0.3761,1.0641,0.9826,0.9599,0.9432,0.9332,0.9325,0.9158,0.8918,0.8925,0.8918,0.8891,0.8409,0.811,0.8007,0.7712,0.0,0.0,0.0,0.8096,0.8258,0.8252,0.8252,0.8252,0.8277,0.8192,0.811,0.8103,0.7832,0.7366,0.7359,0.71,0.6553,0.0,0.0,0.5672,0.5936,0.6059,0.6079,0.652,0.664,0.6371,0.6142,0.6037,0.597,0.5584,0.5435,0.5535,0.4814,0.4352,0.4222,0.3591,0.3119,0.0,0.0,0.0,0.0,0.0,0.0,0.0,0.0,0.0,0.0,0.0,0.0,0.0,0.0,0.0,0.0,0.086,0.1755,0.2528,0.1654,0.0,0.0,0.0,0.0,0.0,0.0,0.0,0.5049,0.4806,0.4357,0.3707,0.4739,0.6055,0.7333,0.6427,0.5604,0.5603,0.0,0.6139,0.6117,0.647,0.6938,0.7584,0.683,0.6267,0.6618,0.608,0.5467,0.5137,0.5098,0.5098,0.5098,0.5098,0.5098,0.5098,0.4251,0.3604,0.3862,0.4166,0.4305,0.4107,0.4186,0.4303,1.1557,1.1483,1.0988,1.0573,1.0197,1.019,1.004,0.9753,0.9782,0.9769,0.9699,0.9377,0.9098,0.8858,0.8603,0.0,0.8878,0.8871,0.8845,0.8878,0.8878,0.8851,0.8871,0.8851,0.8697,0.8476,0.8449,0.8257,0.7945,0.7945,0.7925,0.7872,0.684,0.6324,0.6317,0.6526,0.6627,0.6627,0.686,0.6853,0.6613,0.61,0.5917,0.605,0.5518,0.5131,0.4995,0.4744,0.4368,0.388,0.4035,0.3723,0.2848,0.0,0.0,0.0,0.0,0.0,0.0,0.0,0.0,0.0,0.0,0.0,0.0,0.0,0.0,0.0,0.2235,0.0,0.2841,0.2803,0.0,0.0,0.0,0.2788,0.2788,0.4156,0.5098,0.5098,0.0,0.0,0.5292,0.5917,0.6506,0.6987,0.6705,0.6467,0.6467,0.7073,0.7622,0.7497,0.7281,0.7225,0.7495,0.7555,0.754,0.7559,0.7037,0.6228,0.5428,0.5117,0.5108,0.5098,0.5098,0.5098,0.5098,0.502,0.4874,0.4139,0.4571,0.4932,0.4501,0.4395,0.4541,1.2652,1.2455,1.2321,1.1797,1.1122,1.1082,1.0828,1.0392,1.0385,1.0227,0.9993,0.9699,0.9539,0.9487,0.9138,0.9198,0.9507,0.9501,0.9479,0.9507,0.9472,0.9507,0.9466,0.9217,0.9071,0.8998,0.8811,0.8576,0.8308,0.8295,0.815,0.7899,0.7619,0.7388,0.7197,0.6994,0.6893,0.6914,0.6966,0.688,0.6613,0.6258,0.6016,0.5793,0.5454,0.5142,0.485,0.4688,0.4497,0.4252,0.3834,0.3805,0.4237,0.3185,0.0,0.0,0.0,0.0,0.0,0.0,0.0,0.0,0.0,0.0555,0.1892,0.0,0.2844,0.0,0.2516,0.3286,0.4395,0.4504,0.0,0.0,0.4504,0.4496,0.4506,0.4864,0.5098,0.5098,0.5098,0.5613,0.693,0.6847,0.6444,0.5874,0.6481,0.7012,0.7022,0.6995,0.7008,0.6969,0.6612,0.6467,0.6945,0.7401,0.7681,0.7695,0.7511,0.7092,0.6226,0.5536,0.5098,0.5098,0.5098,0.5098,0.5098,0.5098,0.5049,0.4855,0.4981,0.5059,0.4942,0.4894,0.4933,1.3106,1.2978,1.2844,1.2502,1.1997,1.1737,1.1369,1.0949,1.0975,1.0848,1.0688,1.0388,1.0298,1.0278,0.996,0.992,1.009,0.9933,0.988,0.9873,0.9769,0.9715,0.9708,0.9512,0.9404,0.9432,0.9118,0.8891,0.8758,0.8631,0.8484,0.8298,0.819,0.8036,0.7886,0.7457,0.7154,0.7,0.6993,0.6926,0.6774,0.6392,0.6115,0.5923,0.5521,0.5159,0.4806,0.4767,0.4662,0.4509,0.4079,0.4019,0.4406,0.3599,0.2859,0.0,0.0,0.0,0.0,0.0,0.0,0.0,0.0,0.0,0.0,0.0,0.3716,0.3714,0.3714,0.4088,0.501,0.5098,0.5098,0.5098,0.5098,0.5098,0.5098,0.5647,0.5995,0.5881,0.5869,0.621,0.7148,0.6742,0.6106,0.5388,0.5921,0.6443,0.6595,0.636,0.6137,0.6129,0.5889,0.5936,0.6551,0.7125,0.7471,0.7495,0.7608,0.752,0.7014,0.5936,0.5098,0.5098,0.5098,0.5098,0.5098,0.5098,0.5078,0.5049,0.5001,0.5001,0.5078,0.5059,0.5039,1.3293,1.324,1.2973,1.2878,1.2804,1.2295,1.183,1.1449,1.1483,1.1422,1.1375,1.1156,1.1049,1.1029,1.0814,1.068,1.0633,1.0341,1.0177,1.016,0.9913,0.9822,0.9793,0.976,0.974,0.9719,0.9411,0.9244,0.9204,0.8958,0.8818,0.8804,0.8583,0.8435,0.8382,0.7866,0.7424,0.7006,0.6993,0.6993,0.6993,0.6479,0.6196,0.6169,0.5625,0.5137,0.4813,0.4858,0.4794,0.458,0.4482,0.4282,0.399,0.398,0.353,0.0,0.364,0.0,0.0,0.0,0.0,0.0,0.0,0.0,0.0,0.4154,0.5098,0.5098,0.5098,0.5185,0.5419,0.5438,0.5428,0.5438,0.5428,0.5427,0.5496,0.646,0.7011,0.6666,0.6614,0.6614,0.6575,0.6098,0.5624,0.5363,0.5356,0.5538,0.5796,0.5601,0.5388,0.5309,0.5309,0.5592,0.6206,0.6717,0.7032,0.7068,0.7353,0.7613,0.7574,0.6368,0.535,0.5332,0.517,0.5068,0.5194,0.5205,0.5098,0.5065,0.4877,0.4754,0.4971,0.501,0.4911,1.3788,1.352,1.3453,1.33,1.312,1.3006,1.2512,1.1819,1.1784,1.165,1.1389,1.1335,1.1343,1.1309,1.1255,1.1129,1.0909,1.0848,1.0701,1.0506,1.0452,1.0432,1.0412,1.0147,1.0033,0.999,0.974,0.9472,0.9176,0.9158,0.9011,0.8785,0.8751,0.8611,0.8409,0.0,0.0,0.0,0.6993,0.6993,0.698,0.6472,0.6196,0.6182,0.5625,0.0,0.4813,0.4829,0.4703,0.4462,0.4511,0.0,0.0,0.0,0.0,0.0,0.0,0.0,0.0,0.0,0.0,0.0,0.3367,0.345,0.3845,0.463,0.5098,0.5098,0.5098,0.5691,0.7059,0.7209,0.7209,0.7209,0.7199,0.7209,0.7201,0.7021,0.6551,0.5686,0.5577,0.5592,0.5608,0.5467,0.5372,0.5309,0.5309,0.5331,0.5435,0.5372,0.5309,0.5309,0.5309,0.5372,0.5578,0.5967,0.6275,0.6374,0.6882,0.724,0.7204,0.6854,0.644,0.6371,0.5474,0.4966,0.5842,0.5561,0.5161,0.5288,0.4707,0.4311,0.4814,0.4834,0.4715,1.4001,0.0,1.3666,1.352,0.0,1.3273,1.2953,1.2525,1.2402,1.2167,1.185,1.1703,1.1643,1.1637,1.149,1.1343,1.1176,1.1202,1.1049,1.0814,1.0807,1.0734,1.0586,1.0408,1.0327,1.0352,1.004,0.982,0.9637,0.9357,0.9138,0.8991,0.8878,0.8738,0.8591,0.8444,0.802,0.7248,0.7101,0.6993,0.698,0.6613,0.6385,0.6398,0.5798,0.0,0.0,0.0,0.0,0.0,0.0,0.0,0.0,0.0,0.0,0.4219,0.4024,0.3903,0.3882,0.432,0.4831,0.5277,0.4755,0.4434,0.4548,0.4718,0.5019,0.5491,0.5777,0.6298,0.7143,0.7277,0.7268,0.7238,0.7253,0.7238,0.7193,0.6688,0.6067,0.5451,0.5309,0.5309,0.5309,0.5309,0.5309,0.5309,0.5309,0.5316,0.5309,0.5309,0.5309,0.5309,0.5309,0.5309,0.5356,0.5491,0.5749,0.5936,0.6321,0.6557,0.6611,0.6299,0.606,0.6014,0.5399,0.5241,0.6077,0.5883,0.5386,0.5203,0.4746,0.4371,0.4552,0.4515,0.4515,1.4088,1.4068,1.3821,1.368,1.366,1.346,1.3333,1.326,0.0,0.0,0.0,1.2051,1.198,1.1931,1.169,1.1522,1.1503,1.1503,1.1323,1.1002,1.0995,1.0874,1.0593,1.0586,1.0586,1.0579,1.0307,1.0167,1.007,0.9597,0.9283,0.9198,0.8971,0.8864,0.8791,0.8543,0.8127,0.7607,0.7248,0.7053,0.7,0.674,0.6587,0.6587,0.6072,0.5785,0.5792,0.5564,0.5454,0.5463,0.5303,0.5364,0.5735,0.5826,0.5629,0.5057,0.4868,0.441,0.356,0.5044,0.6158,0.651,0.5764,0.5207,0.4986,0.4782,0.496,0.5746,0.6242,0.6529,0.6544,0.6537,0.6529,0.6529,0.6529,0.6596,0.6771,0.6363,0.5965,0.5658,0.5662,0.5608,0.5655,0.5554,0.541,0.5336,0.5309,0.5437,0.5537,0.5454,0.5353,0.549,0.543,0.5313,0.536,0.5336,0.5426,0.5671,0.5811,0.5874,0.5819,0.5561,0.5347,0.5514,0.5419,0.5721,0.6191,0.596,0.5583,0.5151,0.4885,0.4658,0.4414,0.4351,0.4416,1.4088,1.4082,1.4041,1.4021,1.4021,1.3981,1.3821,1.35,1.2993,1.2616,1.2298,1.2258,1.2245,1.2238,1.2191,1.2044,1.1846,1.1839,1.1551,1.1002,1.0995,1.0835,1.0593,1.0586,1.0586,1.0586,1.0546,1.0367,1.0097,1.0033,0.9717,0.9264,0.9171,0.9018,0.8804,0.8524,0.8203,0.7839,0.7578,0.7275,0.7006,0.674,0.6587,0.658,0.6291,0.6129,0.6135,0.6088,0.6068,0.6068,0.6041,0.5885,0.5591,0.596,0.599,0.5458,0.5274,0.4994,0.4535,0.5174,0.5562,0.5506,0.5372,0.5291,0.5241,0.5198,0.5146,0.5096,0.5392,0.5498,0.5514,0.5545,0.5577,0.5559,0.5528,0.5895,0.6836,0.6867,0.676,0.6667,0.676,0.6707,0.6613,0.6332,0.5894,0.5477,0.5497,0.5668,0.6337,0.5905,0.5588,0.5867,0.5631,0.5447,0.5538,0.5424,0.5383,0.5347,0.5419,0.5451,0.5467,0.5379,0.541,0.5693,0.599,0.6122,0.6029,0.5624,0.5439,0.531,0.515,0.4951,0.4863,0.4747,0.4578,1.4088,1.4088,1.4088,1.4088,1.4088,1.4088,1.3915,1.3586,1.332,1.2973,1.2545,1.2371,1.2305,1.2305,1.2305,1.2231,1.2104,1.2104,1.1784,1.1249,1.1229,1.0989,1.062,1.0586,1.0586,1.0586,1.0586,1.0519,1.0354,1.0194,0.99,0.9486,0.9138,0.8938,0.8811,0.8677,0.8383,0.7912,0.7645,0.7321,0.7006,0.6894,0.6807,0.682,0.6559,0.6431,0.6412,0.6277,0.6196,0.6196,0.6133,0.6024,0.5889,0.597,0.5982,0.5882,0.5516,0.5226,0.5043,0.5254,0.5355,0.5304,0.5309,0.5309,0.5309,0.5309,0.5241,0.5152,0.5245,0.5309,0.5309,0.5309,0.5309,0.5309,0.5842,0.6433,0.6873,0.6993,0.6993,0.6993,0.6993,0.6993,0.6993,0.6787,0.656,0.6259,0.6219,0.6518,0.7286,0.7182,0.6851,0.6664,0.6374,0.6054,0.5774,0.5553,0.5431,0.5412,0.534,0.5309,0.5309,0.5309,0.5514,0.5998,0.6567,0.6764,0.6307,0.585,0.5634,0.5544,0.5515,0.5411,0.5262,0.4957,0.4609,1.4148,1.4088,1.4088,1.4088,1.4088,1.4088,1.3955,1.3706,1.3626,1.334,1.2939,1.2565,1.2365,1.2305,1.2305,1.2305,1.2305,1.2305,1.1984,1.1463,1.143,1.1116,1.064,1.0586,1.0586,1.0586,1.0586,1.0586,1.0559,1.0358,1.0033,0.9659,0.9098,0.8778,0.8778,0.8778,0.855,0.8025,0.7729,0.741,0.7013,0.6993,0.6993,0.698,0.6787,0.6693,0.6673,0.6486,0.6391,0.6358,0.6268,0.6255,0.635,0.6191,0.6135,0.6219,0.5903,0.5568,0.5336,0.5309,0.5309,0.5309,0.5309,0.5376,0.5474,0.5367,0.534,0.54,0.5356,0.5394,0.5682,0.5729,0.5688,0.5749,0.6434,0.6926,0.6993,0.6993,0.6993,0.6993,0.6993,0.6993,0.6993,0.6993,0.696,0.694,0.6993,0.7217,0.7774,0.8394,0.8419,0.769,0.7203,0.6713,0.6037,0.579,0.5704,0.5682,0.5501,0.5417,0.5379,0.534,0.5514,0.606,0.6839,0.7119,0.6734,0.6383,0.6089,0.5963,0.5973,0.5975,0.5864,0.5711,0.5115,1.4322,1.4102,1.4088,1.4088,1.4088,1.4088,1.4062,1.4008,1.372,1.358,1.3433,1.2991,1.2596,1.2325,1.2311,1.2305,1.2305,1.2305,1.1991,1.1449,1.143,1.1116,1.0633,1.0593,1.0586,1.0586,1.0586,1.0586,1.0586,1.0533,1.0258,0.9708,0.9098,0.8778,0.8778,0.8778,0.8651,0.8362,0.8043,0.7586,0.7033,0.6993,0.6993,0.6993,0.6973,0.696,0.694,0.694,0.6913,0.692,0.6886,0.6893,0.6893,0.6894,0.676,0.6518,0.668,0.642,0.5434,0.5309,0.5363,0.5309,0.5369,0.5591,0.6028,0.5621,0.5461,0.5712,0.5531,0.5792,0.668,0.678,0.672,0.6673,0.6873,0.6993,0.6993,0.6993,0.6993,0.6993,0.6993,0.6993,0.6993,0.6993,0.6993,0.6993,0.6993,0.728,0.8098,0.9108,0.9547,0.8736,0.7855,0.699,0.6539,0.6306,0.6162,0.6164,0.5852,0.5659,0.5592,0.5435,0.5419,0.5796,0.633,0.6764,0.7011,0.6987,0.676,0.645,0.6485,0.6659,0.6857,0.7012,0.6596,1.4449,1.4329,1.4155,1.4088,1.4088,1.4088,1.4088,1.4068,1.3961,1.3766,1.3567,1.32,1.2852,1.2589,1.2378,1.2305,1.2305,1.2305,1.2084,1.169,1.151,1.1209,1.0835,1.0667,1.0586,1.0586,1.0586,1.0586,1.0533,1.0244,0.995,0.9646,0.9092,0.8778,0.8778,0.8778,0.8664,0.8402,0.8257,0.7903,0.7341,0.7086,0.6993,0.6993,0.6993,0.6993,0.6993,0.6993,0.6993,0.6993,0.6993,0.6993,0.6993,0.6993,0.6954,0.6807,0.6934,0.6487,0.5387,0.5905,0.6313,0.6306,0.6306,0.642,0.6633,0.644,0.6325,0.625,0.6266,0.654,0.6926,0.6993,0.6993,0.6993,0.6993,0.6993,0.6993,0.6993,0.6993,0.6993,0.6993,0.6993,0.6993,0.6993,0.6993,0.6993,0.6993,0.7301,0.7933,0.8866,0.9297,0.9016,0.839,0.7721,0.7045,0.6803,0.6611,0.639,0.6275,0.6214,0.6052,0.557,0.5356,0.5529,0.5842,0.626,0.6665,0.7086,0.719,0.6912,0.6972,0.7181,0.7333,0.7549,0.7227,1.4656,1.4482,1.4208,1.4088,1.4088,1.4088,1.4088,1.4088,1.4088,1.3961,1.3693,1.338,1.3086,1.2878,1.2478,1.2305,1.2305,1.2305,1.2144,1.187,1.1643,1.1349,1.0995,1.0821,1.0667,1.0606,1.0586,1.0586,1.0533,1.0097,0.9796,0.9619,0.9178,0.8858,0.8785,0.8778,0.8704,0.8536,0.8424,0.8174,0.7745,0.7341,0.7108,0.7013,0.6993,0.6993,0.6993,0.6993,0.6993,0.6993,0.6993,0.6993,0.6993,0.6993,0.6993,0.6993,0.6993,0.6647,0.5829,0.6546,0.6993,0.6993,0.6993,0.6993,0.6993,0.6993,0.688,0.6693,0.686,0.6966,0.6993,0.6993,0.6993,0.6993,0.6993,0.6993,0.6993,0.6993,0.6993,0.6993,0.6993,0.6993,0.7014,0.7105,0.7168,0.7021,0.6993,0.7084,0.7475,0.8049,0.8492,0.8793,0.8874,0.8472,0.7404,0.7124,0.6951,0.6734,0.6647,0.652,0.6589,0.6037,0.5592,0.5842,0.5646,0.5655,0.6191,0.6725,0.7303,0.7125,0.7214,0.748,0.7558,0.7676,0.769,1.503,1.4459,1.4208,1.4095,1.4088,1.4088,1.4088,1.4088,1.4088,1.4075,1.3975,1.3474,1.3206,1.3126,1.2579,1.2305,1.2305,1.2305,1.2158,1.1946,1.1886,1.1578,1.1015,1.0969,1.0861,1.064,1.06,1.0586,1.0566,1.0241,0.9953,0.9673,0.9317,0.9044,0.8818,0.8778,0.8771,0.8738,0.8549,0.8375,0.8275,0.7789,0.735,0.706,0.7,0.6993,0.6993,0.6993,0.6993,0.6993,0.6993,0.6993,0.6993,0.6993,0.6993,0.6993,0.6993,0.698,0.688,0.694,0.6993,0.6993,0.6993,0.6993,0.6993,0.6993,0.6973,0.696,0.6966,0.6993,0.6993,0.6993,0.6993,0.7,0.7021,0.7021,0.707,0.7147,0.7014,0.7063,0.7042,0.7,0.7021,0.7412,0.7405,0.7175,0.7021,0.7105,0.7231,0.7252,0.7648,0.8378,0.8943,0.9105,0.775,0.7441,0.7385,0.7161,0.6866,0.6598,0.6705,0.6732,0.6517,0.6276,0.6307,0.6237,0.6037,0.6283,0.6861,0.7101,0.7421,0.7637,0.7661,0.7666,0.7695,1.505,1.4472,1.4416,1.4262,1.4088,1.4088,1.4088,1.4088,1.4088,1.4088,1.4021,1.3661,1.3347,1.3186,1.2811,1.2516,1.2318,1.2305,1.2245,1.2131,1.1993,1.1792,1.1578,1.1182,1.0988,1.0868,1.0687,1.0586,1.0559,1.0261,0.9967,0.9679,0.9385,0.9064,0.8831,0.8778,0.8778,0.8798,0.8697,0.8564,0.8409,0.8181,0.7839,0.735,0.7121,0.6993,0.6993,0.6993,0.6993,0.6993,0.6993,0.6993,0.6993,0.6993,0.6993,0.6993,0.6993,0.6993,0.6993,0.6993,0.6993,0.6993,0.6993,0.6993,0.6993,0.6993,0.6993,0.6993,0.6993,0.6993,0.6993,0.6993,0.6993,0.7021,0.7259,0.7579,0.7829,0.7912,0.7891,0.7801,0.7426,0.6993,0.7126,0.7655,0.7891,0.7426,0.7614,0.7842,0.7891,0.7904,0.8077,0.8345,0.8753,0.8935,0.8622,0.8059,0.7792,0.753,0.7295,0.7277,0.7341,0.8403,0.8531,0.753,0.7315,0.7023,0.6855,0.674,0.7153,0.7329,0.765,0.7758,0.7695,0.7695,0.7695,1.5164,1.4803,1.4552,1.4409,1.4229,1.4122,1.4088,1.4088,1.4088,1.4088,1.4035,1.3774,1.3493,1.33,1.2971,1.2683,1.2445,1.2358,1.2305,1.2291,1.2098,1.1993,1.1852,1.1497,1.1203,1.1002,1.0734,1.0586,1.0573,1.0354,1.0114,0.9826,0.9497,0.9232,0.8985,0.8858,0.8778,0.8778,0.8778,0.8704,0.8524,0.8442,0.8221,0.7799,0.7402,0.7126,0.7006,0.6993,0.6993,0.6993,0.6993,0.6993,0.6993,0.6993,0.6993,0.6993,0.6993,0.6993,0.6993,0.6993,0.6993,0.6993,0.6993,0.6993,0.6993,0.6993,0.6993,0.6993,0.6993,0.6993,0.6993,0.6993,0.6993,0.7084,0.7558,0.8221,0.8895,0.9016,0.8874,0.8488,0.7635,0.7105,0.7084,0.7697,0.7767,0.7349,0.7995,0.861,0.8955,0.9016,0.8854,0.8659,0.859,0.8671,0.8692,0.8553,0.8564,0.8359,0.798,0.7941,0.8205,0.9435,0.9866,0.8899,0.8313,0.7939,0.7662,0.7483,0.7509,0.7656,0.7823,0.8002,0.7876,0.7695,0.7695,1.5398,1.5277,1.4776,1.4543,1.4456,1.4229,1.4102,1.4088,1.4088,1.4088,1.4048,1.3788,1.362,1.3473,1.308,1.2811,1.2703,1.2458,1.2331,1.2298,1.2278,1.2138,1.1946,1.1859,1.1517,1.0995,1.0727,1.0593,1.0586,1.0553,1.0399,1.0094,0.9786,0.9479,0.9198,0.8924,0.8778,0.8778,0.8778,0.8798,0.8771,0.8569,0.8409,0.8295,0.7882,0.7466,0.7073,0.7013,0.7013,0.7033,0.7006,0.7,0.6993,0.6993,0.6993,0.6993,0.6993,0.6993,0.6993,0.6993,0.6993,0.6993,0.6993,0.6993,0.6993,0.6993,0.6993,0.6993,0.6993,0.6993,0.6993,0.6993,0.6993,0.7084,0.7759,0.8785,0.9824,1.0293,0.9961,0.9102,0.7931,0.7126,0.7154,0.7715,0.7842,0.7475,0.8103,0.9148,0.9745,0.9932,0.9804,0.9197,0.8834,0.8744,0.8895,0.9036,0.9228,0.9279,0.8849,0.8631,0.8712,0.954,1.0137,0.9539,0.951,0.9153,0.8566,0.8359,0.8038,0.8114,0.8226,0.8232,0.8047,0.7866,0.7715,1.5578,1.5384,1.5204,1.4883,1.4536,1.4422,1.4282,1.4095,1.4088,1.4088,1.4068,1.3995,1.38,1.3606,1.3427,1.3133,1.2797,1.2677,1.2543,1.2338,1.2311,1.2258,1.2144,1.1964,1.1557,1.1062,1.0727,1.0593,1.0593,1.0586,1.0408,1.0114,0.9833,0.9539,0.9224,0.8938,0.8778,0.8778,0.8778,0.8778,0.8804,0.8717,0.8603,0.8429,0.8422,0.8196,0.7652,0.7226,0.7134,0.7323,0.7113,0.6993,0.6993,0.6993,0.6993,0.6993,0.6993,0.6993,0.6993,0.6993,0.6993,0.6993,0.6993,0.6993,0.6993,0.6993,0.6993,0.6993,0.6993,0.6993,0.6993,0.6993,0.7095,0.7,0.7842,0.894,1.0296,1.1338,1.1159,0.9724,0.8582,0.8036,0.8143,0.8629,0.8576,0.7525,0.8152,0.9079,0.9739,1.0165,1.0117,0.9574,0.9257,0.9296,0.9819,0.9856,0.9636,0.9864,0.9692,0.9246,0.9339,0.9518,1.0059,1.0322,1.0322,1.0108,0.9543,0.9129,0.8762,0.855,0.8602,0.848,0.8232,0.8018,0.7783,1.5725,1.5551,1.5444,1.513,1.4683,1.4576,1.4355,1.4108,1.4088,1.4088,1.4088,1.4088,1.3988,1.3808,1.3653,1.3434,1.3073,1.2904,1.2683,1.2458,1.2331,1.2305,1.2265,1.204,1.163,1.1182,1.0894,1.0693,1.0593,1.0579,1.0499,1.0261,0.9987,0.9699,0.9377,0.9091,0.8904,0.8805,0.8778,0.8778,0.8778,0.8778,0.8717,0.8591,0.8711,0.8611,0.8212,0.7789,0.7529,0.7466,0.7181,0.7006,0.6993,0.6993,0.6993,0.6993,0.6993,0.6993,0.6993,0.6993,0.6993,0.6993,0.6993,0.6993,0.6993,0.6993,0.6993,0.6993,0.7168,0.7773,0.889,0.8588,0.8361,0.8323,0.8318,0.9303,1.0887,1.221,1.2342,1.1164,1.0474,1.014,1.0237,0.9927,0.9948,0.8904,0.8613,0.906,0.9692,1.0175,1.0088,1.014,1.0246,1.0524,1.1072,1.0757,1.0115,1.0295,1.0494,1.0044,0.9843,0.9961,1.0322,1.0322,1.0322,1.0322,0.9857,0.9589,0.9284,0.918,0.903,0.8882,0.8655,0.8022,0.7744,1.5825,1.5792,1.5545,1.5244,1.4923,1.4676,1.4389,1.4108,1.4088,1.4088,1.4088,1.4088,1.4082,1.4008,1.3814,1.3593,1.3467,1.3092,1.2777,1.265,1.2432,1.2305,1.2265,1.204,1.169,1.1349,1.1096,1.0828,1.06,1.0586,1.0586,1.0526,1.0221,0.9953,0.9633,0.9351,0.9044,0.8811,0.8778,0.8778,0.8778,0.8778,0.8771,0.8778,0.8791,0.8778,0.8677,0.8547,0.8153,0.7549,0.7236,0.7149,0.7047,0.702,0.7106,0.704,0.702,0.7068,0.7026,0.6993,0.6993,0.6993,0.6993,0.6993,0.6993,0.6993,0.6993,0.7034,0.7638,0.9244,1.148,1.1376,1.0606,1.0456,0.9777,1.037,1.2378,1.2876,1.2681,1.272,1.2832,1.2798,1.2416,1.1686,1.1238,1.0841,0.9835,0.9715,1.0043,1.0426,1.0398,1.0676,1.1106,1.1521,1.1982,1.1266,1.0679,1.0732,1.1006,1.0846,1.0272,1.0244,1.0322,1.0322,1.0322,1.0322,1.0244,0.9934,0.9779,0.967,0.9533,0.9406,0.9065,0.8538,0.8217,1.5825,1.5818,1.5745,1.5424,1.5035,1.4921,1.4556,1.4122,1.4088,1.4088,1.4088,1.4088,1.4088,1.4075,1.4001,1.3748,1.338,1.3166,1.2806,1.2458,1.2358,1.2305,1.2251,1.2047,1.1759,1.143,1.1162,1.0874,1.0606,1.06,1.0593,1.0579,1.0281,0.9987,0.9708,0.9406,0.9064,0.8818,0.8778,0.8778,0.8778,0.8778,0.8778,0.8778,0.8778,0.8804,0.883,0.9041,0.849,0.7313,0.7695,0.764,0.7174,0.7413,0.7473,0.7241,0.7606,0.7676,0.7205,0.7021,0.7,0.6993,0.7042,0.6993,0.6993,0.7006,0.7,0.7325,0.8571,1.0505,1.2322,1.248,1.22,1.2236,1.1672,1.1827,1.2619,1.2915,1.2915,1.2915,1.2915,1.2915,1.2759,1.2381,1.1923,1.1695,1.1047,1.0235,1.0598,1.054,1.0489,1.151,1.2068,1.2455,1.25,1.1777,1.1324,1.1242,1.1445,1.1663,1.0896,1.0283,1.0322,1.0322,1.0322,1.0322,1.0322,1.0176,1.0136,1.0029,1.0019,0.9863,0.9737,0.9377,0.918,1.5825,1.5825,1.5825,1.5565,1.515,1.5062,1.4696,1.4302,1.4135,1.4088,1.4088,1.4088,1.4088,1.4088,1.4082,1.3841,1.342,1.326,1.2946,1.2545,1.2371,1.2311,1.2265,1.2141,1.1933,1.1603,1.1309,1.1029,1.0801,1.066,1.0593,1.0566,1.0388,1.0154,0.988,0.9573,0.9251,0.8998,0.8858,0.8778,0.8778,0.8778,0.8778,0.8778,0.8804,0.8857,0.9086,0.9482,0.9231,0.8564,0.8479,0.8294,0.7826,0.7812,0.7852,0.7736,0.8266,0.8468,0.8359,0.7816,0.7391,0.7489,0.7426,0.7497,0.7701,0.7746,0.7746,0.798,0.9313,1.0604,1.1776,1.252,1.2856,1.2822,1.2915,1.2915,1.2915,1.2915,1.2915,1.2915,1.2915,1.2915,1.2915,1.2627,1.2505,1.2348,1.1983,1.1341,1.1015,1.0761,1.0735,1.1569,1.2406,1.2754,1.2866,1.2295,1.2021,1.1963,1.1943,1.2181,1.1359,1.0508,1.0322,1.0322,1.0322,1.0322,1.0322,1.0322,1.0263,1.0224,1.0312,1.0263,1.0088,0.9971,0.9814,1.5825,1.5825,1.5825,1.5658,1.5357,1.509,1.4776,1.4496,1.4208,1.4088,1.4088,1.4088,1.4088,1.4088,1.4082,1.3901,1.352,1.3307,1.2986,1.2652,1.2425,1.2305,1.2298,1.2278,1.2091,1.1817,1.1563,1.1222,1.0949,1.072,1.06,1.0579,1.0566,1.0388,1.0094,0.9833,0.9566,0.9198,0.8971,0.8838,0.8824,0.8778,0.8778,0.8778,0.8778,0.9035,0.9413,0.9913,1.0191,1.0295,0.9513,0.9031,0.8798,0.825,0.8337,0.8696,0.8947,0.9416,1.0203,0.9135,0.8435,0.8883,0.8573,0.8145,0.8593,0.8571,0.8674,0.8962,0.9313,1.002,1.1065,1.2132,1.2808,1.2915,1.2915,1.2915,1.2915,1.2915,1.2915,1.2915,1.2915,1.2915,1.2891,1.2832,1.2749,1.2676,1.2382,1.2026,1.1293,1.0659,1.0735,1.1175,1.2002,1.2856,1.2905,1.2837,1.2739,1.268,1.2578,1.2484,1.1604,1.086,1.0498,1.0322,1.0322,1.0322,1.0322,1.0322,1.0322,1.0322,1.0322,1.0322,1.0273,1.0205,1.0078,1.5825,1.5825,1.5825,1.5665,1.5371,1.5135,1.4796,1.4509,1.4215,1.4088,1.4088,1.4088,1.4088,1.4088,1.4062,1.3814,1.336,1.3186,1.2933,1.2425,1.2351,1.2305,1.2305,1.2305,1.2144,1.1877,1.157,1.1249,1.0995,1.0774,1.0586,1.0586,1.0573,1.0445,1.0154,1.004,0.9724,0.9304,0.9138,0.8991,0.8851,0.8785,0.8778,0.8778,0.8778,0.9054,0.9614,1.0261,1.0779,1.0864,1.0538,0.987,0.916,0.8916,0.9024,0.921,0.9383,1.0188,1.157,1.0868,1.0464,1.1397,1.0742,1.0021,0.8802,0.8857,0.9278,0.9695,0.9506,0.9673,1.0795,1.2141,1.27,1.2808,1.2881,1.2915,1.2915,1.2915,1.2915,1.2915,1.2915,1.2915,1.2915,1.2891,1.2856,1.2881,1.2735,1.2529,1.1769,1.0854,1.1091,1.1528,1.2051,1.2905,1.2915,1.2915,1.2915,1.2915,1.2915,1.2876,1.1985,1.1379,1.1046,1.0655,1.0322,1.0361,1.0479,1.0312,1.0312,1.0303,1.0342,1.0322,1.0322,1.0322,1.0322,1.5825,1.5825,1.5825,1.5745,1.5538,1.515,1.487,1.4656,1.4262,1.4088,1.4088,1.4088,1.4088,1.4088,1.4062,1.3768,1.3233,1.2886,1.2619,1.2345,1.2305,1.2305,1.2305,1.2298,1.2198,1.2011,1.1623,1.1309,1.1129,1.0795,1.0586,1.0586,1.0586,1.0526,1.0307,1.0194,0.9937,0.9637,0.9331,0.9124,0.9004,0.8871,0.8778,0.8778,0.8804,0.9054,0.9614,1.0364,1.0931,1.1284,1.1368,1.093,0.9932,0.9577,0.9439,0.9263,0.9666,1.0405,1.146,1.1927,1.1956,1.2783,1.2126,1.1032,0.9991,0.9584,0.9818,1.0084,0.961,0.9237,1.0087,1.1418,1.2076,1.2554,1.2793,1.29,1.2925,1.2915,1.2915,1.2915,1.2915,1.2915,1.2915,1.2935,1.2915,1.2891,1.2881,1.271,1.2735,1.1968,1.2017,1.2323,1.2578,1.2881,1.2915,1.2915,1.2915,1.2915,1.2915,1.2915,1.2563,1.2083,1.1682,1.1359,1.1076,1.0753,1.0802,1.0577,1.0518,1.0537,1.0567,1.041,1.0342,1.0361,1.0342,1.5825,1.5825,1.5825,1.5825,1.5732,1.5217,1.5008,1.4914,1.4342,1.4088,1.4088,1.4088,1.4088,1.4088,1.4088,1.3748,1.3186,1.2625,1.2331,1.2318,1.2305,1.2305,1.2305,1.2298,1.2291,1.2238,1.1784,1.151,1.1276,1.0915,1.068,1.0613,1.0586,1.0566,1.0512,1.0365,1.0147,0.995,0.963,0.9311,0.9184,0.9005,0.8871,0.8778,0.8804,0.9054,0.964,1.0338,1.1032,1.1528,1.2076,1.1902,1.1259,1.0336,0.964,0.9035,0.9536,1.0105,1.0973,1.1977,1.2783,1.2881,1.2505,1.1877,1.1116,1.0913,1.0989,1.059,1.0128,0.9374,0.9364,1.0107,1.1234,1.2052,1.2748,1.3237,1.3262,1.3277,1.3385,1.2935,1.3125,1.3281,1.3101,1.3013,1.2964,1.29,1.2925,1.2915,1.2915,1.2891,1.2735,1.2676,1.2832,1.2881,1.2915,1.2954,1.2954,1.2915,1.2915,1.2915,1.2915,1.2621,1.225,1.2259,1.2005,1.1663,1.1447,1.1467,1.1328,1.1053,1.0889,1.086,1.0694,1.0479,1.042,1.5825,1.5825,1.5825,1.5825,1.5738,1.5211,1.5015,1.4908,1.4342,1.4088,1.4088,1.4088,1.4088,1.4088,1.4088,1.3748,1.318,1.2639,1.2325,1.2311,1.2305,1.2305,1.2305,1.2305,1.2305,1.2218,1.1944,1.1697,1.1423,1.1089,1.0827,1.0646,1.0586,1.0586,1.0579,1.0519,1.0365,1.0187,0.993,0.967,0.9364,0.9198,0.9024,0.8865,0.8831,0.9108,0.964,1.0364,1.1082,1.1678,1.2406,1.2603,1.2224,1.1175,1.0259,0.9699,0.9237,0.942,0.9976,1.1685,1.2676,1.2881,1.2783,1.2735,1.2455,1.2406,1.22,1.2006,1.1277,1.0616,1.1273,1.0628,1.0329,1.1693,1.3525,1.4719,1.4824,1.4697,1.4258,1.3486,1.3594,1.3603,1.3252,1.313,1.3242,1.3125,1.3003,1.2954,1.2915,1.2915,1.2856,1.2856,1.2891,1.2915,1.2915,1.2974,1.3003,1.2925,1.2915,1.2915,1.2915,1.2915,1.2807,1.2661,1.2651,1.2484,1.2367,1.2256,1.1963,1.1582,1.1467,1.139,1.1115,1.0859,1.0615,1.5825,1.5825,1.5825,1.5825,1.5725,1.5211,1.5015,1.4928,1.4349,1.4088,1.4088,1.4088,1.4088,1.4088,1.4088,1.3761,1.3206,1.2766,1.2496,1.2351,1.2305,1.2305,1.2305,1.2305,1.2305,1.2271,1.2138,1.1931,1.163,1.1196,1.0975,1.0827,1.068,1.0586,1.0586,1.0579,1.0506,1.0327,1.0187,0.9963,0.9657,0.9524,0.9312,0.9084,0.9011,0.9212,0.9655,1.0364,1.1057,1.171,1.2455,1.2808,1.2603,1.2017,1.1167,1.0616,0.9584,0.9035,0.9595,1.1326,1.2505,1.2891,1.2915,1.2915,1.2915,1.2832,1.2935,1.2912,1.3548,1.3064,1.3214,1.167,1.0833,1.082,1.3258,1.5129,1.542,1.542,1.4844,1.4072,1.3919,1.3685,1.3145,1.3174,1.3486,1.3398,1.3169,1.3062,1.3013,1.316,1.3257,1.3023,1.3013,1.2915,1.3032,1.3232,1.3394,1.3297,1.2915,1.2915,1.2915,1.2915,1.2915,1.2846,1.2895,1.2915,1.2846,1.2602,1.2324,1.2129,1.2132,1.2015,1.1582,1.126,1.1094,1.5825,1.5825,1.5825,1.5825,1.5732,1.5256,1.5015,1.4894,1.4385,1.4088,1.4088,1.4088,1.4088,1.4068,1.3961,1.3701,1.32,1.2918,1.2616,1.2345,1.2305,1.2305,1.2305,1.2305,1.2305,1.2298,1.2278,1.2151,1.179,1.1356,1.1102,1.0935,1.0727,1.0586,1.0586,1.0586,1.0586,1.0512,1.0378,1.0207,1.006,0.9826,0.9579,0.9304,0.9244,0.9323,0.9775,1.0403,1.1158,1.186,1.2547,1.2978,1.2852,1.248,1.2233,1.1897,1.0371,0.9836,1.0285,1.1351,1.2578,1.2881,1.2915,1.2915,1.2915,1.2954,1.3071,1.3541,1.4303,1.4936,1.4438,1.3738,1.215,1.1226,1.3129,1.542,1.542,1.542,1.542,1.4816,1.4387,1.4085,1.3818,1.3906,1.4328,1.4133,1.3906,1.3506,1.3496,1.3799,1.3809,1.334,1.3115,1.2964,1.3125,1.3633,1.3857,1.4043,1.3375,1.2915,1.2915,1.2915,1.2925,1.2964,1.2915,1.2915,1.2915,1.2905,1.2661,1.2549,1.2734,1.2627,1.2207,1.2012,1.1904,1.5825,1.5825,1.5825,1.5825,1.5745,1.5211,1.5015,1.4928,1.4385,1.4095,1.4088,1.4088,1.4088,1.4041,1.3834,1.3493,1.32,1.2933,1.2656,1.2351,1.2305,1.2305,1.2305,1.2305,1.2305,1.2305,1.2305,1.2138,1.187,1.1536,1.1236,1.1015,1.078,1.0586,1.0586,1.0586,1.0586,1.0579,1.0546,1.0412,1.014,0.9873,0.9726,0.9586,0.9432,0.9515,1.0058,1.064,1.131,1.22,1.2985,1.3217,1.2959,1.2856,1.3219,1.3121,1.2432,1.1393,1.1561,1.22,1.2725,1.2881,1.2915,1.2915,1.3179,1.3277,1.3682,1.5059,1.5332,1.5332,1.5216,1.5089,1.3933,1.3464,1.3943,1.5206,1.542,1.542,1.542,1.5391,1.4864,1.4972,1.4941,1.5088,1.5186,1.4913,1.4601,1.4202,1.4026,1.4375,1.4512,1.4092,1.374,1.3555,1.3486,1.3929,1.4346,1.4678,1.4082,1.3257,1.3213,1.3271,1.3032,1.3042,1.2974,1.2915,1.2915,1.2895,1.2866,1.2866,1.2876,1.2886,1.2846,1.2729,1.2553,1.5825,1.5825,1.5825,1.5825,1.5752,1.5256,1.5015,1.4888,1.4392,1.4088,1.4088,1.4088,1.4088,1.4055,1.3935,1.3634,1.3267,1.3066,1.2739,1.2378,1.2311,1.2305,1.2305,1.2305,1.2305,1.2305,1.2298,1.2271,1.1997,1.167,1.1336,1.1196,1.0802,1.0586,1.0586,1.0586,1.0586,1.0586,1.0573,1.0526,1.0405,1.0271,1.0124,0.994,0.9757,0.9956,1.0388,1.1102,1.174,1.2591,1.3383,1.3773,1.3643,1.3636,1.3938,1.4661,1.4257,1.3359,1.261,1.2792,1.2934,1.2944,1.3042,1.3311,1.3945,1.4297,1.4434,1.5254,1.54,1.542,1.542,1.542,1.503,1.4765,1.4854,1.5059,1.542,1.542,1.542,1.542,1.542,1.542,1.542,1.5391,1.5361,1.5225,1.5078,1.4893,1.4767,1.499,1.5039,1.4903,1.4582,1.4346,1.4268,1.4397,1.4814,1.5098,1.5098,1.4355,1.3936,1.3779,1.3652,1.3248,1.2964,1.2925,1.2935,1.2905,1.2886,1.2895,1.2915,1.2915,1.2915,1.2895,1.2758,1.5825,1.5825,1.5825,1.5825,1.5778,1.5284,1.5068,1.4948,1.4479,1.4162,1.4102,1.4088,1.4088,1.4082,1.4041,1.3794,1.33,1.3253,1.2893,1.2552,1.2345,1.2311,1.2305,1.2305,1.2305,1.2305,1.2305,1.2285,1.2138,1.1837,1.153,1.141,1.0942,1.0693,1.06,1.0586,1.0586,1.0586,1.0586,1.0579,1.0559,1.0566,1.0432,1.0267,1.0171,1.0276,1.0733,1.1419,1.2136,1.2991,1.3826,1.4299,1.4387,1.4455,1.465,1.5157,1.5042,1.4664,1.384,1.3519,1.3359,1.3463,1.358,1.418,1.498,1.542,1.542,1.5381,1.541,1.542,1.542,1.542,1.5294,1.5206,1.5323,1.5391,1.542,1.542,1.542,1.542,1.542,1.542,1.542,1.542,1.541,1.541,1.542,1.542,1.541,1.54,1.5342,1.5196,1.5117,1.4873,1.4863,1.4923,1.5312,1.542,1.542,1.5273,1.4717,1.4609,1.4619,1.4043,1.3326,1.3174,1.333,1.3105,1.2915,1.2915,1.2915,1.2915,1.2915,1.2915,1.2915,1.5825,1.5825,1.5825,1.5825,1.5758,1.5498,1.5211,1.4988,1.4623,1.4322,1.4102,1.4088,1.4088,1.4088,1.4062,1.3908,1.3547,1.3333,1.3013,1.2744,1.2496,1.2351,1.2318,1.2305,1.2305,1.2305,1.2305,1.2305,1.2245,1.2024,1.1697,1.1375,1.1076,1.0854,1.0687,1.062,1.0593,1.0624,1.0649,1.0688,1.0688,1.0688,1.0654,1.0562,1.0366,1.0395,1.0952,1.1717,1.251,1.3448,1.4289,1.4853,1.5039,1.5098,1.5235,1.5342,1.542,1.5166,1.4795,1.4404,1.4475,1.4894,1.5117,1.499,1.5361,1.542,1.542,1.542,1.542,1.542,1.542,1.542,1.542,1.542,1.542,1.542,1.542,1.542,1.542,1.542,1.542,1.542,1.542,1.542,1.542,1.542,1.542,1.542,1.542,1.541,1.541,1.5371,1.5371,1.5303,1.5312,1.542,1.542,1.542,1.542,1.542,1.5244,1.5283,1.5186,1.4834,1.4141,1.3945,1.376,1.374,1.3574,1.3111,1.2915,1.2915,1.2915,1.2915,1.2915,1.5825,1.5825,1.5825,1.5825,1.5751,1.5518,1.5276,1.4988,1.4649,1.4355,1.413,1.4088,1.4088,1.4088,1.4075,1.3928,1.362,1.3513,1.3193,1.2898,1.2656,1.2472,1.2392,1.2325,1.2305,1.2342,1.2342,1.2305,1.2285,1.2194,1.2007,1.1692,1.1296,1.0995,1.0854,1.068,1.0663,1.0751,1.0839,1.094,1.1059,1.1153,1.1216,1.1195,1.1152,1.1339,1.192,1.256,1.3303,1.403,1.4763,1.5148,1.5361,1.54,1.542,1.542,1.542,1.542,1.541,1.5059,1.5098,1.5234,1.5391,1.542,1.542,1.542,1.542,1.542,1.542,1.542,1.542,1.542,1.542,1.542,1.542,1.542,1.542,1.542,1.5732,1.5869,1.5615,1.542,1.542,1.542,1.542,1.542,1.542,1.542,1.542,1.542,1.542,1.542,1.542,1.542,1.542,1.542,1.542,1.542,1.542,1.542,1.542,1.54,1.5283,1.5078,1.5,1.4756,1.46,1.457,1.4248,1.3672,1.3203,1.2915,1.2915,1.2935,1.2915,1.5825,1.5825,1.5825,1.5832,1.59,1.5798,1.5579,1.5277,1.5184,1.4847,1.4503,1.4419,1.4334,1.4292,1.4195,1.4043,1.3801,1.3613,1.338,1.3172,1.3003,1.282,1.2713,1.2692,1.2841,1.2684,1.2562,1.2599,1.2526,1.2496,1.2396,1.2146,1.1765,1.1499,1.0915,1.0792,1.0694,1.0909,1.1178,1.1428,1.16,1.1888,1.2042,1.2042,1.202,1.2258,1.2763,1.3309,1.3874,1.4464,1.4992,1.5332,1.541,1.542,1.542,1.542,1.542,1.542,1.542,1.541,1.5381,1.542,1.542,1.542,1.542,1.542,1.542,1.542,1.542,1.542,1.542,1.542,1.542,1.542,1.542,1.542,1.542,1.5449,1.5986,1.6367,1.6191,1.6191,1.5459,1.5478,1.5557,1.5508,1.542,1.542,1.542,1.542,1.542,1.542,1.542,1.542,1.542,1.542,1.542,1.542,1.542,1.542,1.542,1.542,1.542,1.5283,1.5273,1.5391,1.5273,1.5029,1.4621,1.4155,1.3685,1.3218,1.3091,1.3111,1.2954,1.5825,1.5825,1.5825,1.5974,1.6312,1.6494,1.637,1.6136,1.6257,1.5986,1.5431,1.5242,1.4957,1.4741,1.4566,1.4287,1.4023,1.3746,1.3553,1.3474,1.3491,1.3395,1.3425,1.3488,1.3644,1.3477,1.3339,1.3185,1.2893,1.2929,1.2894,1.2905,1.2734,1.2251,1.1121,1.076,1.081,1.1143,1.1667,1.2064,1.2429,1.2784,1.2969,1.2895,1.2895,1.3117,1.3502,1.3893,1.435,1.4765,1.5147,1.5381,1.542,1.542,1.542,1.542,1.542,1.542,1.542,1.542,1.542,1.542,1.542,1.542,1.542,1.542,1.5498,1.5576,1.5469,1.543,1.542,1.542,1.542,1.5498,1.5518,1.5928,1.5996,1.6035,1.665,1.6992,1.7334,1.7383,1.624,1.5566,1.5674,1.5644,1.5478,1.543,1.5469,1.542,1.542,1.542,1.542,1.542,1.542,1.542,1.542,1.542,1.542,1.542,1.542,1.542,1.542,1.542,1.542,1.542,1.542,1.5371,1.4962,1.4572,1.4016,1.3594,1.3428,1.3193,1.3023,1.5933,1.6076,1.6258,1.6777,1.7387,1.7372,1.7338,1.7346,1.7388,1.7169,1.6647,1.6337,1.5842,1.5428,1.4985,1.4629,1.4181,1.4035,1.3888,1.3682,1.3925,1.4166,1.4272,1.4502,1.4649,1.4773,1.4522,1.3891,1.3433,1.3506,1.347,1.349,1.3792,1.3283,1.2419,1.1969,1.2138,1.2623,1.3016,1.3316,1.353,1.3822,1.3961,1.3761,1.3744,1.3877,1.4169,1.4506,1.4677,1.4981,1.5303,1.5391,1.542,1.542,1.542,1.542,1.542,1.542,1.542,1.542,1.542,1.542,1.542,1.542,1.542,1.542,1.5596,1.583,1.5762,1.5664,1.542,1.5449,1.5508,1.5771,1.6074,1.6992,1.7324,1.7314,1.7506,1.7637,1.7891,1.7871,1.7158,1.6602,1.6562,1.6377,1.625,1.582,1.5723,1.5508,1.542,1.542,1.542,1.542,1.542,1.5439,1.543,1.542,1.542,1.542,1.542,1.542,1.542,1.542,1.542,1.542,1.542,1.54,1.5284,1.4933,1.4502,1.4023,1.374,1.3369,1.2974,1.6021,1.6407,1.6817,1.7559,1.8388,1.8288,1.8389,1.8562,1.8482,1.8225,1.7774,1.735,1.678,1.6206,1.5684,1.5208,1.458,1.4531,1.4496,1.433,1.4808,1.5155,1.5381,1.5608,1.5943,1.6015,1.5582,1.4905,1.4186,1.4266,1.4366,1.4617,1.4967,1.475,1.4036,1.3684,1.3388,1.3819,1.417,1.4541,1.4817,1.5061,1.5206,1.5035,1.4918,1.4849,1.4973,1.5056,1.502,1.5254,1.5352,1.543,1.543,1.542,1.542,1.542,1.542,1.542,1.542,1.542,1.542,1.542,1.542,1.5576,1.5625,1.5625,1.5946,1.6161,1.621,1.6318,1.626,1.6201,1.6279,1.6572,1.6885,1.7803,1.79,1.7832,1.7832,1.7969,1.8008,1.8008,1.8008,1.791,1.7637,1.7353,1.7038,1.6572,1.6084,1.585,1.5771,1.585,1.5684,1.5596,1.5557,1.5488,1.5469,1.542,1.542,1.542,1.542,1.542,1.542,1.542,1.542,1.542,1.542,1.5381,1.5332,1.5293,1.5107,1.4619,1.4121,1.373,1.335,1.6116,1.6683,1.7419,1.828,1.9155,1.9343,1.9573,1.9851,1.9552,1.916,1.8736,1.8318,1.7755,1.7107,1.6673,1.6131,1.5636,1.5519,1.5489,1.5647,1.6088,1.6412,1.6778,1.7144,1.7328,1.7074,1.6683,1.612,1.5155,1.5144,1.5436,1.5789,1.6131,1.6112,1.5763,1.5307,1.4897,1.5113,1.5369,1.5658,1.5886,1.6275,1.6325,1.6184,1.6013,1.59,1.5875,1.573,1.5575,1.5537,1.5469,1.5478,1.5469,1.54,1.542,1.542,1.542,1.5518,1.542,1.542,1.5762,1.5889,1.5781,1.6054,1.621,1.6132,1.6463,1.6911,1.7187,1.7549,1.7764,1.7695,1.7637,1.7715,1.7725,1.7988,1.7988,1.7969,1.7969,1.8008,1.8008,1.8008,1.8008,1.8008,1.8008,1.7852,1.7568,1.7539,1.7021,1.6426,1.6395,1.6648,1.6406,1.5879,1.5762,1.5654,1.5527,1.5488,1.543,1.542,1.542,1.542,1.542,1.542,1.542,1.542,1.542,1.542,1.541,1.5361,1.5312,1.5146,1.4619,1.4426,1.4055,1.6204,1.6972,1.7831,1.8896,2.0051,2.0917,2.1332,2.1284,2.1174,2.0754,2.005,1.9529,1.8886,1.8399,1.7948,1.7334,1.6976,1.6731,1.6764,1.6976,1.7269,1.776,1.818,1.8455,1.8711,1.8686,1.8239,1.7442,1.666,1.6404,1.6403,1.6777,1.7123,1.7329,1.7279,1.7085,1.6625,1.6348,1.6514,1.6627,1.6802,1.7057,1.7038,1.6846,1.6619,1.6523,1.6455,1.6365,1.6248,1.6239,1.5713,1.5625,1.6307,1.5781,1.542,1.5469,1.5684,1.5898,1.5518,1.543,1.5869,1.6785,1.71,1.6875,1.6941,1.695,1.7106,1.7461,1.7725,1.793,1.8008,1.8008,1.8008,1.8008,1.8008,1.8008,1.8008,1.8008,1.8008,1.8008,1.8008,1.8008,1.8008,1.8008,1.8008,1.8008,1.8008,1.8008,1.7861,1.7227,1.6992,1.7213,1.7165,1.6699,1.6084,1.5859,1.5693,1.5557,1.5488,1.543,1.542,1.542,1.542,1.542,1.542,1.542,1.542,1.542,1.542,1.542,1.5371,1.5293,1.5186,1.4933,1.4816,1.6298,1.7246,1.838,1.972,2.1138,2.1973,2.2071,2.1709,2.1631,2.1211,2.0605,2.0177,1.9736,1.9195,1.8798,1.8399,1.7876,1.7836,1.7836,1.7917,1.8318,1.8709,1.9125,1.9444,1.9583,1.9657,1.9351,1.8545,1.7815,1.7312,1.7223,1.7364,1.7862,1.7974,1.791,1.777,1.7662,1.7429,1.741,1.746,1.7514,1.7541,1.7408,1.7236,1.7028,1.6911,1.6941,1.6921,1.6824,1.6726,1.6044,1.6122,1.6638,1.6161,1.6279,1.6377,1.6348,1.6611,1.6514,1.6122,1.6814,1.7559,1.7998,1.7734,1.7588,1.7555,1.7637,1.7773,1.79,1.8008,1.8008,1.8008,1.8008,1.8008,1.8008,1.8008,1.8008,1.8008,1.8008,1.8008,1.8008,1.8008,1.8008,1.8008,1.8008,1.8008,1.8008,1.8008,1.8008,1.7783,1.7598,1.7715,1.7725,1.7539,1.6885,1.6211,1.5937,1.5742,1.5518,1.5459,1.5439,1.542,1.542,1.542,1.542,1.542,1.542,1.542,1.542,1.542,1.542,1.5361,1.5332,1.5283,1.5244,1.6527,1.7606,1.9039,2.0749,2.2359,2.2418,2.1941,2.1229,2.1171,2.0957,2.0615,2.0381,2.0089,1.9726,1.952,1.9292,1.9006,1.8926,1.8926,1.8865,1.9213,1.9569,1.9766,2.006,2.0091,1.9974,1.9761,1.9381,1.8674,1.8129,1.7773,1.7773,1.7906,1.8018,1.8008,1.8008,1.7906,1.7872,1.7837,1.7847,1.7901,1.7978,1.7998,1.7861,1.7525,1.7243,1.7353,1.7275,1.7058,1.6902,1.6824,1.6833,1.6853,1.6882,1.7295,1.7393,1.7145,1.7256,1.7334,1.7058,1.7213,1.7725,1.7998,1.7939,1.7891,1.7881,1.7881,1.7891,1.7988,1.8008,1.8008,1.8008,1.8008,1.8008,1.8008,1.8008,1.8008,1.8008,1.8008,1.8008,1.8008,1.8008,1.8008,1.8008,1.8008,1.8008,1.8008,1.8008,1.8008,1.8008,1.8008,1.8008,1.7949,1.7852,1.7549,1.6894,1.6309,1.5996,1.5664,1.5478,1.543,1.542,1.542,1.542,1.542,1.542,1.542,1.542,1.542,1.542,1.542,1.542,1.542,1.542,1.542,1.7552,1.8611,2.0421,2.1729,2.2395,2.2168,2.1738,2.1171,2.0859,2.0684,2.0625,2.0527,2.045,2.0294,2.0206,2.0059,2.005,1.9893,2.0079,2.001,2.0177,2.0137,2.0294,2.0411,2.044,2.0469,2.0313,2.0022,1.9388,1.8819,1.8402,1.8343,1.8266,1.8154,1.8135,1.8135,1.8144,1.8174,1.8164,1.8154,1.8144,1.8057,1.7988,1.7969,1.7773,1.7744,1.7793,1.7783,1.7744,1.7705,1.7715,1.7715,1.7715,1.7695,1.7783,1.791,1.7764,1.7812,1.7812,1.7711,1.7793,1.7852,1.8008,1.8008,1.7998,1.8008,1.8008,1.8008,1.8008,1.8008,1.8008,1.8008,1.8008,1.8008,1.8008,1.8008,1.8008,1.8008,1.8008,1.8008,1.8008,1.8008,1.8008,1.8008,1.8008,1.8008,1.8008,1.8008,1.8008,1.8008,1.8008,1.8008,1.8008,1.791,1.7744,1.7314,1.6592,1.6064,1.5703,1.5547,1.542,1.542,1.542,1.542,1.542,1.542,1.542,1.542,1.542,1.542,1.542,1.542,1.542,1.542,1.542,1.8553,1.9596,2.1195,2.1995,2.2162,2.1982,2.1523,2.0957,2.0713,2.0615,2.0615,2.0615,2.0615,2.0615,2.0615,2.0615,2.0615,2.0566,2.0489,2.0527,2.0615,2.0566,2.0615,2.0615,2.0595,2.0605,2.0576,2.0312,1.9902,1.9543,1.9117,1.889,1.8643,1.8535,1.8535,1.8555,1.8535,1.8594,1.8525,1.8525,1.8447,1.8281,1.8047,1.8008,1.8008,1.8018,1.8008,1.8008,1.7998,1.7998,1.7959,1.7959,1.7939,1.793,1.7969,1.7998,1.7978,1.8008,1.8008,1.8008,1.8008,1.8008,1.8008,1.8008,1.8008,1.8008,1.8008,1.8008,1.8008,1.8008,1.8008,1.8008,1.8008,1.8008,1.8008,1.8008,1.8008,1.8008,1.8008,1.8008,1.8008,1.8008,1.8008,1.8008,1.8008,1.8008,1.8008,1.8008,1.8008,1.8008,1.8008,1.8008,1.8008,1.7998,1.7857,1.7363,1.6641,1.6172,1.5781,1.5557,1.542,1.542,1.542,1.542,1.542,1.542,1.542,1.542,1.542,1.542,1.542,1.542,1.542,1.542,1.542,1.9586,2.0567,2.1695,2.2088,2.1912,2.1936,2.1427,2.0713,2.0615,2.0654,2.0732,2.0732,2.0674,2.0615,2.0615,2.0615,2.0615,2.0615,2.0615,2.0615,2.0615,2.0615,2.0615,2.0615,2.0615,2.0615,2.0595,2.0361,2.0068,1.9805,1.959,1.9394,1.9307,1.9258,1.9277,1.9258,1.915,1.9111,1.9102,1.9189,1.8945,1.8603,1.8379,1.8223,1.8066,1.8076,1.8115,1.8184,1.8193,1.8164,1.8203,1.8086,1.8027,1.8008,1.8008,1.8008,1.8008,1.8008,1.8008,1.8008,1.8008,1.8008,1.8008,1.8008,1.8008,1.8008,1.8008,1.8008,1.8008,1.8008,1.8008,1.8008,1.8008,1.8008,1.8008,1.8008,1.8008,1.8008,1.8008,1.8008,1.8008,1.8008,1.8008,1.8008,1.8008,1.8008,1.8008,1.8008,1.8008,1.8008,1.8008,1.8008,1.8008,1.7988,1.7978,1.748,1.6787,1.6406,1.6035,1.5684,1.542,1.542,1.542,1.542,1.542,1.542,1.542,1.542,1.542,1.542,1.542,1.542,1.542,1.542,1.542,2.0713,2.1784,2.2422,2.2356,2.1953,2.1936,2.1377,2.0693,2.0625,2.0791,2.1016,2.1064,2.0937,2.0625,2.0615,2.0674,2.082,2.0762,2.0654,2.0615,2.0713,2.0664,2.0625,2.0654,2.0615,2.0615,2.0615,2.0546,2.0293,2.0068,1.9902,1.9795,1.9424,1.9346,1.9326,1.9355,1.946,1.9443,1.9434,1.9443,1.9375,1.916,1.9111,1.8809,1.8379,1.8603,1.8818,1.9023,1.9043,1.8945,1.8672,1.8344,1.8154,1.8066,1.8096,1.8008,1.8008,1.8008,1.8008,1.8008,1.8008,1.8008,1.8008,1.8008,1.8008,1.8008,1.8008,1.8008,1.8008,1.8008,1.8008,1.8008,1.8008,1.8008,1.8008,1.8008,1.8008,1.8008,1.8008,1.8008,1.8008,1.8008,1.8008,1.8008,1.8008,1.8008,1.8008,1.8008,1.8008,1.8008,1.8008,1.8008,1.8008,1.8008,1.7988,1.7617,1.7041,1.667,1.625,1.583,1.5537,1.543,1.542,1.542,1.542,1.542,1.542,1.542,1.542,1.542,1.542,1.542,1.542,1.542,1.542]}]]